[[{"header":{"parameterUnit":"m.s-1","parameterCategory":1,"la1":30.6,"la2":28.766,"lo1":-90.7593,"lo2":-88.6598,"dy":0.0162,"dx":0.0183,"nx":116,"ny":114,"refTime":"2024-06-10T18:00:00:Z","depth":0,"parameterNumber":2,"parameterNumberName":"U-component_of_WINDS"},"data":[0.0,0.0,0.0,0.0,0.0,0.0,0.0,0.0,0.0,0.0,0.0,0.0,0.0,0.0,0.0,0.0,0.0,0.0,0.0,0.0,0.0,0.0,0.0,0.0,0.0,0.0,0.0,0.0,0.0,0.0,0.0,0.0,0.0,0.0,0.0,0.0,0.0,0.0,0.0,0.0,0.0,0.0,0.0,0.0,0.0,0.0,0.0,0.0,0.0,0.0,0.0,0.0,0.0,0.0,0.0,0.0,0.0,0.0,0.0,0.0,0.0,0.0,0.0,0.0,0.0,0.0,0.0,0.0,0.0,0.0,0.0,0.0,0.0,0.0,0.0,0.0,0.0,0.0,0.0,0.0,0.0,0.0,0.0,0.0,0.0,0.0,0.0,0.0,0.0,0.0,0.0,0.0,0.0,0.0,0.0,0.0,0.0,0.0,0.0,0.0,0.0,0.0,0.0,0.0,0.0,0.0,0.0,0.0,0.0,0.0,0.0,0.0,0.0,0.0,0.0,0.0,0.0,0.0,0.0,0.0,0.0,0.0,0.0,0.0,0.0,0.0,0.0,0.0,0.0,0.0,0.0,0.0,0.0,0.0,0.0,0.0,0.0,0.0,0.0,0.0,0.0,0.0,0.0,0.0,0.0,0.0,0.0,0.0,0.0,0.0,0.0,0.0,0.0,0.0,0.0,0.0,0.0,0.0,0.0,0.0,0.0,0.0,0.0,0.0,0.0,0.0,0.0,0.0,0.0,0.0,0.0,0.0,0.0,0.0,0.0,0.0,0.0,0.0,0.0,0.0,0.0,0.0,0.0,0.0,0.0,0.0,0.0,0.0,0.0,0.0,0.0,0.0,0.0,0.0,0.0,0.0,0.0,0.0,0.0,0.0,0.0,0.0,0.0,0.0,0.0,0.0,0.0,0.0,0.0,0.0,0.0,0.0,0.0,0.0,0.0,0.0,0.0,0.0,0.0,0.0,0.0,0.0,0.0,0.0,0.0,0.0,0.0,0.0,0.0,0.0,0.0,0.0,0.0,0.0,0.0,0.0,0.0,0.0,0.0,0.0,0.0,0.0,0.0,0.0,0.0,0.0,0.0,0.0,0.0,0.0,0.0,0.0,0.0,0.0,0.0,0.0,0.0,0.0,0.0,0.0,0.0,0.0,0.0,0.0,0.0,0.0,0.0,0.0,0.0,0.0,0.0,0.0,0.0,0.0,0.0,0.0,0.0,0.0,0.0,0.0,0.0,0.0,0.0,0.0,0.0,0.0,0.0,0.0,0.0,0.0,0.0,0.0,0.0,0.0,0.0,0.0,0.0,0.0,0.0,0.0,0.0,0.0,0.0,0.0,0.0,0.0,0.0,0.0,0.0,0.0,0.0,0.0,0.0,0.0,0.0,0.0,0.0,0.0,0.0,0.0,0.0,0.0,0.0,0.0,0.0,0.0,0.0,0.0,0.0,0.0,0.0,0.0,0.0,0.0,0.0,0.0,0.0,0.0,0.0,0.0,0.0,0.0,0.0,0.0,0.0,0.0,0.0,0.0,0.0,0.0,0.0,0.0,0.0,0.0,0.0,0.0,0.0,0.0,0.0,0.0,0.0,0.0,0.0,0.0,0.0,0.0,0.0,0.0,0.0,0.0,0.0,0.0,0.0,0.0,0.0,0.0,0.0,0.0,0.0,0.0,0.0,0.0,0.0,0.0,0.0,0.0,0.0,0.0,0.0,0.0,0.0,0.0,0.0,0.0,0.0,0.0,0.0,0.0,0.0,0.0,0.0,0.0,0.0,0.0,0.0,0.0,0.0,0.0,0.0,0.0,0.0,0.0,0.0,0.0,0.0,0.0,0.0,0.0,0.0,0.0,0.0,0.0,0.0,0.0,0.0,0.0,0.0,0.0,0.0,0.0,0.0,0.0,0.0,0.0,0.0,0.0,0.0,0.0,0.0,0.0,0.0,0.0,0.0,0.0,0.0,0.0,0.0,0.0,0.0,0.0,0.0,0.0,0.0,0.0,0.0,0.0,0.0,0.0,0.0,0.0,0.0,0.0,0.0,0.0,0.0,0.0,0.0,0.0,0.0,0.0,0.0,0.0,0.0,0.0,0.0,0.0,0.0,0.0,0.0,0.0,0.0,0.0,0.0,0.0,0.0,0.0,0.0,0.0,0.0,0.0,0.0,0.0,0.0,0.0,0.0,0.0,0.0,0.0,0.0,0.0,0.0,0.0,0.0,0.0,0.0,0.0,0.0,0.0,0.0,0.0,0.0,0.0,0.0,0.0,0.0,0.0,0.0,0.0,0.0,0.0,0.0,0.0,0.0,0.0,0.0,0.0,0.0,0.0,0.0,0.0,0.0,0.0,0.0,0.0,0.0,0.0,0.0,0.0,0.0,0.0,0.0,0.0,0.0,0.0,0.0,0.0,0.0,0.0,0.0,0.0,0.0,0.0,0.0,0.0,0.0,0.0,0.0,0.0,0.0,0.0,0.0,0.0,0.0,0.0,0.0,0.0,0.0,0.0,0.0,0.0,0.0,0.0,0.0,0.0,0.0,0.0,0.0,0.0,0.0,0.0,0.0,0.0,0.0,0.0,0.0,0.0,0.0,0.0,0.0,0.0,0.0,0.0,0.0,0.0,0.0,0.0,0.0,0.0,0.0,0.0,0.0,0.0,0.0,0.0,0.0,0.0,0.0,0.0,0.0,0.0,0.0,0.0,0.0,0.0,0.0,0.0,0.0,0.0,0.0,0.0,0.0,0.0,0.0,0.0,0.0,0.0,0.0,0.0,0.0,0.0,0.0,0.0,0.0,0.0,0.0,0.0,0.0,0.0,0.0,0.0,0.0,0.0,0.0,0.0,0.0,0.0,0.0,0.0,0.0,0.0,0.0,0.0,0.0,0.0,0.0,0.0,0.0,0.0,0.0,0.0,0.0,0.0,0.0,0.0,0.0,0.0,0.0,0.0,0.0,0.0,0.0,0.0,0.0,0.0,0.0,0.0,0.0,0.0,0.0,0.0,0.0,0.0,0.0,0.0,0.0,0.0,0.0,0.0,0.0,0.0,0.0,0.0,0.0,0.0,0.0,0.0,0.0,0.0,0.0,0.0,0.0,0.0,0.0,0.0,0.0,0.0,0.0,0.0,0.0,0.0,0.0,0.0,0.0,0.0,0.0,0.0,0.0,0.0,0.0,0.0,0.0,0.0,0.0,0.0,0.0,0.0,0.0,0.0,0.0,0.0,0.0,0.0,0.0,0.0,0.0,0.0,0.0,0.0,0.0,0.0,0.0,0.0,0.0,0.0,0.0,0.0,0.0,0.0,0.0,0.0,0.0,0.0,0.0,0.0,0.0,0.0,0.0,0.0,0.0,0.0,0.0,0.0,0.0,0.0,0.0,0.0,0.0,0.0,0.0,0.0,0.0,0.0,0.0,0.0,0.0,0.0,0.0,0.0,0.0,0.0,0.0,0.0,0.0,0.0,0.0,0.0,0.0,0.0,0.0,0.0,0.0,0.0,0.0,0.0,0.0,0.0,0.0,0.0,0.0,0.0,0.0,0.0,0.0,0.0,0.0,0.0,0.0,0.0,0.0,0.0,0.0,0.0,0.0,0.0,0.0,0.0,0.0,0.0,0.0,0.0,0.0,0.0,0.0,0.0,0.0,0.0,0.0,0.0,0.0,0.0,0.0,0.0,0.0,0.0,0.0,0.0,0.0,0.0,0.0,0.0,0.0,0.0,0.0,0.0,0.0,0.0,0.0,0.0,0.0,0.0,0.0,0.0,0.0,0.0,0.0,0.0,0.0,0.0,0.0,0.0,0.0,0.0,0.0,0.0,0.0,0.0,0.0,0.0,0.0,0.0,0.0,0.0,0.0,0.0,0.0,0.0,0.0,0.0,0.0,0.0,0.0,0.0,0.0,0.0,0.0,0.0,0.0,0.0,0.0,0.0,0.0,0.0,0.0,0.0,0.0,0.0,0.0,0.0,0.0,0.0,0.0,0.0,0.0,0.0,0.0,0.0,0.0,0.0,0.0,0.0,0.0,0.0,0.0,0.0,0.0,0.0,0.0,0.0,0.0,0.0,0.0,0.0,0.0,0.0,0.0,0.0,0.0,0.0,0.0,0.0,0.0,0.0,0.0,0.0,0.0,0.0,0.0,0.0,0.0,0.0,0.0,0.0,0.0,0.0,0.0,0.0,0.0,0.0,0.0,0.0,0.0,0.0,0.0,0.0,0.0,0.0,0.0,0.0,0.0,0.0,0.0,0.0,0.0,0.0,0.0,0.0,0.0,0.0,0.0,0.0,0.0,0.0,0.0,0.0,0.0,0.0,0.0,0.0,0.0,0.0,0.0,0.0,0.0,0.0,0.0,0.0,0.0,0.0,0.0,0.0,0.0,0.0,0.0,0.0,0.0,0.0,0.0,0.0,0.0,0.0,0.0,0.0,0.0,0.0,0.0,0.0,0.0,0.0,0.0,0.0,0.0,0.0,0.0,0.0,0.0,0.0,0.0,0.0,0.0,0.0,0.0,0.0,0.0,0.0,0.0,0.0,0.0,0.0,0.0,0.0,0.0,0.0,0.0,0.0,0.0,0.0,0.0,0.0,0.0,0.0,0.0,0.0,0.0,0.0,0.0,0.0,0.0,0.0,0.0,0.0,0.0,0.0,0.0,0.0,0.0,0.0,0.0,0.0,0.0,0.0,0.0,0.0,0.0,0.0,0.0,0.0,0.0,0.0,0.0,0.0,0.0,0.0,0.0,0.0,0.0,0.0,0.0,0.0,0.0,0.0,0.0,0.0,0.0,0.0,0.0,0.0,0.0,0.0,0.0,0.0,0.0,0.0,0.0,0.0,0.0,0.0,0.0,0.0,0.0,0.0,0.0,0.0,0.0,0.0,0.0,0.0,0.0,0.0,0.0,0.0,0.0,0.0,0.0,0.0,0.0,0.0,0.0,0.0,0.0,0.0,0.0,0.0,0.0,0.0,0.0,0.0,0.0,0.0,0.0,0.0,0.0,0.0,0.0,0.0,0.0,0.0,0.0,0.0,0.0,0.0,0.0,0.0,0.0,0.0,0.0,0.0,0.0,0.0,0.0,0.0,0.0,0.0,0.0,0.0,0.0,0.0,0.0,0.0,0.0,0.0,0.0,0.0,0.0,0.0,0.0,0.0,0.0,0.0,0.0,0.0,0.0,0.0,0.0,0.0,0.0,0.0,0.0,0.0,0.0,0.0,0.0,0.0,0.0,0.0,0.0,0.0,0.0,0.0,0.0,0.0,0.0,0.0,0.0,0.0,0.0,0.0,0.0,0.0,0.0,0.0,0.0,0.0,0.0,0.0,0.0,0.0,0.0,0.0,0.0,0.0,0.0,0.0,0.0,0.0,0.0,0.0,0.0,0.0,0.0,0.0,0.0,0.0,0.0,0.0,0.0,0.0,0.0,0.0,0.0,0.0,0.0,0.0,0.0,0.0,0.0,0.0,0.0,0.0,0.0,0.0,0.0,0.0,0.0,0.0,0.0,0.0,0.0,0.0,0.0,0.0,0.0,0.0,0.0,0.0,0.0,0.0,0.0,0.0,0.0,0.0,0.0,0.0,0.0,0.0,0.0,0.0,0.0,0.0,0.0,0.0,0.0,0.0,0.0,0.0,0.0,0.0,0.0,0.0,0.0,0.0,0.0,0.0,0.0,0.0,0.0,0.0,0.0,0.0,0.0,0.0,0.0,0.0,0.0,0.0,0.0,0.0,0.0,0.0,0.0,0.0,0.0,0.0,0.0,0.0,0.0,0.0,0.0,0.0,0.0,0.0,0.0,0.0,0.0,0.0,0.0,0.0,0.0,0.0,0.0,0.0,0.0,0.0,0.0,0.0,0.0,0.0,0.0,0.0,0.0,0.0,0.0,0.0,0.0,0.0,0.0,0.0,0.0,0.0,0.0,0.0,0.0,0.0,0.0,0.0,0.0,0.0,0.0,0.0,0.0,0.0,0.0,0.0,0.0,0.0,0.0,0.0,0.0,0.0,0.0,0.0,0.0,0.0,0.0,0.0,0.0,0.0,0.0,0.0,0.0,0.0,0.0,0.0,0.0,0.0,0.0,0.0,0.0,0.0,0.0,0.0,0.2845,0.0,0.0,0.0,0.0,0.0,0.0,0.0,0.0,0.0,0.0,0.0,0.0,0.0,0.0,0.0,0.0,0.0,0.0,0.0,0.0,0.0,0.0,0.0,0.0,0.1093,0.0546,0.0439,-0.0677,-0.1375,-0.1413,0.0,0.0,0.0,0.0,0.0,-0.393,-0.4139,-0.444,-0.4856,-0.4874,-0.5196,-0.5837,-0.5953,-0.5386,-0.4335,0.0,0.0,0.0,0.0,0.0,0.0,0.0,0.0,0.0,0.0,0.0,0.0,0.0,0.0,0.0,0.0,0.0,0.0,0.0,0.0,0.0,0.0,0.0,0.0,0.0,0.0,0.0,0.0,0.0,0.0,0.0,0.0,0.0,0.0,0.0,0.0,0.0,0.0,0.0,0.0,0.0,0.0,0.0,0.0,0.0,0.0,0.0,0.0,0.0,0.0,0.0,0.0,0.0,0.0,0.0,0.0,0.0,0.0,0.0,0.0,0.0,0.0,0.0,0.0,0.0,0.0,0.0,0.0,0.0,0.0,0.0,0.2889,0.0,0.0,0.0,0.0,0.0,0.0,0.0,0.0,0.0,0.0,0.0,0.0,0.0,0.0,0.0,0.0,0.0,0.0,0.0,0.0,0.0,0.1235,0.0868,0.0,-0.0673,-0.0958,-0.1997,-0.2669,-0.2772,-0.3439,0.0,0.0,0.0,-0.4595,-0.4723,-0.4982,-0.5462,-0.6202,-0.6171,-0.6879,-0.8294,-0.9085,-0.8447,-0.6653,-0.6384,0.0,0.0,0.0,0.0,0.0,0.0,0.0,0.0,0.0,0.0,0.0,0.0,0.0,0.0,0.0,0.0,0.0,0.0,0.0,0.0,0.0,0.0,0.0,0.0,0.0,0.0,0.0,0.0,0.0,0.0,0.0,0.0,0.0,0.0,0.0,0.0,0.0,0.0,0.0,0.0,0.0,0.0,0.0,0.0,0.0,0.0,0.0,0.0,0.0,0.0,0.0,0.0,0.0,0.0,0.0,0.0,0.0,0.0,0.0,0.0,0.0,0.0,0.0,-0.4652,-0.4268,-0.5353,-0.4843,-0.3857,-0.2406,-0.0156,0.1267,0.1973,0.0,0.0,0.0,0.0,0.0,0.0,0.0,0.0,0.0,0.0,0.0,0.0,0.0,0.0,0.0,0.0,0.0,0.0,0.0,0.0,-0.0653,-0.1385,-0.1793,-0.2363,-0.319,-0.3416,-0.3742,-0.4283,-0.4569,0.0,0.0,-0.5404,-0.5672,-0.6047,-0.6754,-0.7091,-0.7046,-0.8157,-0.9368,-1.0677,-1.1357,-1.1817,-1.1972,-0.9303,-0.7883,-0.7412,0.0,0.0,0.0,0.0,0.0,0.0,0.0,0.0,0.0,0.0,0.0,0.0,0.0,0.0,0.0,0.0,0.0,0.0,0.0,0.0,0.0,0.0,0.0,0.0,0.0,0.0,0.0,0.0,0.0,0.0,0.0,0.0,0.0,0.0,0.0,0.0,0.0,0.0,0.0,0.0,0.0,-0.2837,-0.3586,0.0,0.0,0.0,0.0,0.0,0.0,0.0,0.0,0.0,0.0,0.0,0.0,0.0,-1.0915,-1.0504,-0.9252,-0.9983,-1.2604,-0.7026,-0.5972,-0.8875,-0.6854,-0.6033,-0.6107,-0.4193,0.0,0.1459,0.1126,0.0,0.0,0.0,0.0,0.0,0.0,0.0,0.0,0.0,0.0,0.0,0.0,0.0,0.0,0.0,0.0,0.0,0.0,0.0,0.0,0.0,-0.3156,-0.389,-0.4651,-0.5374,-0.5728,-0.5624,-0.6046,-0.6245,-0.6088,-0.6199,-0.6532,-0.7127,-0.79,-0.8774,-0.9792,-1.1165,-1.219,-1.293,-1.3864,-1.4245,-1.4107,-1.2973,-1.1526,-0.9851,-0.8474,0.0,0.0,0.0,0.0,0.0,0.0,0.0,0.0,0.0,0.0,0.0,0.0,0.0,0.0,0.0,0.0,0.0,0.0,0.0,0.0,0.0,0.0,0.0,0.0,0.0,0.0,0.0,0.0,0.0,0.0,0.0,0.0,0.0,0.0,0.0,0.0,0.0,0.0,0.0,-0.7176,-0.6958,-0.6913,-0.7241,-0.7133,0.0,0.0,0.0,0.0,0.0,0.0,0.0,0.0,0.0,-1.3559,-1.3561,-1.3386,-1.3017,-1.2277,-1.2573,-1.3784,-1.0785,-1.0064,-1.1302,-0.9979,-0.9018,-0.8387,-0.698,-0.5005,-0.2684,-0.1801,-0.1189,-0.0952,0.0,0.0,0.0,0.0,0.0167,0.0299,0.0,0.0,0.0,0.0,0.0,0.0,0.0,0.0,0.0,0.0,0.0,0.0,-0.4124,-0.4981,-0.5859,-0.6652,-0.7387,-0.7637,-0.7349,-0.7463,-0.7421,-0.7101,-0.702,-0.732,-0.8045,-0.9258,-1.0818,-1.2775,-1.401,-1.4863,-1.5394,-1.6247,-1.6464,-1.6118,-1.6153,-1.4791,-1.2278,-1.029,-0.9104,-0.8513,0.0,0.0,0.0,0.0,0.0,0.0,0.0,0.0,0.0,0.0,0.0,0.0,0.0,0.0,0.0,0.0,0.0,0.0,0.0,0.0,0.0,0.0,0.0,0.0,0.0,0.0,0.0,0.0,0.0,0.0,0.0,0.0,0.0,0.0,0.0,0.0,0.0,-1.1045,-1.1269,-1.093,-1.2191,-1.2425,0.0,0.0,0.0,0.0,0.0,0.0,-1.496,-1.5339,-1.5669,-1.589,-1.609,-1.6254,-1.6331,-1.5706,-1.5353,-1.5239,-1.4481,-1.3867,-1.3455,-1.2657,-1.1755,-1.0673,-0.9577,-0.8449,-0.7145,-0.4689,-0.3339,-0.2762,-0.2701,-0.2708,-0.2585,-0.1331,-0.0869,-0.0735,0.0,0.0,0.0,0.0,0.0,0.0,0.0,0.0,0.0,0.0,0.0,-0.5938,-0.7315,-0.7798,-0.8578,-0.9944,-0.9317,-0.9098,0.0,-0.8659,-0.8108,-0.8385,-0.7985,-0.8063,-0.8745,-1.1222,-1.3465,-1.5418,-1.6127,-1.7084,-1.8282,-1.8346,-1.8649,-1.9133,-1.818,-1.65,-1.4273,-1.2682,-1.1621,-1.0851,-0.8909,0.0,0.0,0.0,0.0,0.0,0.0,0.0,0.0,0.0,0.0,0.0,0.0,0.0,0.0,0.0,0.0,0.0,0.0,0.0,0.0,0.0,0.0,0.0,0.0,0.0,0.0,0.0,0.0,0.0,0.0,0.0,0.0,0.0,0.0,0.0,0.0,0.0,0.0,-1.6579,-1.7529,0.0,0.0,0.0,0.0,-1.7895,-1.7596,-1.7839,-1.8757,-1.9215,-1.9594,-2.0005,-1.9849,-2.0279,-2.1322,-2.0047,-1.9355,-1.9168,-1.7377,-1.6191,-1.5596,-1.4281,-1.3636,-1.3533,-1.2368,-1.1532,-1.0615,-0.6726,-0.4536,-0.3755,-0.4076,-0.3679,-0.2896,-0.2802,-0.2708,-0.2628,0.0,0.0,0.0,0.0,0.0,-0.4561,-0.4736,-0.5248,-0.5694,-0.5901,-0.675,-0.7621,-0.8382,-0.9586,-1.0653,-1.1502,-1.1721,-1.1547,-1.0952,-1.0368,-1.0114,-1.023,-0.9826,-1.0759,-1.3236,-1.4506,-1.6119,-1.8115,-1.8362,-1.8883,-1.9722,-1.9891,-2.0014,-2.0024,-1.9626,-1.8886,-1.779,-1.5196,-1.3493,-1.2462,-1.0847,-0.9487,0.0,0.0,0.0,0.0,0.0,0.0,0.0,0.0,0.0,0.0,0.0,0.0,0.0,0.0,0.0,0.0,0.0,0.0,0.0,0.0,0.0,0.0,0.0,0.0,0.0,0.0,0.0,0.0,0.0,0.0,0.0,0.0,0.0,0.0,0.0,0.0,0.0,-1.9983,-2.0609,0.0,-2.0791,-2.0966,-2.0896,-2.0493,-2.0505,-2.0989,-2.2066,-2.2264,-2.2686,-2.3498,-2.3029,-2.2772,-2.279,-2.1156,-2.0208,-1.9933,-1.8574,-1.7569,-1.6889,-1.6052,-1.5333,-1.4722,-1.3879,-1.3158,-1.2445,-1.0393,-0.8324,-0.6465,-0.6551,-0.6219,-0.5501,-0.485,-0.4559,-0.4388,0.0,0.0,0.0,0.0,-0.6202,-0.6447,-0.6354,-0.676,-0.7201,-0.7538,-0.8466,-0.9438,-1.0298,-1.168,-1.2806,-1.3388,-1.352,-1.3232,-1.2427,-1.1643,-1.1258,-1.139,-1.1621,-1.3054,-1.5829,-1.6873,-1.8187,-1.975,-2.0081,-2.0447,-2.0847,-2.1101,-2.1101,-2.0863,-2.0798,-2.0485,-1.9897,-1.7827,-1.6,-1.4391,-1.2728,-1.1515,-1.0582,0.0,0.0,0.0,0.0,0.0,0.0,0.0,0.0,0.0,0.0,0.0,0.0,0.0,0.0,0.0,0.0,0.0,0.0,0.0,0.0,0.0,0.0,0.0,0.0,0.0,0.0,0.0,0.0,0.0,0.0,0.0,0.0,0.0,0.0,0.0,-2.054,-2.2025,-2.2845,-2.3242,-2.3155,-2.3869,-2.4024,-2.3337,-2.3566,-2.394,-2.4436,-2.4599,-2.4825,-2.5196,-2.4833,-2.4331,-2.374,-2.2123,-2.1051,-2.055,-1.9551,-1.8708,-1.804,-1.7652,-1.7152,-1.6545,-1.5745,-1.5175,-1.4709,-1.3558,-1.1789,-0.9773,-0.8815,-0.8112,-0.7534,-0.6844,-0.6464,-0.6152,0.0,0.0,0.0,-0.8366,-0.8543,-0.8233,-0.8221,-0.8326,-0.8734,-0.9593,-1.0321,-1.1414,-1.3141,-1.4151,-1.4977,-1.5684,-1.4658,-1.4059,-1.4304,-1.2399,-1.1462,-1.1906,-1.335,-1.4829,-1.6239,-1.8261,-1.9642,-2.0378,-2.1308,-2.1724,-2.177,-2.2006,-2.1978,-2.1724,-2.1724,-2.121,-2.0382,-2.0465,-1.9122,-1.6721,-1.453,-1.3762,-1.37,0.0,0.0,0.0,0.0,0.0,0.0,0.0,0.0,0.0,0.0,0.0,0.0,0.0,0.0,0.0,0.0,0.0,0.0,0.0,0.0,0.0,0.0,0.0,0.0,0.0,0.0,0.0,0.0,0.0,0.0,0.0,0.0,0.0,-1.9128,-1.9716,-2.0856,-2.2816,-2.4346,-2.5043,-2.4524,-2.6557,-2.7486,-2.6496,-2.673,-2.6599,-2.5914,-2.6241,-2.6056,-2.513,-2.5275,-2.507,-2.4463,-2.3187,-2.2097,-2.1218,-2.0404,-1.9696,-1.9101,-1.9101,-1.9101,-1.9049,-1.806,-1.7611,-1.7437,-1.6015,-1.4766,-1.3512,-1.0781,-0.9349,-0.8802,-0.875,-0.8403,-0.79,0.0,0.0,-0.8383,-0.9064,-0.9162,-0.9019,-0.8683,-0.8653,-0.8971,-0.9751,-1.127,-1.2695,-1.3762,-1.5476,-1.6554,-1.6578,-1.5951,-1.5318,-1.476,-1.3524,-1.3378,-1.4636,-1.6724,-1.8557,-2.0072,-2.0801,-2.1547,-2.2332,-2.26,-2.273,-2.273,-2.2789,-2.2789,-2.2704,-2.2258,-2.1903,-2.1622,-2.0716,-1.9962,-1.9201,-1.7462,-1.598,-1.4633,0.0,0.0,0.0,0.0,0.0,0.0,0.0,0.0,0.0,0.0,0.0,0.0,0.0,0.0,0.0,0.0,0.0,0.0,0.0,0.0,0.0,0.0,0.0,0.0,0.0,0.0,0.0,0.0,0.0,0.0,0.0,0.0,-2.0689,-2.0119,-2.1809,-2.3328,-2.3883,-2.5458,-2.6384,-2.6104,-2.7188,-2.7634,-2.7029,-2.7066,-2.7194,-2.7395,-2.7496,-2.7652,-2.7825,-2.7361,-2.6739,-2.5932,-2.4307,-2.3012,-2.1978,-2.1013,-2.0198,-1.9545,-1.9545,-1.9398,-1.9101,-1.8817,-1.8444,-1.8013,-1.6933,-1.6077,-1.5227,-1.302,-1.1585,-1.0755,-1.0477,-0.982,-0.911,0.0,-0.9844,-0.9769,-0.9617,-0.9573,-0.9445,-0.9173,-0.9094,-0.9442,-1.0509,-1.1789,-1.3059,-1.4314,-1.5661,-1.6503,-1.6481,-1.6227,-1.5755,-1.4956,-1.4692,-1.528,-1.6863,-1.885,-2.0488,-2.1701,-2.2159,-2.2634,-2.3091,-2.3212,-2.3277,-2.3277,-2.3353,-2.3353,-2.3253,-2.2883,-2.2546,-2.2164,-2.1411,-2.0943,-2.0652,-1.9799,-1.8501,-1.6924,-1.5765,-1.5041,-1.4566,-1.3596,-1.31,-1.2899,-1.289,0.0,0.0,0.0,0.0,0.0,0.0,0.0,0.0,0.0,0.0,0.0,0.0,0.0,0.0,0.0,0.0,0.0,0.0,0.0,0.0,0.0,0.0,0.0,0.0,-2.177,-2.2649,-2.2585,-2.3568,-2.4436,-2.4807,-2.6093,-2.7049,-2.7264,-2.8042,-2.8559,-2.8619,-2.8441,-2.8468,-2.8783,-2.8567,-2.8511,-2.8707,-2.827,-2.7586,-2.6564,-2.5253,-2.3984,-2.2742,-2.1888,-2.108,-2.0379,-2.0224,-2.0015,0.0,-1.9675,-1.9369,-1.902,-1.8232,-1.7625,0.0,0.0,0.0,0.0,0.0,-1.1388,-1.0741,0.0,-1.0096,-1.0001,-1.001,-0.9799,-0.9638,-0.962,-0.9516,-0.996,-1.1399,-1.1999,-1.2934,-1.4627,-1.5242,-1.5605,-1.5901,-1.5938,-1.5714,0.0,-1.5972,-1.7117,-1.8582,-2.0153,-2.1331,-2.2048,-2.2794,-2.3188,-2.3188,-2.3417,-2.3549,-2.3576,-2.3753,-2.3732,-2.3553,-2.3531,-2.308,-2.2358,-2.2248,-2.1878,-2.1415,-2.1462,-2.0846,-1.9695,-1.8053,-1.7881,-1.8219,-1.6389,-1.5395,-1.4852,-1.4433,0.0,0.0,0.0,0.0,0.0,0.0,0.0,0.0,0.0,0.0,0.0,0.0,0.0,0.0,0.0,0.0,0.0,0.0,0.0,0.0,0.0,0.0,0.0,0.0,-2.3732,-2.4646,-2.5472,-2.4946,-2.4748,-2.5514,-2.6463,-2.7329,-2.8038,-2.8987,-2.9823,-3.0509,-3.0171,-2.992,-2.9896,0.0,0.0,0.0,0.0,-2.7896,-2.6711,-2.6057,-2.4999,-2.3498,-2.2857,-2.2148,-2.1368,-2.1071,-2.0926,-2.0877,-2.0545,-2.0273,-2.0065,-1.9588,-1.9109,-1.8369,-1.5799,-1.4505,-1.4035,-1.3591,-1.3113,-1.2681,0.0,-1.0133,-1.0052,-1.0008,-0.9957,-0.9869,-0.9694,-0.9662,-0.9958,-1.0858,-1.207,-1.3239,-1.4226,-1.5449,-1.6167,-1.6063,-1.6218,-1.6296,-1.6266,-1.7488,-1.8642,-1.9603,-2.1149,-2.238,-2.3168,-2.349,-2.3649,-2.3649,-2.371,-2.3837,-2.3981,-2.402,-2.402,-2.3961,-2.3762,-2.3522,-2.3194,-2.2493,-2.2136,-2.1994,-2.1538,-2.0936,-2.0295,-1.9757,-1.9265,-1.8789,-1.8087,-1.7436,-1.6968,-1.7135,-1.637,-1.5265,-1.4982,-1.4577,0.0,0.0,0.0,0.0,0.0,0.0,0.0,0.0,0.0,0.0,0.0,0.0,0.0,0.0,0.0,0.0,0.0,0.0,0.0,-2.3647,-2.4651,-2.5323,-2.5574,-2.5492,-2.5494,-2.5663,-2.7025,-2.8012,-2.8164,-2.9557,-3.041,-3.0362,-3.0209,-3.0056,-2.9822,-2.9664,-2.9394,-2.8975,-2.8975,-2.8451,-2.7344,-2.6939,-2.5852,-2.4117,0.0,0.0,-2.195,-2.1864,-2.1736,-2.1519,-2.118,-2.0715,-2.0139,-1.966,-1.9528,-1.9336,-1.6956,-1.5672,-1.5119,-1.5438,-1.4996,-1.4304,-1.0205,-1.0159,-1.0093,-1.0067,-1.002,-0.9963,-0.9863,-0.9825,-1.0045,-1.0754,-1.1525,-1.2279,-1.2961,-1.3707,-1.411,-1.4015,-1.4831,0.0,-1.7752,-1.886,-1.9989,-2.1209,-2.2413,-2.3286,-2.3735,-2.3837,-2.3959,-2.4098,-2.4058,-2.4116,-2.4247,-2.4247,-2.4247,-2.4247,-2.3984,-2.3801,-2.3566,-2.3063,-2.2781,-2.2599,-2.2181,-2.1866,-2.1574,-2.1055,-2.0678,-2.0393,-1.9874,-1.9276,-1.8681,-1.8541,-1.7821,-1.6909,-1.6758,-1.6336,-1.5627,0.0,0.0,0.0,0.0,0.0,0.0,0.0,0.0,0.0,0.0,0.0,0.0,0.0,0.0,-2.066,0.0,0.0,-2.3741,-2.4606,-2.5202,-2.5566,-2.5636,-2.5679,-2.585,-2.6308,-2.7062,-2.7897,-2.8777,-2.9576,-3.0172,-3.0472,-3.0381,-3.0234,-3.0099,-2.9902,-2.9662,-2.936,-2.9295,-2.8938,-2.8319,-2.7911,-2.6845,-2.5208,-2.4776,-2.3919,-2.2617,-2.2846,-2.288,-2.2745,-2.2802,-2.2613,-2.2264,-2.1629,-2.1301,-2.1061,-1.9496,-1.8376,-1.7619,-1.7572,-1.7086,-1.6554,-1.0215,-1.0167,-1.0122,-1.0113,-1.0057,-1.002,-1.0019,-0.9968,-1.0132,-1.0651,-1.0885,-1.1198,-1.1671,-1.1842,-1.204,-1.2339,-1.3678,-1.5805,-1.8868,-1.9903,-2.1056,-2.2535,-2.3346,-2.3831,-2.4001,-2.3998,-2.4115,-2.4391,-2.4321,-2.4321,-2.4442,-2.4442,-2.4459,-2.4459,-2.4247,-2.4022,-2.3764,-2.358,-2.3371,-2.314,-2.2902,-2.2825,-2.2807,-2.2164,-2.1936,-2.1886,-2.1261,-2.0464,-1.9622,-1.9144,-1.8455,-1.78,-1.8035,-1.7778,-1.7165,-1.5867,-1.569,0.0,0.0,0.0,0.0,0.0,0.0,0.0,0.0,-1.8792,-1.9248,-2.1656,-2.2163,-2.2575,-2.3945,-2.4293,-2.4601,-2.5304,-2.5657,-2.5874,-2.5949,-2.5941,-2.6263,-2.7129,-2.7181,-2.7702,-2.9085,-2.9479,-2.9938,-3.0634,-3.0519,-3.0384,-3.0378,-3.0103,-2.9845,-2.9623,-2.9514,-2.9334,-2.9086,-2.8724,-2.7755,-2.6222,-2.5815,-2.4878,-2.3531,-2.3866,-2.4086,-2.4207,-2.4419,-2.4449,-2.436,-2.3703,-2.3336,-2.3087,-2.2399,-2.17,-2.094,-1.9894,-1.9172,-1.8771,0.0,-1.0232,-1.0251,-1.0193,-1.0135,-1.0098,-1.0086,-1.008,-1.0082,-1.0104,-1.0627,-1.1024,-1.1084,-1.1627,-1.254,-1.3914,-1.48,-1.6345,-1.8854,-2.0315,-2.1514,-2.2452,-2.3217,-2.3747,-2.3983,-2.3939,-2.4037,-2.4303,-2.4228,-2.4339,-2.4564,-2.4564,-2.4613,-2.4657,-2.4459,-2.4247,-2.402,-2.3664,-2.3463,-2.3417,-2.3157,-2.3049,-2.3063,-2.3098,-2.2764,-2.2158,-2.1436,-2.0204,-1.8925,-1.891,-1.8036,-1.7082,-1.7841,-1.8283,-1.834,-1.7471,-1.755,-1.7674,-1.6707,-1.6643,-1.7384,-1.9606,-1.9242,-1.9336,0.0,-2.2977,-2.2574,-2.4466,-2.487,-2.4937,-2.5192,-2.529,-2.5374,-2.5465,-2.6198,-2.6782,-2.6844,-2.6807,-2.7088,-2.7968,-2.8058,-2.8115,-2.8242,-2.9648,-3.0571,-3.0613,-3.0482,-3.0374,-3.0306,-3.0216,-3.0022,-2.9713,-2.9624,-2.9419,-2.9086,-2.9042,-2.8209,-2.6624,-2.6475,-2.591,-2.5051,-2.4932,-2.5123,-2.5547,-2.5063,-2.4677,-2.439,-2.4282,-2.4644,-2.5157,-2.4962,-2.4974,-2.4831,-2.226,-2.0907,-2.04,0.0,-1.0254,-1.0281,-1.0206,-1.0183,-1.0147,-1.0106,-1.0098,-1.0078,-1.0006,-1.0231,-1.0419,-1.0414,-1.0621,-1.1416,-1.2993,-1.4173,-1.5837,-1.8247,-2.021,-2.1606,-2.2413,-2.331,-2.3855,-2.4059,-2.4136,-2.4319,-2.4594,-2.4561,-2.4645,-2.4832,-2.4861,-2.4894,-2.4861,-2.4572,-2.4407,-2.4247,-2.3858,-2.3667,-2.3646,-2.344,-2.3376,-2.3356,-2.2928,-2.2546,-2.2185,-2.1764,-2.0339,0.0,-1.9174,-1.8371,-1.7285,-1.7679,-1.7986,-1.8036,-1.7307,-1.8012,-1.9197,-1.9976,-1.9856,-1.9861,-2.1406,-2.1708,-2.2083,-2.3822,-2.379,-2.3765,-2.5043,-2.5331,-2.5365,-2.5387,-2.5452,-2.5499,0.0,-2.632,-2.6786,-2.6314,-2.6663,-2.691,-2.6757,-2.7186,-2.7871,-2.8817,-2.9551,-3.0139,-3.0622,-3.0599,-3.0554,-3.053,-3.0402,-3.0251,-3.0106,-2.9889,-2.9693,-2.9569,-2.8911,-2.7992,-2.6878,-2.6204,-2.5737,-2.5424,-2.5823,-2.6571,-2.7586,-2.7225,-2.6979,-2.6817,-2.6382,-2.638,-2.6632,-2.6177,-2.6084,-2.5994,-2.4186,-2.3228,-2.2799,0.0,-1.0273,-1.0288,-1.0243,-1.0232,-1.0202,-1.0147,-1.0131,-1.0094,-1.0044,-1.0034,-1.0015,-1.0,-0.9965,-1.0584,-1.2189,-1.3417,-1.5208,-1.7826,-1.9667,-2.1198,-2.2422,-2.3159,-2.3741,-2.4192,-2.4302,-2.4493,-2.4764,-2.4749,-2.4813,-2.495,-2.5031,-2.5063,-2.4996,-2.4651,-2.4472,-2.4372,-2.3961,-2.3795,-2.3795,-2.3642,-2.3498,-2.3295,-2.2733,-2.2062,-2.1368,-2.1182,-1.9896,-1.8374,-1.8654,-1.7931,-1.6971,-1.7266,-1.7435,-1.756,-1.7544,-1.8734,-2.0339,-2.1758,-2.168,-2.1483,-2.2595,-2.3341,-2.389,-2.4136,-2.4268,-2.4534,-2.5187,-2.5382,-2.5432,-2.5473,-2.5517,-2.5565,-2.5565,-2.6552,-2.7033,-2.6178,-2.6798,-2.7005,-2.6152,-2.6386,-2.7198,-2.8645,-2.8963,-2.9415,-3.029,-3.0335,-3.045,-3.0688,-3.0565,-3.0463,-3.0362,-3.0144,-2.9973,-2.9915,-2.9062,-2.8241,-2.7436,-2.6637,-2.6246,-2.6264,-2.7019,-2.7951,-2.8938,-2.8743,-2.8694,-2.87,-2.8058,-2.783,-2.784,-2.73,-2.7023,-2.6847,-2.6067,-2.5411,-2.4837,0.0,0.0,-1.0293,-1.0291,-1.0307,-1.0272,-1.0211,-1.0205,-1.0167,-1.0108,-1.0097,-1.0078,-1.002,-1.0,-1.0645,-1.2255,-1.2972,-1.4659,-1.7807,-1.8598,-2.0084,-2.2588,-2.2672,-2.3232,-2.4459,-2.4302,-2.4374,-2.4707,-2.4629,-2.4676,-2.4808,-2.494,-2.4999,-2.4996,-2.4663,-2.4452,-2.4372,-2.3961,-2.3795,-2.3795,-2.3795,-2.3365,-2.2715,-2.2772,-2.137,-1.936,-1.9158,-1.8463,-1.7521,-1.6833,-1.6102,-1.5618,-1.6472,-1.6826,-1.7261,-1.8929,-2.0193,-2.1079,-2.1202,-2.1267,-2.17,-2.3358,-2.3831,-2.4133,-2.4969,-2.5212,-2.5293,-2.539,-2.5453,-2.5535,-2.5667,-2.5695,-2.5695,-2.5695,-2.7071,-2.7881,-2.7072,-2.7643,-2.7869,-2.7051,-2.6186,-2.6,0.0,-2.7741,-2.8569,-2.9387,-2.944,-2.9816,-3.0651,-3.0688,-3.0567,-3.0306,-3.0278,-3.0155,-2.9905,-2.9805,-2.9355,-2.8544,-2.8259,-2.8109,-2.8126,-2.8765,-2.9049,-2.9104,-2.8938,-2.8962,-2.906,-2.87,-2.8669,-2.8839,-2.8619,-2.8326,-2.8057,-2.8012,-2.727,-2.6201,0.0,0.0,0.0,-1.0291,-1.0293,-1.0286,-1.0206,-1.0191,-1.0185,-1.0166,-1.0626,0.0,0.0,0.0,0.0,0.0,-1.2745,-1.4101,-1.5715,-1.796,-1.9593,-2.0416,-2.1582,-2.2608,-2.3489,-2.3663,-2.4022,-2.4629,-2.4707,-2.4768,-2.4794,-2.4985,-2.5031,-2.4996,-2.4651,-2.4472,-2.4372,-2.3961,-2.3795,-2.3759,-2.327,-2.293,-2.2589,-2.1589,-2.0403,-1.9154,0.0,-1.7024,-1.6302,-1.6463,-1.6042,-1.5533,-1.586,-1.6431,-1.7337,-1.9207,-2.042,-2.141,-2.2552,-2.2886,-2.3164,-2.4315,-2.4658,-2.4784,-2.5082,-2.5243,-2.5374,-2.5406,-2.5065,-2.4962,-2.5598,-2.5231,-2.5036,-2.5601,-2.7114,-2.792,-2.7101,-2.8196,-2.8559,-2.7155,-2.7221,0.0,0.0,0.0,0.0,-2.9357,-2.9435,-2.9775,-3.0656,-3.0691,-3.0661,-3.0574,-3.0443,-3.0287,-3.0171,-2.953,-2.9017,-2.866,-2.8577,-2.851,-2.8498,-2.9082,-2.9357,-2.9291,-2.9101,-2.906,-2.9086,-2.8971,-2.8971,-2.9034,-2.8966,-2.886,-2.8772,-2.8772,-2.8506,-2.7995,0.0,0.0,0.0,0.0,0.0,0.0,0.0,0.0,0.0,0.0,0.0,0.0,0.0,0.0,0.0,0.0,0.0,-1.3164,-1.4231,-1.6455,-1.7979,-1.8549,-1.9941,-2.1071,-2.1879,-2.2079,-2.2567,-2.3349,-2.3451,-2.3658,-2.3968,-2.4132,-2.4176,-2.4087,-2.3769,-2.3614,-2.3518,-2.314,-2.3002,-2.3008,-2.2475,-2.2152,-2.1844,-2.0805,-1.96,0.0,-1.7261,-1.6167,-1.5256,-1.5683,-1.5728,-1.566,-1.5698,-1.696,-1.8609,-1.9574,-2.0932,-2.2324,-2.3405,-2.3721,-2.3942,-2.4796,-2.5057,-2.5107,-2.5137,-2.5274,-2.5318,-2.5057,-2.4685,-2.4471,-2.4725,-2.4316,-2.4218,-2.5095,-2.6665,-2.7585,-2.7075,-2.8434,-2.899,-2.7627,-2.7964,-2.7852,0.0,0.0,0.0,-2.8956,-2.9286,-2.9803,-3.0643,-3.0709,-3.0691,-3.0661,-3.0537,-3.0443,-3.0329,-2.9706,-2.9321,-2.9205,-2.9205,-2.9144,-2.9085,-2.9471,-2.9608,-2.9531,-2.9336,-2.9275,-2.9293,-2.9169,-2.9148,-2.9191,-2.9126,-2.9086,-2.9086,-2.9086,-2.9086,-2.8956,0.0,0.0,0.0,0.0,0.0,0.0,0.0,0.0,0.0,0.0,0.0,0.0,0.0,0.0,0.0,0.0,0.0,0.0,-1.3463,-1.4285,-1.5471,-1.7113,-1.7928,-1.8813,-1.9801,-1.9764,-2.0162,-2.1042,-2.1023,-2.1513,-2.2438,-2.2505,-2.2525,-2.2495,-2.2233,-2.2073,-2.1993,-2.1661,-2.1571,-2.1623,-2.1461,-2.1024,-2.0496,-2.0346,-1.8906,-1.6973,-1.6913,-1.5918,-1.4628,-1.4652,-1.5269,-1.6033,-1.6075,-1.8354,-2.0847,-2.0133,-2.1708,-2.3689,-2.3689,-2.3771,-2.4043,-2.4803,-2.5044,-2.5118,-2.5184,-2.5272,-2.5147,-2.4438,-2.4282,-2.4023,-2.3244,0.0,-2.338,-2.4257,-2.5905,-2.7059,-2.7055,-2.8505,-2.9276,0.0,0.0,0.0,0.0,0.0,0.0,-2.8262,0.0,-2.9857,-3.0657,-3.0706,-3.0658,-3.0613,-3.0604,-3.053,-3.0413,-3.034,-3.0241,-3.0138,-3.0123,-3.0045,-2.9921,-2.9921,-2.9872,-2.9806,-2.9626,-2.9608,-2.9701,-2.9316,-2.9254,-2.9414,-2.9233,-2.9151,-2.9129,-2.9129,-2.9151,-2.9067,0.0,0.0,0.0,0.0,0.0,0.0,0.0,0.0,0.0,0.0,0.0,0.0,0.0,0.0,0.0,0.0,0.0,0.0,-1.2905,-1.4219,-1.5167,-1.5567,-1.6949,-1.8107,-1.89,-1.8963,-1.9337,-2.007,-2.0101,-2.0589,-2.1456,-2.1528,-2.1893,-2.2495,-2.227,-2.2173,-2.2129,-2.1782,-2.1313,-2.0743,-2.0007,-1.9608,-1.9417,-1.8904,-1.8316,-1.7727,-1.7115,-1.6633,-1.6206,-1.5667,-1.6472,-1.7801,-1.851,-1.9794,-2.1091,-2.1525,-2.2621,-2.3689,-2.3689,-2.4195,-2.4726,-2.4953,-2.5044,-2.5115,-2.5182,-2.4838,-2.4477,-2.4327,-2.3329,-2.2582,-2.301,-2.3108,-2.338,-2.4257,-2.6365,0.0,-2.7881,-2.9375,0.0,-2.9308,0.0,-2.965,-2.8346,-2.9406,0.0,0.0,-2.9374,-2.9861,-3.0737,-3.0739,-3.0691,-3.0689,-3.0678,-3.0618,-3.0549,-3.0423,-3.0422,-3.0462,-3.0378,-3.029,-3.0196,-3.0196,-3.0157,-3.0095,-3.0028,-3.0047,-3.0066,-2.995,-2.9858,-2.9782,-2.9877,-2.9832,-2.9698,-2.9698,-2.9765,-2.9777,0.0,0.0,0.0,0.0,0.0,0.0,0.0,0.0,0.0,0.0,0.0,0.0,0.0,0.0,0.0,0.0,0.0,0.0,0.0,-1.3912,-1.4595,-1.4551,-1.5824,-1.672,-1.71,-1.7524,-1.788,-1.8216,-1.8627,-1.9063,-1.9511,-1.9555,-1.9842,-2.0304,-2.0088,-2.0,-1.9953,-1.9693,-1.9344,0.0,0.0,-1.8669,-1.8727,-1.8675,-1.8404,-1.8035,-1.7587,-1.7628,-1.7866,-1.7536,-1.8037,-1.9008,-2.0294,-2.1358,-2.2187,-2.2679,-2.3515,-2.4257,-2.4257,-2.4617,-2.501,-2.501,-2.5038,-2.4984,-2.4725,-2.4403,-2.3863,-2.2839,-2.2197,-2.1607,-2.0984,-2.1783,-2.2679,-2.3186,0.0,0.0,-2.8095,-2.9366,-3.0189,0.0,-3.0494,0.0,-2.9432,-3.0239,-3.0593,0.0,-3.0068,-3.0272,-3.0762,-3.0751,-3.0723,-3.0706,-3.0695,-3.0691,-3.0645,-3.0565,-3.0548,-3.0595,-3.052,-3.0442,-3.034,-3.034,-3.0306,-3.0247,0.0,-3.0222,-3.0196,-3.0196,-3.0131,-3.0047,-3.015,-3.0122,-3.0041,-3.0026,-3.0085,-3.0037,0.0,0.0,0.0,0.0,0.0,0.0,0.0,0.0,0.0,0.0,0.0,0.0,0.0,0.0,0.0,0.0,0.0,0.0,0.0,0.0,0.0,-1.3994,-1.4821,-1.5269,-1.5204,-1.5937,-1.6279,-1.6147,-1.6892,-1.7297,-1.735,-1.734,-1.7397,-1.7482,-1.7317,-1.721,-1.7132,-1.699,-1.6951,-1.7038,-1.7617,-1.8023,-1.8333,0.0,0.0,-1.8262,-1.8262,-1.8529,-1.8974,-1.9604,-1.9841,-2.0139,-2.1686,-2.2846,-2.3656,-2.3656,-2.428,-2.4977,-2.4996,-2.501,-2.501,-2.501,-2.5018,-2.4841,-2.4159,-2.3882,-2.3158,-2.0943,-2.0925,-2.0653,-1.8546,-2.0068,-2.1708,-2.1919,0.0,-2.6283,-2.7959,-2.8948,-2.981,-3.07,-3.0798,-3.0802,-3.0794,-3.0794,-3.0801,-3.0807,-3.0794,-3.0808,-3.08,-3.0801,-3.0775,-3.0715,-3.0706,-3.07,-3.0704,-3.0697,-3.0668,-3.0613,-3.0613,-3.0539,-3.0433,-3.0433,-3.0413,-3.0351,-3.0351,0.0,-3.0278,-3.0278,-3.0247,-3.0234,-3.0266,-3.0253,-3.0222,-3.0101,-3.0062,-2.9947,0.0,0.0,0.0,0.0,0.0,0.0,0.0,0.0,0.0,0.0,-1.4316,-1.3986,0.0,0.0,0.0,0.0,0.0,0.0,0.0,0.0,0.0,-1.4005,-1.483,-1.5274,-1.5201,-1.5353,-1.5393,-1.5312,-1.5463,-1.5865,-1.6516,-1.6512,-1.6856,-1.7501,-1.7463,-1.7406,-1.7334,-1.7202,-1.7096,-1.7008,-1.7073,-1.7518,-1.8151,0.0,0.0,0.0,-1.9087,-1.8273,-1.764,-2.0523,-2.1869,-2.2443,-2.2856,-2.3638,-2.4423,-2.4485,-2.4655,-2.4856,-2.4964,-2.501,-2.501,-2.501,-2.5044,-2.4889,-2.4169,-2.2987,-2.174,-2.0709,-1.951,-1.8724,-1.896,-1.9935,-2.1201,-2.264,-2.4452,-2.6283,-2.7959,-2.8948,-2.9829,0.0,-3.0804,-3.0804,-3.0808,-3.0798,0.0,0.0,0.0,-3.0791,-3.0806,-3.0799,-3.0798,-3.0774,-3.0724,-3.0697,-3.0711,-3.0698,-3.069,-3.0676,-3.0676,-3.0676,-3.0642,-3.0642,-3.0642,-3.0634,-3.0634,0.0,-3.0599,-3.0599,-3.0528,-3.0384,-3.0539,-3.0511,-3.0274,-2.9569,-2.94,-2.937,0.0,0.0,0.0,0.0,0.0,0.0,0.0,-1.25,-1.3558,-1.5689,-1.6003,-1.5874,-1.5484,-1.5398,0.0,0.0,0.0,0.0,0.0,0.0,0.0,0.0,-1.5082,-1.5287,-1.5245,-1.5695,-1.5671,-1.5151,0.0,-1.5758,-1.5621,-1.5616,-1.5836,-1.6189,-1.6155,-1.6092,-1.5977,-1.5892,-1.5799,-1.5766,-1.6578,-1.7133,0.0,0.0,0.0,0.0,-1.8831,-1.8401,-1.8243,-1.9549,-2.0765,-2.2001,-2.3429,-2.4215,-2.4596,-2.4676,-2.4753,-2.4827,-2.4964,-2.501,-2.501,-2.501,-2.5018,-2.4745,-2.3602,-2.2395,-2.1081,-1.9476,-1.8533,-1.7844,-1.7321,-1.9019,-2.0636,-2.1007,-2.2913,-2.4939,-2.6654,-2.7628,-2.8641,-2.9961,-3.0526,-3.0799,-3.0799,-3.0808,-3.0793,-3.0802,0.0,-3.0798,-3.081,-3.0793,-3.0801,-3.08,-3.0728,-3.0693,-3.0693,-3.07,-3.0724,-3.0759,-3.0759,-3.0754,-3.075,-3.075,-3.075,-3.075,-3.075,0.0,-3.0703,-3.0703,-3.0639,-3.0563,-3.0661,-3.0354,-2.9821,-2.9416,-2.9035,-2.8574,0.0,0.0,0.0,0.0,0.0,0.0,0.0,-1.3429,-1.4654,-1.6532,-1.737,-1.7573,-1.7011,-1.6172,-1.5563,0.0,0.0,0.0,0.0,0.0,0.0,0.0,0.0,-1.5306,-1.5306,0.0,0.0,-1.5485,-1.5981,0.0,0.0,0.0,0.0,0.0,-1.4936,-1.4831,-1.4709,-1.4656,-1.467,0.0,0.0,0.0,0.0,0.0,0.0,0.0,0.0,-1.8379,-1.8675,-1.8347,-1.8937,-2.0265,-2.2685,-2.3826,-2.4318,-2.4414,-2.4603,-2.4813,-2.4964,-2.501,-2.501,-2.501,-2.4858,-2.4379,-2.3016,-2.1795,-2.0357,-1.8313,-1.7654,-1.7082,-1.5896,-1.8022,-1.9857,-1.9526,-2.1357,-2.3497,-2.5426,-2.6244,-2.7355,-2.926,-3.0098,0.0,-3.0779,-3.0799,0.0,0.0,0.0,0.0,-3.0798,-3.0801,-3.0792,-3.0792,-3.0742,-3.0721,-3.0721,-3.072,-3.0736,-3.0772,-3.0772,-3.0771,-3.0767,-3.0609,-3.0528,-3.0509,-3.0311,0.0,0.0,-3.0447,-3.0546,-3.0703,-3.0528,-3.0016,-2.9374,-2.9006,-2.8424,-2.7718,0.0,0.0,0.0,0.0,0.0,0.0,0.0,-1.3387,-1.4819,-1.7344,-1.7758,-1.781,-1.78,-1.7014,-1.6183,0.0,0.0,0.0,0.0,0.0,0.0,0.0,0.0,0.0,0.0,0.0,0.0,-1.6386,-1.5664,0.0,0.0,0.0,0.0,0.0,0.0,-1.4865,-1.4794,-1.4716,0.0,0.0,0.0,0.0,0.0,0.0,0.0,0.0,0.0,-1.7767,-1.7314,-1.8046,-1.7905,-1.7733,-1.949,-2.1566,-2.3363,-2.3555,-2.4125,-2.4753,-2.495,-2.501,-2.501,-2.501,-2.439,-2.3625,-2.2861,-2.0849,-1.8895,-1.8072,-1.6681,-1.5827,-1.6461,-1.7474,-1.8704,-2.0149,-2.126,-2.2796,-2.5348,-2.5757,-2.6732,-2.9201,0.0,0.0,-3.0721,-3.0799,0.0,0.0,0.0,0.0,-3.0798,-3.0801,-3.0804,-3.0804,-3.079,-3.0798,-3.0798,-3.0722,-3.0698,-3.0718,-3.0718,-3.0718,-3.0679,-2.9951,-2.9615,-2.9576,-2.8786,0.0,0.0,-2.9608,-3.0079,-3.0706,-2.9921,-2.9569,-2.9296,-2.7708,-2.7085,-2.6898,0.0,0.0,0.0,0.0,0.0,0.0,-1.3034,-1.321,-1.439,-1.7984,-1.8042,-1.7953,-1.8504,-1.7815,-1.6794,0.0,0.0,0.0,0.0,0.0,0.0,0.0,0.0,0.0,0.0,0.0,0.0,-1.6507,-1.6676,0.0,0.0,0.0,0.0,0.0,0.0,0.0,-1.4794,0.0,0.0,0.0,0.0,0.0,0.0,0.0,0.0,0.0,0.0,0.0,-1.6977,-1.6836,-1.6614,-1.6483,-1.7151,-1.8692,-2.0577,-2.2181,-2.327,-2.4118,-2.4728,-2.495,-2.501,-2.501,-2.4372,-2.3572,-2.2871,-2.0751,-1.8911,-1.8678,-1.7311,-1.6447,-1.7265,-1.8134,-1.8938,-1.9603,-2.0441,-2.1552,-2.3127,-2.4257,-2.5679,-2.7686,-2.8851,0.0,0.0,0.0,-3.0799,0.0,0.0,0.0,-3.0057,-3.0505,-3.0798,-3.0798,-3.0794,-3.0801,-3.0801,-3.025,-2.9984,-2.9966,-2.9441,-2.9228,-2.9231,-2.8921,-2.8722,-2.8635,-2.8373,0.0,0.0,-2.8648,-2.8806,-2.9022,-2.8769,-2.8339,-2.7792,-2.7142,-2.6566,-2.6066,0.0,0.0,0.0,0.0,0.0,-1.0742,-1.2738,-1.3009,-1.4149,-1.7363,-1.7708,-1.7903,-1.8542,-1.7908,-1.6962,-1.5821,0.0,0.0,0.0,0.0,0.0,0.0,0.0,0.0,0.0,0.0,0.0,-1.6874,-1.7509,-1.7857,0.0,0.0,-1.6655,0.0,0.0,0.0,0.0,0.0,0.0,0.0,0.0,0.0,0.0,0.0,0.0,0.0,0.0,0.0,0.0,0.0,0.0,-1.5555,-1.5555,-1.6507,-1.8124,-2.0639,-2.2191,-2.3281,-2.4195,-2.47,-2.495,-2.4996,-2.4227,-2.3301,-2.2814,-2.0576,-1.8712,-1.9035,-1.7799,-1.6914,-1.775,-1.8601,-1.9195,-1.9195,-1.9938,-2.0892,-2.2002,-2.3233,-2.4736,-2.6665,0.0,-2.9143,0.0,-3.0586,0.0,0.0,0.0,0.0,-2.9102,-2.9647,-2.9994,-3.002,-3.0273,-3.0292,-3.002,-2.9416,-2.9113,-2.9102,-2.8497,-2.8228,-2.8255,-2.7979,-2.7803,-2.7717,-2.7554,0.0,0.0,-2.7694,-2.78,-2.7913,-2.7741,-2.7318,-2.6732,-2.6534,-2.6073,-2.5566,0.0,0.0,0.0,0.0,0.0,0.0,-1.1104,-1.2731,-1.4188,-1.5037,-1.6582,-1.7635,-1.7704,-1.6996,-1.6512,-1.6484,0.0,0.0,0.0,0.0,0.0,0.0,0.0,0.0,0.0,0.0,0.0,-1.7794,-1.779,-1.8165,-1.886,-1.806,-1.724,0.0,0.0,0.0,0.0,0.0,0.0,0.0,0.0,0.0,0.0,0.0,0.0,0.0,0.0,0.0,0.0,0.0,0.0,0.0,0.0,-1.5324,-1.6511,-1.8995,-2.0853,-2.2327,-2.3347,-2.4186,-2.4842,-2.4964,-2.379,-2.2634,-2.268,-2.0107,-1.7973,-1.8919,-1.7772,-1.6865,-1.7737,-1.8619,-1.9202,-1.9202,-1.9929,-2.108,-2.2751,-2.3062,-2.4053,0.0,0.0,-2.7505,-2.9253,-3.007,0.0,0.0,0.0,0.0,-2.8062,-2.8023,-2.8092,-2.8227,-2.9065,-2.9104,-2.8251,-2.8212,-2.8212,-2.8212,-2.8193,-2.8193,-2.8169,-2.7245,-2.6821,0.0,0.0,0.0,0.0,-2.6779,-2.7272,-2.7908,-2.7055,-2.6706,-2.6609,-2.5725,-2.5445,-2.5495,0.0,0.0,0.0,0.0,0.0,0.0,0.0,-1.1228,-1.2224,-1.4762,-1.5049,-1.5661,-1.7428,-1.6912,-1.6445,-1.6499,0.0,0.0,0.0,0.0,0.0,0.0,0.0,0.0,0.0,0.0,0.0,-1.7796,-1.8996,-1.9658,-1.9771,-1.8926,-1.8083,-1.7252,-1.6459,0.0,0.0,0.0,0.0,0.0,0.0,0.0,0.0,0.0,0.0,0.0,0.0,0.0,0.0,0.0,0.0,0.0,0.0,0.0,0.0,-1.6709,-1.8793,-2.085,-2.1725,-2.2185,-2.2284,-2.1782,-2.1311,-2.0813,-2.0299,-1.8915,-1.8018,-1.8916,-1.8192,-1.7873,-1.9333,-1.9876,-2.0279,-2.0818,-2.1103,-2.1661,-2.2759,-2.3385,0.0,-2.565,-2.7318,-2.8586,0.0,0.0,0.0,0.0,0.0,0.0,-2.7091,-2.7612,-2.7965,-2.8054,-2.8332,-2.8352,-2.8073,-2.7472,-2.7161,-2.7161,-2.6579,-2.6281,-2.6281,-2.5977,-2.5824,0.0,0.0,0.0,0.0,-2.5753,-2.5889,-2.6062,-2.5832,-2.5744,-2.5715,-2.5484,-2.5415,-2.5426,0.0,0.0,0.0,0.0,0.0,0.0,0.0,-1.0575,-1.1299,-1.3399,-1.3736,-1.4526,-1.6456,-1.6232,-1.6106,-1.6476,0.0,0.0,0.0,0.0,0.0,0.0,0.0,0.0,0.0,0.0,-1.7602,-1.7794,-1.922,-2.0019,-2.0188,-1.9679,-1.8789,-1.7623,-1.6904,0.0,0.0,0.0,0.0,0.0,0.0,0.0,0.0,0.0,0.0,0.0,0.0,0.0,0.0,0.0,0.0,0.0,0.0,0.0,0.0,0.0,-1.7204,-1.8802,-1.9885,-2.0497,-2.0665,-2.0164,-1.9869,-1.9586,-1.9081,-1.8093,-1.7523,-1.8384,-1.7883,-1.7702,-1.9116,-1.9424,-1.9713,-2.052,-2.0618,-2.1104,0.0,0.0,0.0,-2.512,0.0,0.0,0.0,0.0,0.0,0.0,0.0,0.0,-2.6071,-2.6542,-2.6851,-2.6901,-2.7275,-2.7337,-2.7028,-2.6478,-2.6218,-2.6199,-2.5622,-2.5371,-2.5371,-2.5329,-2.5303,0.0,0.0,0.0,0.0,-2.516,-2.5096,-2.4993,-2.5099,-2.5126,-2.5126,-2.5235,-2.5311,-2.5335,0.0,0.0,0.0,0.0,0.0,0.0,0.0,-1.059,-1.1228,-1.1285,-1.2706,-1.4042,-1.4901,-1.5121,-1.5516,-1.6341,0.0,0.0,0.0,0.0,0.0,0.0,0.0,0.0,0.0,-1.6309,-1.7121,-1.7791,-1.8731,-1.9529,-2.0192,-2.0265,-1.9339,-1.7608,-1.7452,0.0,0.0,0.0,0.0,0.0,0.0,0.0,0.0,0.0,0.0,0.0,0.0,0.0,0.0,0.0,0.0,0.0,0.0,0.0,0.0,0.0,0.0,0.0,0.0,-1.8957,-1.9682,-1.9576,-1.9126,-1.8701,-1.8644,-1.747,0.0,-1.743,-1.6963,-1.6694,-1.7699,-1.7833,-1.8083,-1.9016,-1.9161,0.0,0.0,-2.2824,0.0,0.0,-2.5899,0.0,0.0,0.0,0.0,0.0,0.0,0.0,-2.5082,-2.5057,-2.5076,-2.5063,-2.5964,-2.6118,-2.539,-2.5385,-2.5376,-2.5376,-2.532,-2.5292,-2.5283,-2.5224,-2.5201,0.0,0.0,0.0,0.0,-2.4974,-2.4839,-2.4623,-2.4794,-2.4837,-2.4804,-2.4987,-2.5122,-2.5184,0.0,0.0,0.0,0.0,0.0,0.0,0.0,0.0,0.0,0.0,-1.2155,-1.3144,-1.4015,-1.4705,-1.5236,0.0,0.0,0.0,0.0,0.0,0.0,0.0,0.0,0.0,0.0,-1.6901,-1.7733,-1.7796,-1.9347,-2.0133,-2.0192,-2.0211,-1.9316,-1.7668,-1.7481,0.0,0.0,0.0,0.0,0.0,0.0,0.0,0.0,0.0,0.0,0.0,-1.5056,-1.4951,0.0,0.0,0.0,0.0,0.0,0.0,0.0,0.0,-1.5085,-1.5198,-1.55,0.0,-1.6886,-1.6297,-1.6504,-1.669,0.0,-1.6166,-1.6395,-1.6649,-1.6493,-1.6996,-1.9211,-1.9073,-1.9323,-2.1463,-2.1761,-2.2159,-2.3362,0.0,0.0,-2.5,-2.576,0.0,0.0,0.0,0.0,0.0,0.0,-2.4926,-2.4575,-2.4704,-2.4753,-2.4642,-2.4866,-2.5059,-2.5172,-2.5172,-2.516,-2.516,-2.516,-2.5149,-2.5149,-2.5125,-2.5132,0.0,0.0,0.0,-2.4818,-2.4842,-2.4723,-2.4522,-2.4588,-2.457,-2.457,-2.4617,-2.4737,-2.4896,0.0,0.0,0.0,0.0,0.0,0.0,0.0,0.0,0.0,0.0,0.0,0.0,0.0,0.0,0.0,0.0,0.0,0.0,0.0,0.0,0.0,0.0,0.0,0.0,0.0,-1.6699,-1.7504,-1.7806,-1.9153,-1.9935,-2.0192,-2.0238,-1.9538,-1.821,-1.7245,0.0,0.0,0.0,0.0,0.0,0.0,0.0,0.0,0.0,0.0,0.0,-1.4405,-1.4411,0.0,-1.4474,-1.4549,-1.4592,0.0,0.0,0.0,0.0,-1.4734,-1.4755,-1.4703,-1.5413,-1.6035,-1.5572,-1.5818,-1.6044,-1.5651,-1.5597,-1.5617,-1.5665,-1.5649,-1.6164,-1.7937,-1.7889,-1.8393,-2.0912,-2.1347,0.0,0.0,0.0,-2.501,-2.501,-2.5389,0.0,0.0,0.0,0.0,0.0,0.0,-2.451,-2.4407,-2.451,-2.4526,-2.4459,-2.4459,-2.4575,-2.4823,-2.4808,-2.4827,-2.4827,-2.4779,-2.4779,-2.4779,-2.4779,-2.4779,0.0,0.0,0.0,-2.4543,-2.4559,-2.4424,-2.4229,-2.4337,-2.4336,-2.4318,-2.4458,-2.4575,-2.467,0.0,0.0,0.0,0.0,0.0,0.0,0.0,0.0,0.0,0.0,0.0,0.0,0.0,0.0,0.0,0.0,0.0,0.0,0.0,0.0,0.0,0.0,0.0,0.0,-1.5574,-1.6371,-1.7193,-1.8009,-1.8863,-1.9599,-2.0192,-2.0257,-1.9707,-1.8589,-1.6857,0.0,0.0,0.0,0.0,0.0,0.0,0.0,0.0,0.0,0.0,0.0,0.0,0.0,0.0,-1.4428,-1.4515,-1.4589,-1.4592,0.0,0.0,0.0,0.0,0.0,-1.485,-1.5581,-1.6253,-1.5892,-1.6034,-1.6223,-1.6101,-1.5602,-1.5122,-1.5001,-1.5085,-1.5423,-1.624,-1.6474,-1.7337,0.0,0.0,0.0,-2.3536,-2.4496,-2.495,-2.495,-2.495,0.0,0.0,0.0,0.0,0.0,0.0,-2.4319,-2.4284,-2.4319,-2.4319,-2.4284,-2.4284,-2.4319,-2.4388,-2.4459,-2.4476,-2.4476,-2.4442,-2.4389,-2.4389,-2.4389,-2.4389,-2.4407,0.0,0.0,-2.4192,-2.4247,-2.4115,-2.3896,-2.4058,-2.4097,-2.4079,-2.432,-2.4408,-2.4442,0.0,0.0,0.0,0.0,0.0,0.0,0.0,0.0,0.0,0.0,0.0,0.0,0.0,0.0,0.0,0.0,0.0,0.0,0.0,0.0,0.0,0.0,0.0,-1.5726,-1.6403,-1.726,-1.81,-1.889,-1.9722,-2.0146,-2.0192,-2.0211,-1.9284,-1.7576,-1.6453,-1.5403,0.0,0.0,0.0,0.0,0.0,0.0,0.0,0.0,0.0,0.0,0.0,0.0,0.0,-1.4331,-1.4411,-1.4515,-1.4526,0.0,0.0,0.0,0.0,0.0,-1.5514,-1.6335,-1.6618,-1.5235,-1.5923,-1.6772,-1.6167,-1.6447,-1.6634,-1.5957,-1.6399,-1.7149,-1.7967,-1.8657,-1.9726,0.0,0.0,-2.3333,0.0,0.0,-2.4738,-2.4738,0.0,0.0,0.0,0.0,0.0,0.0,0.0,-2.3978,-2.3831,-2.3958,-2.3978,-2.381,-2.381,-2.381,-2.3813,-2.4211,-2.4425,-2.4425,-2.4407,-2.4389,-2.4389,-2.4389,-2.4389,-2.4389,0.0,-2.4301,-2.4116,-2.4135,-2.3999,-2.3816,-2.3858,-2.3858,-2.3858,-2.3899,-2.4019,-2.4192,0.0,0.0,0.0,0.0,0.0,0.0,0.0,0.0,0.0,0.0,0.0,0.0,0.0,0.0,0.0,0.0,0.0,0.0,0.0,0.0,0.0,0.0,-1.6073,-1.6215,-1.6589,-1.7877,-1.8707,-1.9059,-1.9843,-2.0223,-2.0188,-1.9638,-1.864,-1.7243,-1.6313,-1.5373,-1.4488,0.0,0.0,0.0,0.0,0.0,0.0,0.0,0.0,0.0,0.0,0.0,0.0,0.0,-1.4281,-1.4387,-1.4392,0.0,0.0,0.0,0.0,0.0,-1.5103,-1.5788,-1.6189,-1.5349,-1.6442,-1.7744,-1.7765,-1.7742,-1.7712,-1.7775,-1.8091,-1.8642,-1.949,-1.994,-2.0719,-2.2317,0.0,-2.3964,-2.4366,-2.4422,-2.4422,0.0,0.0,0.0,0.0,0.0,0.0,0.0,0.0,0.0,-2.37,-2.3786,-2.3807,-2.37,-2.37,-2.37,-2.37,-2.3756,-2.3881,-2.4019,-2.4019,-2.4019,-2.4019,-2.4019,-2.4019,-2.4019,0.0,-2.3959,-2.3876,-2.3876,-2.3732,-2.3535,-2.3535,-2.3427,-2.3277,-2.3459,-2.3671,-2.3917,0.0,0.0,0.0,0.0,0.0,0.0,0.0,0.0,0.0,0.0,0.0,0.0,0.0,0.0,0.0,0.0,0.0,0.0,0.0,0.0,-1.5695,-1.6377,-1.6724,-1.6995,-1.718,-1.8425,-1.9134,-1.9223,-1.9873,-2.0188,-2.0136,-1.9085,-1.8087,-1.7142,-1.6258,-1.5351,-1.4488,-1.4488,-1.4476,0.0,0.0,0.0,0.0,0.0,0.0,0.0,0.0,0.0,0.0,0.0,0.0,0.0,0.0,0.0,0.0,-1.4504,-1.4556,-1.4615,-1.4829,-1.5328,-1.5809,-1.5809,-1.689,-1.8167,-1.8979,-1.8708,-1.852,-1.9271,-1.9581,-1.989,-2.038,-2.0834,0.0,-2.2923,-2.3675,-2.4079,-2.4155,-2.4155,0.0,0.0,0.0,0.0,0.0,0.0,0.0,0.0,0.0,0.0,-2.3656,-2.3656,-2.3656,-2.3656,-2.3656,-2.3656,-2.3656,-2.3458,-2.3435,-2.3611,-2.3531,-2.3486,-2.3486,-2.3486,-2.3486,-2.3486,-2.3486,-2.3486,-2.3486,-2.3486,-2.3353,-2.317,-2.317,-2.3032,-2.2822,-2.3093,-2.3359,-2.3616,0.0,0.0,0.0,0.0,0.0,0.0,0.0,0.0,0.0,0.0,0.0,0.0,0.0,0.0,0.0,0.0,0.0,0.0,0.0,0.0,-1.5421,-1.5499,-1.6982,-1.8157,-1.8895,-1.8979,-1.9319,-1.9936,-2.0114,-2.0135,-1.999,-1.8857,-1.7888,-1.7064,-1.6128,-1.5264,-1.4488,-1.4488,-1.4429,0.0,0.0,0.0,0.0,0.0,0.0,0.0,0.0,0.0,0.0,0.0,0.0,0.0,0.0,0.0,-1.4319,-1.4319,-1.4399,-1.4681,-1.5489,-1.5753,-1.5956,-1.6552,-1.6821,-1.7249,-1.8536,-1.8842,-1.9039,-1.972,-2.0437,-2.08,-2.0228,-2.1515,-2.292,-2.3797,-2.3979,-2.4016,-2.3998,0.0,0.0,0.0,0.0,0.0,0.0,0.0,0.0,0.0,0.0,0.0,-2.3499,-2.3499,-2.3499,-2.3499,-2.3499,-2.3499,-2.3499,-2.3494,-2.343,-2.3324,-2.3014,-2.2873,-2.2873,-2.2873,-2.2873,-2.2873,-2.2873,-2.2873,-2.2873,-2.2873,-2.2848,-2.2848,-2.2848,-2.2822,-2.2797,-2.2822,-2.3056,-2.3301,0.0,0.0,0.0,0.0,0.0,0.0,0.0,0.0,0.0,0.0,0.0,0.0,0.0,0.0,0.0,0.0,0.0,0.0,0.0,0.0,-1.5632,-1.6189,-1.6781,-1.7431,-1.8158,-1.9193,-1.9873,-2.0115,-2.005,-1.995,-1.9778,-1.826,-1.7349,-1.6927,-1.557,-1.4781,-1.4494,-1.4506,-1.4405,-1.425,0.0,0.0,0.0,0.0,0.0,0.0,0.0,0.0,0.0,0.0,-1.3057,-1.3231,-1.3227,-1.3659,-1.4087,-1.3579,-1.3534,-1.3671,-1.3932,-1.4398,-1.4953,-1.5535,-1.6027,-1.69,-1.8947,-1.982,-2.0555,-2.1761,-2.2242,-2.2389,-2.2146,0.0,-2.3079,-2.3387,-2.344,-2.344,0.0,0.0,0.0,0.0,0.0,0.0,0.0,0.0,0.0,0.0,0.0,0.0,-2.306,-2.2968,-2.2883,-2.2883,-2.2943,-2.301,-2.301,-2.2747,-2.2599,-2.2546,-2.2849,-2.2917,-2.2747,-2.2747,-2.2747,-2.2747,-2.2747,-2.2747,-2.2747,-2.2747,-2.2625,-2.2422,-2.2248,-2.2275,-2.2422,-2.2459,-2.2678,-2.2917,0.0,0.0,0.0,0.0,0.0,0.0,0.0,0.0,0.0,0.0,0.0,0.0,0.0,0.0,0.0,0.0,0.0,0.0,0.0,0.0,-1.5369,-1.6252,-1.6479,-1.6774,-1.7215,-1.862,-1.932,-1.9277,-1.9101,-1.8967,-1.8846,-1.7622,-1.6995,-1.684,-1.5478,-1.4879,-1.4837,-1.4538,-1.4313,-1.4154,-1.4109,0.0,0.0,0.0,0.0,0.0,0.0,0.0,0.0,0.0,-1.2134,-1.2313,-1.2536,-1.3088,-1.3533,-1.2966,-1.3221,-1.3625,-1.3311,-1.3824,-1.4581,-1.5119,-1.5801,-1.686,-1.8969,-1.9926,-2.0868,-2.2531,-2.2923,-2.2947,-2.2947,-2.2908,0.0,0.0,-2.2884,0.0,0.0,0.0,0.0,0.0,0.0,0.0,0.0,0.0,0.0,0.0,0.0,0.0,0.0,-2.2529,-2.2476,-2.2476,-2.2546,-2.2607,-2.2607,-2.233,-2.2136,-2.2068,-2.2527,-2.2607,-2.2364,-2.2392,-2.2392,-2.2364,-2.2364,-2.2364,-2.2337,-2.2337,-2.2153,-2.182,-2.1764,-2.1794,-2.1832,-2.189,-2.2108,-2.233,0.0,0.0,0.0,0.0,0.0,0.0,0.0,0.0,0.0,0.0,0.0,0.0,0.0,0.0,0.0,0.0,0.0,0.0,0.0,-1.4098,-1.4474,-1.5351,-1.6094,-1.6441,-1.6388,-1.7098,-1.7416,-1.7296,-1.7179,-1.7108,-1.7101,-1.697,-1.6895,-1.6849,-1.6039,-1.566,-1.5543,-1.4596,-1.4172,-1.4082,-1.4023,-1.3853,0.0,0.0,0.0,0.0,0.0,0.0,0.0,0.0,-1.1284,-1.1421,-1.2158,-1.248,-1.2589,-1.2589,-1.371,-1.4806,-1.4076,-1.4415,-1.513,-1.5658,-1.6319,-1.7156,-1.8423,-1.8872,-1.9595,-2.1603,-2.2096,-2.2192,-2.2192,-2.233,0.0,-2.2395,-2.2395,0.0,0.0,0.0,0.0,0.0,0.0,0.0,0.0,0.0,0.0,0.0,0.0,0.0,0.0,-2.2395,-2.2395,-2.2395,-2.2395,-2.2395,-2.2395,-2.2395,-2.2275,-2.1982,-2.1982,-2.1899,-2.1694,-2.1768,-2.1768,-2.1694,-2.1694,-2.1664,-2.1589,-2.1589,-2.1371,-2.1039,-2.1509,-2.1401,-2.1007,-2.1007,-2.1244,-2.1521,0.0,0.0,0.0,0.0,0.0,0.0,0.0,0.0,0.0,0.0,0.0,0.0,0.0,0.0,0.0,0.0,0.0,0.0,0.0,-1.3529,-1.352,-1.4317,-1.455,-1.4833,-1.5204,-1.5424,-1.6098,-1.7296,-1.7259,-1.7191,-1.7101,-1.6962,-1.6588,-1.6039,-1.5757,-1.5293,-1.4727,-1.4353,-1.4132,-1.4012,-1.3848,-1.3652,0.0,0.0,0.0,0.0,0.0,0.0,0.0,0.0,0.0,0.0,-1.1322,-1.1964,-1.235,-1.1782,-1.2387,-1.3066,-1.2231,-1.3265,-1.4724,-1.5244,-1.6598,-1.8103,-1.9321,-1.9871,-2.0467,-2.162,-2.1969,-2.2068,-2.2068,-2.2096,0.0,-2.2124,0.0,0.0,0.0,0.0,0.0,0.0,0.0,0.0,0.0,0.0,0.0,0.0,0.0,0.0,0.0,-2.1777,-2.1688,-2.1688,-2.1794,-2.184,-2.184,-2.1718,-2.1675,-2.1601,-2.1339,-2.1386,-2.165,-2.1634,-2.1634,-2.165,-2.165,-2.162,-2.1589,-2.1293,-2.1103,-2.1007,-2.0878,-2.078,-2.0648,-2.0648,-2.0731,-2.0797,0.0,0.0,0.0,0.0,0.0,0.0,0.0,0.0,0.0,0.0,0.0,0.0,0.0,0.0,0.0,0.0,0.0,0.0,0.0,0.0,-1.3071,-1.3859,-1.4155,-1.4444,-1.4766,-1.4736,-1.521,-1.6284,-1.6271,-1.6206,-1.609,-1.6628,-1.6598,-1.6096,-1.6069,-1.5755,-1.5175,-1.441,-1.3991,-1.3865,-1.3652,-1.3509,-1.3362,0.0,0.0,0.0,0.0,0.0,0.0,0.0,0.0,0.0,-1.0484,-1.106,-1.1386,-1.1133,-1.1855,-1.265,-1.2322,-1.3388,-1.4854,-1.5958,-1.714,-1.843,-1.9876,-2.0445,-2.0819,-2.1289,-2.1462,-2.1507,-2.1507,-2.1507,0.0,0.0,0.0,0.0,0.0,0.0,0.0,0.0,0.0,0.0,0.0,0.0,0.0,0.0,0.0,0.0,0.0,-2.1433,-2.134,-2.1277,-2.1419,-2.1466,-2.1388,-2.1371,-2.1261,-2.1087,-2.0893,-2.0828,-2.091,-2.1087,-2.1135,-2.1087,-2.1071,-2.1039,-2.1039,-2.0797,-2.0632,-2.0481,-2.0431,-2.0311,-2.0174,-2.0174,-2.0208,-2.0193,0.0,0.0,0.0,0.0,0.0,0.0,0.0,0.0,0.0,0.0,0.0,0.0,0.0,0.0,0.0,0.0,0.0,0.0,0.0,0.0,-1.2862,-1.3717,-1.4463,-1.4865,-1.485,-1.4747,-1.4685,-1.4691,-1.4701,-1.4637,-1.4538,-1.6062,-1.668,-1.6486,-1.6613,-1.6486,-1.6082,-1.4473,-1.3693,-1.3489,-1.3288,-1.3225,-1.314,-1.2463,0.0,0.0,0.0,0.0,0.0,0.0,0.0,0.0,-0.9777,-1.0001,-1.011,-1.0584,-1.1794,-1.3097,-1.3511,-1.4277,-1.5411,-1.729,-1.7892,-1.8471,-2.0106,-2.0628,-2.0761,-2.0761,-2.0794,-2.0794,-2.0794,-2.0794,-2.0794,0.0,0.0,0.0,0.0,0.0,0.0,0.0,0.0,0.0,0.0,0.0,0.0,0.0,0.0,0.0,0.0,-2.1214,-2.1151,-2.099,-2.1119,-2.1103,-2.099,-2.1119,-2.0974,-2.0548,-2.053,-2.0261,-1.9864,-2.0261,-2.0398,-2.028,-2.0243,-2.0174,-2.0174,-2.0227,-1.9984,-1.9711,-2.0019,-1.9949,-1.9603,-1.9566,-1.9624,-1.9681,0.0,0.0,0.0,0.0,0.0,0.0,0.0,0.0,0.0,0.0,0.0,0.0,0.0,0.0,0.0,0.0,0.0,0.0,0.0,0.0,-1.1891,-1.2617,-1.3943,-1.4645,-1.4592,-1.4567,-1.4545,-1.4533,-1.464,-1.4637,-1.4519,-1.5452,-1.5522,-1.4925,-1.54,-1.4926,-1.3723,-1.3129,-1.2556,-1.2038,-1.1955,-1.1861,-1.1744,-1.1576,-1.0974,0.0,0.0,0.0,0.0,0.0,0.0,0.0,-0.9777,-1.0001,-1.0022,-1.0135,-1.1156,-1.224,-1.2302,-1.3822,-1.5731,-1.72,-1.8686,-1.9865,-2.0265,-2.0373,-2.0441,-2.0527,-2.0695,-2.0794,-2.0794,-2.0794,0.0,0.0,0.0,0.0,0.0,0.0,0.0,0.0,0.0,0.0,0.0,0.0,0.0,0.0,0.0,0.0,-2.0613,-2.0613,-2.0462,-2.0193,-2.0177,-2.0177,-2.0143,-2.0177,-2.0143,0.0,-1.9773,-1.9609,-1.9536,-1.998,-2.0189,-2.0243,-2.0154,-2.0135,-2.01,-1.9752,-1.9536,-1.9442,-1.9207,-1.9072,-1.8959,-1.8588,-1.8703,-1.8959,0.0,0.0,0.0,0.0,0.0,0.0,0.0,0.0,0.0,0.0,0.0,0.0,0.0,0.0,0.0,0.0,0.0,0.0,0.0,0.0,-1.1652,-1.2697,-1.3834,-1.4256,0.0,0.0,0.0,-1.3821,-1.3878,-1.4091,-1.4465,-1.5501,-1.5757,-1.5354,-1.5223,-1.4672,-1.3782,-1.2587,-1.1833,-1.1446,-1.1412,-1.136,-1.1256,-1.0843,-1.0403,-0.995,-0.9607,0.0,0.0,0.0,0.0,0.0,0.0,0.0,-0.9528,-0.9794,-1.0524,-1.1417,-1.1976,-1.3494,-1.5355,-1.7293,-1.9009,-2.0185,-2.0185,-2.0185,-2.022,-2.0373,-2.0494,-2.0561,-2.0561,-2.0561,0.0,0.0,0.0,0.0,0.0,0.0,0.0,0.0,0.0,0.0,0.0,0.0,0.0,0.0,0.0,-2.0579,-2.041,-2.041,-2.0224,-1.9823,-1.9879,-1.9864,-1.9758,-1.9864,-1.9793,-1.9543,-1.9391,-1.9221,-1.9064,-1.9332,-1.9515,-1.9536,-1.9479,-1.9479,-1.9442,-1.8968,-1.8779,-1.8741,-1.8316,-1.8291,-1.8408,-1.7987,-1.8066,-1.8394,0.0,0.0,0.0,0.0,0.0,0.0,0.0,0.0,0.0,0.0,0.0,0.0,0.0,0.0,0.0,0.0,0.0,0.0,0.0,-1.1055,-1.1638,-1.2942,0.0,0.0,0.0,0.0,0.0,-1.3076,-1.286,-1.3371,-1.4536,-1.564,-1.6171,-1.6121,-1.5303,-1.4682,-1.4117,-1.227,-1.1272,-1.0933,-1.0963,-1.0951,-1.0844,-1.011,-0.9823,-0.9743,-0.9111,-0.8891,-0.8891,-0.8891,0.0,0.0,0.0,0.0,-0.8987,-0.9434,-0.9935,-1.0575,-1.1734,-1.3177,-1.4939,-1.7456,-1.8949,-1.9858,-1.9929,-1.9925,-1.9874,-1.9995,-2.015,-2.0235,-2.015,0.0,0.0,0.0,0.0,0.0,0.0,0.0,0.0,0.0,0.0,0.0,0.0,0.0,0.0,0.0,0.0,-2.0273,-2.0154,-2.0154,-1.9945,-1.9508,-1.9609,-1.9594,-1.9413,-1.9594,-1.9449,-1.9072,-1.902,-1.886,-1.8503,-1.8553,-1.8669,-1.8784,-1.8616,-1.8577,-1.8616,-1.8159,-1.7947,-1.7907,-1.7598,-1.7639,-1.7907,-1.7463,-1.7585,-1.7867,0.0,0.0,0.0,0.0,0.0,0.0,0.0,0.0,0.0,0.0,0.0,-1.3047,-1.2983,-1.1524,0.0,0.0,0.0,0.0,-1.0099,0.0,0.0,-1.2119,0.0,0.0,0.0,0.0,0.0,-1.2931,-1.2222,-1.2908,-1.4912,-1.5092,-1.5199,-1.5167,-1.4864,-1.3702,-1.1912,-1.1624,-1.072,-0.9484,-0.961,-0.955,-0.9392,-0.9267,-0.915,-0.9027,-0.8925,-0.8891,-0.8891,-0.8891,-0.8891,0.0,0.0,0.0,-0.8925,-0.8987,-0.9297,-0.9775,-1.0478,-1.2731,-1.54,-1.7502,-1.832,-1.8782,-1.9345,-1.9169,-1.8878,0.0,-1.9573,-2.003,0.0,0.0,0.0,0.0,0.0,0.0,0.0,0.0,0.0,0.0,0.0,0.0,0.0,0.0,0.0,0.0,-1.956,-1.9435,-1.9124,-1.9124,-1.8988,-1.8659,-1.8697,-1.8644,-1.8659,-1.8644,-1.8659,-1.8581,-1.8425,-1.8095,-1.7679,-1.7679,-1.8068,-1.8745,-1.7881,-1.7733,-1.8068,-1.7557,-1.731,-1.731,-1.7269,-1.7269,-1.7269,-1.6808,-1.6934,-1.7269,0.0,0.0,0.0,0.0,0.0,0.0,0.0,0.0,0.0,0.0,0.0,-1.2277,-1.271,-1.12,0.0,0.0,0.0,0.0,-0.9738,-1.0381,0.0,0.0,0.0,0.0,0.0,0.0,-1.1129,-1.1441,-1.1059,-1.2182,-1.4727,-1.4727,-1.521,-1.6024,-1.5034,-1.382,-1.2491,-1.1274,-1.0146,-0.9154,-0.9204,-0.9582,-1.003,-0.927,-0.9364,-0.9816,-0.915,-0.8908,-0.8903,-0.8903,-0.8875,-0.8852,-0.8852,0.0,0.0,0.0,-0.9072,-0.9795,-1.1423,-1.3092,-1.4815,-1.6667,-1.7477,-1.7959,-1.8339,-1.8286,-1.8238,-1.8617,-1.902,-1.9207,0.0,0.0,0.0,0.0,0.0,0.0,0.0,0.0,0.0,0.0,0.0,0.0,0.0,0.0,0.0,0.0,-1.9413,-1.9176,-1.8745,-1.8745,-1.8567,-1.8163,-1.8282,-1.8282,-1.8163,-1.8282,-1.8282,-1.8163,-1.7841,-1.7585,-1.7366,-1.6938,-1.7146,-1.7868,-1.7366,-1.7242,-1.7407,-1.6811,-1.6429,-1.6157,-1.5896,-1.5796,-1.5728,-1.5543,-1.5576,-1.5728,0.0,0.0,0.0,0.0,0.0,0.0,0.0,0.0,0.0,0.0,0.0,0.0,-1.2285,0.0,0.0,0.0,0.0,0.0,-0.9597,0.0,0.0,0.0,0.0,0.0,0.0,-0.9989,-1.0071,-1.0239,-1.0019,-1.1476,-1.4499,-1.4311,-1.5263,-1.7065,-1.5688,-1.4345,-1.3039,-1.1442,-1.034,-0.9657,-0.9583,-1.0089,-1.0766,-1.0068,-1.0351,-1.0994,-0.9769,-0.9334,-0.9288,0.0,0.0,-0.8806,0.0,-0.8783,0.0,0.0,0.0,-0.9483,-1.1429,-1.2531,-1.3481,-1.5007,-1.606,-1.6771,-1.7008,0.0,-1.7353,0.0,-1.8082,0.0,0.0,0.0,0.0,0.0,0.0,0.0,0.0,0.0,0.0,0.0,0.0,0.0,0.0,0.0,0.0,0.0,-1.904,-1.8836,-1.8436,-1.8436,-1.8254,-1.7922,-1.8043,-1.8043,-1.7882,-1.7949,-1.7814,-1.7543,-1.7256,-1.7021,-1.6896,-1.6299,-1.6312,-1.6765,-1.6667,-1.6697,-1.6727,-1.6027,-1.5531,-1.5174,-1.4698,-1.4503,-1.447,-1.4503,-1.4503,-1.447,0.0,0.0,0.0,0.0,0.0,0.0,0.0,0.0,0.0,0.0,0.0,0.0,0.0,0.0,0.0,0.0,0.0,0.0,0.0,0.0,0.0,0.0,0.0,0.0,0.0,-0.9063,-0.9418,-1.0122,-0.9412,-1.092,-1.4496,-1.3768,-1.4986,-1.771,-1.6936,-1.5061,-1.2449,-1.2329,-1.1846,-1.1157,-1.0908,-1.0768,-1.0814,-1.1837,-1.2285,-1.2244,-1.0961,0.0,0.0,0.0,0.0,0.0,-0.8806,-0.8724,-0.8616,0.0,0.0,0.0,-0.8938,-1.0028,-1.1234,-1.2346,-1.3685,-1.486,-1.5332,0.0,-1.5785,-1.6389,-1.6507,0.0,0.0,0.0,0.0,0.0,0.0,0.0,0.0,0.0,0.0,0.0,0.0,0.0,0.0,0.0,0.0,0.0,-1.7963,-1.7963,-1.7922,-1.7922,-1.7922,-1.7882,-1.7922,-1.7922,-1.7882,-1.7544,-1.7076,-1.6565,-1.6552,-1.6306,-1.5881,-1.5824,-1.5736,-1.5603,-1.5591,-1.58,-1.6071,-1.5141,-1.4744,-1.4698,-1.4201,-1.4014,-1.4014,-1.4014,-1.4014,-1.4014,0.0,0.0,0.0,0.0,0.0,0.0,0.0,0.0,0.0,0.0,0.0,0.0,0.0,-1.0364,-0.9806,-0.9714,0.0,0.0,0.0,0.0,0.0,0.0,0.0,0.0,0.0,-0.8913,-0.8998,-0.9265,-0.8968,-0.9961,-1.2204,-1.2536,-1.3261,-1.4327,-1.5477,-1.5158,-1.3684,-1.2734,-1.1882,-1.1189,-1.1442,-1.1973,-1.2606,-1.2466,-1.2911,-1.3474,-1.216,0.0,0.0,0.0,0.0,0.0,-0.9278,-0.8899,-0.8399,-0.8311,-0.8137,-0.8213,-0.9265,-0.9875,-1.0436,-1.133,-1.2516,-1.3507,-1.3722,-1.4369,-1.5082,-1.5696,0.0,0.0,0.0,0.0,0.0,0.0,0.0,0.0,0.0,0.0,0.0,0.0,0.0,0.0,0.0,0.0,0.0,0.0,0.0,-1.7828,-1.7652,-1.7652,-1.7488,-1.7144,-1.7269,-1.7227,-1.6989,-1.6723,-1.6522,-1.6318,-1.6044,-1.5812,-1.5647,-1.5468,-1.5153,-1.4789,-1.4789,-1.4892,-1.5039,-1.4663,-1.4107,-1.3474,-1.3188,-1.2909,-1.2686,-1.2909,-1.2764,-1.2589,0.0,0.0,0.0,0.0,0.0,0.0,0.0,0.0,0.0,-1.0722,0.0,0.0,0.0,0.0,-0.9677,-0.9542,-0.943,-0.934,-0.9273,0.0,0.0,0.0,0.0,0.0,0.0,-0.8555,-0.8475,-0.8705,-0.8475,-0.9205,-1.0851,-1.1518,-1.2084,-1.2589,-1.3813,-1.4271,-1.4073,-1.3092,-1.2348,-1.191,-1.2336,-1.2964,-1.3658,-1.3621,-1.4108,-1.4658,0.0,0.0,0.0,0.0,0.0,0.0,-0.9857,-0.9095,-0.8216,-0.8082,-0.797,-0.8094,-0.8993,-0.9347,-0.9662,-1.0525,-1.1274,-1.1924,-1.2466,-1.3187,-1.3958,-1.4755,0.0,0.0,0.0,0.0,0.0,0.0,0.0,0.0,0.0,0.0,0.0,0.0,0.0,0.0,0.0,0.0,0.0,0.0,0.0,0.0,-1.7269,-1.7214,-1.7018,-1.6552,-1.668,-1.6539,-1.612,-1.5944,-1.5824,-1.5691,-1.5277,-1.5085,-1.5187,-1.4731,-1.4362,-1.4035,-1.4035,-1.4071,-1.4097,-1.3873,-1.3351,-1.2667,-1.2374,-1.2107,-1.1868,-1.2089,-1.185,-1.146,0.0,0.0,0.0,0.0,0.0,0.0,0.0,0.0,-0.9978,-0.9868,0.0,0.0,0.0,0.0,0.0,-0.943,-0.9366,-0.9281,-0.9206,-0.9196,0.0,0.0,0.0,0.0,0.0,-0.7923,-0.7834,-0.8497,-0.7967,-0.8722,-1.0633,-1.0785,-1.1594,-1.2864,-1.2155,-1.2406,-1.3312,-1.3312,-1.3346,-1.3396,0.0,-1.3653,-1.3816,0.0,-1.594,0.0,-1.45,-1.4025,0.0,-1.2679,0.0,0.0,0.0,-0.9281,-0.8083,-0.7942,-0.7914,-0.7929,0.0,0.0,0.0,-0.9689,0.0,0.0,-1.1581,0.0,-1.2281,-1.3474,0.0,0.0,0.0,0.0,0.0,0.0,0.0,0.0,0.0,0.0,0.0,0.0,0.0,0.0,0.0,0.0,0.0,0.0,-1.7146,-1.698,-1.6672,-1.6617,-1.6471,-1.6151,-1.6107,-1.5832,-1.5242,-1.5242,-1.5028,-1.4662,-1.4222,-1.4129,-1.4326,-1.3705,-1.3372,-1.3362,-1.3218,-1.3266,-1.3314,-1.2812,-1.2511,-1.2316,-1.1859,-1.1669,-1.1669,-1.1669,-1.1318,-1.0854,0.0,0.0,0.0,0.0,0.0,-1.3244,-1.3228,-1.1725,-1.0762,0.0,0.0,0.0,-1.0273,-1.0153,-1.0026,-0.9847,-0.9904,-0.9668,-0.9019,-0.893,-0.8863,-0.8766,-0.8738,-0.8696,-0.8636,-0.8318,-0.8211,-0.8358,-0.822,-0.8412,-0.8975,-0.9644,-1.0174,-1.0552,-1.0894,-1.1186,-1.1446,-1.1446,0.0,-1.2957,-1.2863,-1.3662,0.0,0.0,0.0,0.0,0.0,-1.4998,-1.4558,0.0,-1.3122,-1.1394,0.0,0.0,-0.8576,-0.8049,-0.8244,-0.8483,-0.7856,0.0,0.0,0.0,0.0,0.0,0.0,0.0,0.0,-1.1648,0.0,0.0,0.0,0.0,0.0,0.0,0.0,0.0,0.0,0.0,0.0,0.0,0.0,0.0,0.0,0.0,0.0,0.0,-1.5672,-1.5567,-1.5249,-1.4821,-1.4564,-1.4452,-1.4078,-1.3964,-1.4149,-1.3861,-1.3798,-1.4061,-1.3637,-1.3457,-1.3552,-1.3362,-1.3064,-1.2657,-1.2667,-1.2374,-1.2058,-1.2325,-1.2236,-1.1859,-1.1619,-1.1578,-1.1469,-1.0964,-1.0651,-1.0498,0.0,0.0,0.0,0.0,0.0,-1.3383,-1.3363,-1.2177,-1.1382,0.0,0.0,0.0,-1.079,-1.0411,-1.0125,-1.0005,-0.9762,-0.9406,-0.8891,-0.8789,-0.8719,-0.8665,-0.8604,-0.853,-0.8431,-0.8055,-0.7976,-0.8216,-0.7995,-0.7998,-0.8229,-0.8802,-0.9021,-0.8996,-0.9423,-0.9614,-0.9614,-0.9614,0.0,0.0,-1.3045,0.0,0.0,-1.5263,-1.5596,0.0,0.0,0.0,-1.5229,-1.5352,-1.3996,0.0,0.0,-0.9672,-0.9065,-0.868,-0.8762,-0.8865,-0.8319,-0.8433,-0.8595,0.0,0.0,0.0,-0.8879,-0.9313,0.0,0.0,0.0,0.0,0.0,0.0,0.0,0.0,0.0,0.0,0.0,0.0,0.0,0.0,0.0,0.0,0.0,-1.4813,-1.4852,-1.4684,-1.4684,-1.4541,-1.4225,-1.3732,-1.3488,-1.3488,-1.3034,-1.2882,-1.3075,-1.2705,-1.2754,-1.317,-1.2701,-1.2599,-1.2861,-1.2628,-1.2335,-1.199,-1.1683,-1.1392,-1.1065,-1.1183,-1.1334,-1.1528,-1.1427,-1.1267,-1.1015,-1.0557,-1.0138,-0.9718,0.0,0.0,-1.4437,-1.4356,-1.3755,-1.3281,-1.3261,-1.252,-1.1916,0.0,-1.1666,-1.1503,-1.1347,-1.0595,-1.0114,-1.0142,-0.938,-0.8876,-0.8828,-0.8693,-0.8587,-0.8524,-0.8409,-0.8303,-0.8164,-0.7508,-0.7467,-0.808,-0.759,-0.7593,-0.808,-0.8187,-0.8203,-0.8094,-0.8094,-0.8094,-0.8109,-0.8264,0.0,-1.1715,-1.3361,-1.4163,0.0,0.0,-1.5767,-1.5799,-1.577,-1.577,-1.5784,-1.568,-1.4415,0.0,0.0,-1.081,-0.9704,-0.9509,-0.9368,0.0,-0.9028,-0.8968,-0.9044,0.0,-0.852,0.0,-0.9083,-0.901,-0.8912,0.0,0.0,0.0,0.0,0.0,0.0,0.0,0.0,0.0,0.0,0.0,0.0,0.0,0.0,0.0,-1.3848,-1.3887,-1.3887,-1.3848,-1.3848,-1.3638,-1.3225,-1.291,-1.2715,-1.2715,-1.2372,-1.2152,-1.2034,-1.1691,-1.1734,-1.2139,-1.1621,-1.1674,-1.2153,-1.1642,-1.1368,-1.1267,-1.06,-1.0293,-1.0241,-0.9769,-1.0182,-1.1116,-1.1116,-1.0761,-1.03,-1.0241,-0.9562,-0.8778,0.0,-1.41,-1.4152,-1.4024,-1.3917,-1.3783,-1.3627,-1.2819,-1.2442,-1.3052,-1.247,-1.2165,-1.2657,-1.1523,-1.0824,-1.1104,-1.0104,-0.9301,-0.8985,-0.8443,-0.8108,-0.8041,-0.8013,-0.7984,-0.7954,-0.7763,-0.7749,-0.794,-0.7792,-0.7792,-0.794,-0.7968,-0.8023,-0.8094,-0.8094,-0.8094,-0.8171,-0.925,0.0,-1.0783,-1.1409,0.0,-1.4845,-1.4735,-1.515,-1.577,-1.5477,-1.558,-1.5695,-1.4889,-1.4155,-1.3303,0.0,-1.1192,-1.1051,-0.9605,-0.9779,-1.0221,-0.9144,-0.9479,-0.9801,-0.8268,0.0,0.0,-0.7352,-0.759,-0.8031,0.0,0.0,0.0,0.0,0.0,0.0,0.0,0.0,0.0,0.0,0.0,0.0,0.0,0.0,0.0,-1.2353,-1.2537,-1.2574,-1.2353,-1.2129,-1.1866,-1.1512,-1.1292,-1.1069,-1.0844,-1.0617,-1.0612,-1.091,-1.0583,-1.0616,-1.1021,-1.0895,-1.0785,-1.07,-1.0923,-1.0702,-1.0123,-0.9969,-0.971,-0.9444,-0.934,-0.9547,-0.9925,-0.9925,-0.9769,-0.9569,-0.9093,-0.8732,-0.8421,-1.3092,-1.3563,-1.3842,-1.3754,-1.3771,-1.3756,-1.3632,-1.3212,-1.3136,-1.382,-1.3303,-1.2852,-1.2797,-1.1716,-1.1115,-1.1377,-1.0112,-0.9263,-0.9157,-0.8407,-0.7927,-0.7899,-0.787,-0.7841,-0.7855,-0.7812,-0.7812,-0.7855,-0.7812,-0.7812,-0.7855,-0.7855,-0.802,-0.8288,-0.799,-0.8005,-0.8287,-0.8645,-0.9307,-1.0235,-1.1659,0.0,-1.4467,-1.4558,-1.489,-1.5284,-1.5102,-1.5163,-1.5182,-1.4385,-1.3785,0.0,0.0,-1.1755,-1.1436,0.0,-1.0592,-1.0686,-0.9661,-0.9819,-1.0004,-0.8968,0.0,0.0,0.0,-0.7784,-0.7917,-0.7889,-0.7747,0.0,0.0,0.0,0.0,0.0,0.0,0.0,0.0,0.0,0.0,0.0,0.0,0.0,-1.1057,-1.1384,-1.1479,-1.1169,-1.1019,-1.084,-1.0505,-1.0428,-1.0283,-1.0137,-0.9892,-0.9827,-1.0071,-0.9712,-0.9698,-0.9995,-1.0157,-1.02,-1.0132,-1.0555,-1.0352,-0.9762,-0.9503,-0.919,-0.8778,-0.8455,-0.8408,-0.862,-0.919,-0.9197,-0.889,-0.8573,-0.8262,-0.7895,-1.205,-1.274,-1.3254,-1.3174,-1.3357,-1.3476,-1.3361,-1.3311,-1.3497,-1.401,-1.3746,-1.3331,-1.2822,-1.1964,-1.155,-1.178,-1.0256,-0.9351,-0.9481,-0.856,-0.8005,-0.7975,-0.7812,-0.7783,-0.7945,-0.7783,-0.7739,-0.7753,-0.7724,-0.7724,-0.7753,-0.7739,-0.7941,-0.8309,-0.7936,-0.8019,-0.8379,0.0,0.0,-1.0221,0.0,-1.3336,-1.3714,-1.43,-1.4581,-1.4626,-1.4752,-1.4777,-1.4603,-1.399,-1.3387,-1.2858,-1.2623,-1.217,0.0,0.0,0.0,0.0,0.0,0.0,0.0,0.0,0.0,-0.9124,0.0,0.0,0.0,-0.8421,0.0,0.0,0.0,0.0,0.0,0.0,0.0,0.0,0.0,0.0,0.0,0.0,0.0,0.0,0.0,-1.0374,-1.0487,-1.0341,-1.0232,-1.0098,-0.9932,-0.9902,-0.9862,-0.9823,-0.9527,-0.9359,-0.9359,-0.9047,-0.8973,-0.9146,-0.9367,-0.9532,-0.9698,-0.995,-0.982,-0.9392,-0.8928,-0.8514,-0.8103,-0.7622,-0.7413,-0.7515,-0.8508,-0.8567,-0.8215,-0.8215,-0.7836,-0.7413,-1.0591,-1.1466,-1.2042,-1.1631,-1.2502,-1.3123,-1.2746,-1.2635,-1.2756,-1.319,-1.3195,-1.3306,-1.3694,-1.3121,-1.2854,-1.3218,0.0,0.0,-1.0175,0.0,-0.8305,-0.826,-0.7735,-0.7741,-0.8397,-0.7785,-0.7499,-0.7635,-0.7435,-0.7451,-0.762,-0.7499,-0.7542,-0.772,-0.8179,-0.8405,-0.8436,0.0,-1.0003,0.0,-1.1689,-1.2148,0.0,-1.3316,-1.373,-1.408,-1.4598,-1.462,-1.4256,0.0,-1.3202,-1.2733,0.0,-1.1974,-1.2442,-1.1432,0.0,0.0,0.0,0.0,0.0,0.0,-1.0338,0.0,0.0,0.0,-0.8371,-0.7268,0.0,0.0,0.0,0.0,0.0,0.0,0.0,0.0,0.0,0.0,0.0,0.0,0.0,0.0,0.0,-0.9512,-0.9489,-1.0001,-0.9534,-0.9355,-0.9561,-0.9567,-0.9408,-0.9136,-0.8886,-0.8797,-0.8797,-0.857,-0.8479,-0.8519,-0.8547,-0.8566,-0.8573,-0.8602,-0.8377,-0.7931,-0.7877,-0.7616,-0.7246,-0.7192,-0.7139,-0.7192,-0.7568,-0.7574,-0.7419,-0.7419,-0.7306,-0.7139,-0.9609,-1.0751,-1.1425,-1.0871,-1.1503,-1.2022,-1.1819,-1.2739,-1.3379,-1.3121,-1.3678,-1.3996,0.0,0.0,0.0,0.0,0.0,-1.1302,0.0,0.0,-0.9283,-0.8884,-0.8264,-0.8056,-0.8376,-0.7734,-0.7406,-0.742,-0.734,-0.7294,-0.7314,-0.7251,-0.759,-0.8232,-0.8181,-0.8654,-0.9487,0.0,-0.9552,0.0,0.0,0.0,0.0,-1.3098,-1.3717,-1.3884,-1.4141,-1.4138,-1.3914,0.0,-1.2786,0.0,0.0,0.0,0.0,0.0,0.0,0.0,0.0,0.0,0.0,0.0,0.0,0.0,-0.8549,0.0,-0.8117,0.0,0.0,0.0,0.0,0.0,0.0,0.0,0.0,0.0,0.0,0.0,0.0,0.0,0.0,0.0,0.0,0.0,0.0,0.0,-0.8548,-0.846,-0.857,-0.8768,-0.8814,-0.8659,-0.857,-0.8529,-0.8529,-0.8242,-0.8036,-0.787,-0.7889,-0.7836,-0.7701,-0.8039,-0.791,-0.7518,-0.7659,-0.7289,-0.6593,-0.6593,-0.6372,-0.6046,-0.6154,-0.6593,-0.7198,-0.7198,-0.6923,-0.6593,-0.8741,-0.9866,-1.051,-0.9997,-1.0652,-1.1368,-1.1605,-1.2877,-1.3724,-1.3461,-1.4139,0.0,-1.4028,-1.3837,0.0,0.0,-1.2924,-1.2185,0.0,0.0,-1.0145,-0.9782,-0.8922,-0.8498,-0.8608,-0.7869,-0.7398,-0.7228,-0.7212,-0.7166,-0.7091,-0.7042,-0.7429,-0.8181,-0.8102,-0.8748,-0.9841,0.0,-0.9533,-1.044,-1.0521,-1.0844,-1.1477,-1.2983,-1.3644,-1.3788,-1.3788,-1.3788,-1.3696,-1.3031,-1.2458,0.0,-1.2121,0.0,0.0,0.0,0.0,0.0,-1.1089,0.0,0.0,0.0,0.0,0.0,0.0,0.0,0.0,0.0,0.0,0.0,0.0,0.0,0.0,0.0,0.0,0.0,0.0,0.0,0.0,0.0,0.0,0.0,0.0,0.0,0.0,0.0,0.0,-0.7541,-0.7885,-0.8127,-0.8318,-0.8414,-0.8242,-0.816,-0.816,-0.778,-0.7489,-0.7273,-0.7198,-0.7115,-0.7031,-0.7376,-0.7434,-0.7212,-0.7242,-0.6858,-0.6209,-0.6046,-0.566,-0.5222,-0.5222,-0.5769,-0.648,-0.6534,-0.6258,-0.5878,-0.7923,-0.8588,-0.8982,-0.8691,-1.0076,-1.1554,-1.2591,-1.2784,-1.3203,-1.4149,0.0,0.0,0.0,0.0,0.0,0.0,0.0,-1.2874,-1.1965,0.0,-1.0686,-1.0948,-0.9625,-0.9047,0.0,-0.8273,-0.7459,-0.7009,-0.6957,-0.6977,-0.7091,-0.6908,-0.682,-0.6911,-0.7985,-0.8625,-0.8899,-0.9579,-1.07,-1.1984,-1.1387,-1.1834,-1.2852,0.0,-1.3278,-1.3788,-1.3788,0.0,0.0,-1.2787,-1.2379,0.0,0.0,0.0,0.0,0.0,0.0,0.0,0.0,0.0,0.0,-0.9606,0.0,0.0,0.0,0.0,-0.7913,0.0,0.0,0.0,0.0,0.0,0.0,-0.6113,0.0,0.0,0.0,0.0,0.0,0.0,0.0,0.0,0.0,0.0,0.0,0.0,0.0,0.0,-0.7845,-0.7895,-0.8063,-0.8406,-0.7821,-0.7523,-0.7523,-0.7021,-0.6725,-0.6725,-0.6398,-0.632,-0.6521,-0.6474,-0.6525,-0.67,-0.6386,-0.6209,-0.6154,-0.555,-0.5222,-0.5105,-0.5105,-0.5054,-0.5007,-0.5109,-0.516,-0.5109,-0.8013,-0.819,-0.8314,-0.8225,-0.9175,-1.0326,-1.1436,-1.2313,-1.3129,0.0,0.0,0.0,0.0,-1.4578,-1.4388,0.0,0.0,-1.3277,-1.2546,-1.2203,0.0,0.0,-1.0689,-1.0083,0.0,-0.9004,-0.8135,-0.7267,-0.7249,-0.7058,-0.6689,-0.6633,-0.6787,-0.7156,-0.7901,-0.8883,0.0,0.0,0.0,0.0,0.0,-1.1875,-1.2918,0.0,0.0,-1.322,-1.322,-1.322,0.0,-1.2871,-1.2381,-1.1947,-1.2027,-1.1798,-1.1491,-1.1675,-1.1592,0.0,0.0,0.0,-1.0175,-0.9478,0.0,0.0,0.0,0.0,0.0,0.0,0.0,0.0,0.0,0.0,0.0,-0.5784,0.0,0.0,0.0,0.0,0.0,0.0,0.0,0.0,0.0,0.0,0.0,0.0,-0.5548,0.0,0.0,-0.6646,-0.6911,-0.7015,-0.7003,-0.6979,-0.6979,-0.6556,-0.6349,-0.6349,-0.6013,-0.5886,-0.5974,-0.6081,-0.6033,-0.5902,-0.5859,-0.5436,-0.4835,-0.456,-0.4174,-0.379,-0.379,-0.3738,-0.3793,-0.4673,-0.4725,-0.4281,-0.828,-0.8154,0.0,0.0,0.0,-0.9875,-1.1261,-1.2458,0.0,0.0,-1.4699,0.0,-1.4782,0.0,-1.4544,0.0,-1.4082,-1.3804,-1.3074,-1.2958,0.0,-1.2134,-1.1382,0.0,0.0,0.0,-0.8595,-0.7551,-0.7375,-0.7025,-0.6507,-0.6455,-0.662,-0.698,-0.7705,-0.8803,-1.0084,-1.0488,-1.0978,0.0,0.0,-1.1981,0.0,0.0,-1.272,-1.2896,0.0,-1.2896,-1.2896,-1.2791,-1.234,-1.1907,-1.2248,-1.1859,-1.1275,-1.1454,-1.1169,-1.0715,-1.037,-1.003,0.0,-0.9151,-0.8812,0.0,-0.7721,0.0,0.0,0.0,0.0,0.0,0.0,0.0,0.0,0.0,-0.5585,0.0,0.0,-0.4562,0.0,0.0,0.0,0.0,0.0,0.0,-0.4956,-0.4975,-0.4815,0.0,0.0,0.0,-0.6207,-0.6309,-0.646,-0.6513,-0.6513,-0.6179,-0.6013,-0.6013,-0.5804,-0.5631,-0.5463,-0.5596,-0.5481,-0.5148,-0.5038,-0.4687,-0.4119,-0.3788,-0.3405,-0.3023,-0.3023,-0.3023,-0.3077,-0.3907,-0.3904,-0.3461,-0.8634,-0.8449,0.0,0.0,-0.889,0.0,0.0,0.0,-1.3967,0.0,-1.5131,-1.5372,-1.5372,-1.5297,-1.512,-1.4799,-1.4761,-1.4421,-1.3603,-1.3263,0.0,0.0,-1.1761,-1.1142,-1.081,0.0,0.0,-0.7827,-0.7357,-0.6929,-0.6509,-0.6355,-0.629,-0.6337,-0.7405,0.0,-0.9143,-1.0379,-1.1359,-1.2113,-1.2113,-1.2113,-1.2113,-1.2077,-1.2401,-1.2861,-1.2861,-1.2861,-1.2791,-1.2544,-1.221,-1.1872,-1.1993,-1.1516,-1.0916,-1.0943,-1.0677,-1.0225,-0.9677,-0.9478,-0.9309,-0.8677,0.0,0.0,0.0,0.0,-0.7202,0.0,0.0,0.0,0.0,0.0,0.0,0.0,0.0,0.0,0.0,0.0,0.0,0.0,0.0,0.0,0.0,-0.5144,-0.4992,-0.5054,-0.4522,-0.4553,0.0,0.0,-0.5964,-0.6238,-0.6204,-0.6184,-0.6184,-0.5847,-0.568,-0.5636,-0.5636,-0.541,-0.4927,-0.5033,-0.4858,-0.4508,-0.4058,-0.3886,-0.3898,-0.3294,-0.3023,-0.2916,-0.2916,-0.2805,-0.2691,-0.286,-0.2805,-0.2691,-0.8335,-0.8624,-0.8943,0.0,-0.9009,-0.9843,0.0,0.0,0.0,0.0,-1.4898,-1.5234,-1.498,-1.4942,-1.4799,-1.4447,-1.4341,0.0,0.0,0.0,0.0,-1.3079,-1.208,-1.1318,-1.0867,-1.0186,0.0,-0.831,0.0,-0.7224,-0.6711,-0.6278,-0.6075,-0.6121,0.0,-0.7992,-0.8613,-1.0059,-1.1237,-1.2113,-1.2113,-1.2113,0.0,0.0,-1.2066,-1.2294,-1.2138,-1.2066,-1.2066,-1.1847,-1.1601,-1.1351,-1.1292,-1.1057,-1.0725,-1.0534,-1.0225,-0.9903,-0.9597,-0.9328,-0.907,-0.8896,-0.8423,-0.7937,0.0,0.0,0.0,0.0,0.0,0.0,0.0,0.0,0.0,0.0,0.0,0.0,0.0,0.0,0.0,-0.4281,0.0,0.0,0.0,-0.451,-0.4544,-0.438,-0.4132,0.0,0.0,0.0,0.0,-0.5312,-0.5666,-0.5847,-0.5847,-0.5545,-0.5285,-0.5019,-0.4836,-0.4522,-0.4172,-0.4216,-0.4036,-0.3761,-0.3551,-0.3332,-0.319,-0.2912,-0.28,-0.2747,-0.2747,-0.2747,-0.2691,-0.2747,-0.2747,-0.2635,-0.8601,0.0,0.0,-0.9837,0.0,0.0,-1.2341,0.0,0.0,-1.4076,-1.4748,0.0,-1.4922,-1.509,-1.5154,-1.4976,-1.4863,0.0,-1.4581,0.0,0.0,-1.3533,-1.2521,-1.1788,-1.1487,-1.054,0.0,-0.8789,0.0,0.0,-0.6664,-0.604,-0.5741,-0.5785,0.0,-0.7521,-0.8098,-0.977,-1.0917,-1.159,-1.1505,0.0,0.0,-1.133,-1.1367,-1.1442,-1.1217,-1.133,-1.1542,-1.1356,-1.1078,-1.0833,-1.0802,-1.0572,-1.0235,-1.0108,-0.9834,-0.9518,-0.9328,-0.9128,-0.9016,-0.9016,-0.8535,-0.8023,-0.7826,-0.7285,-0.6729,0.0,0.0,0.0,0.0,0.0,0.0,0.0,0.0,0.0,0.0,0.0,0.0,0.0,-0.4384,0.0,0.0,0.0,-0.4213,-0.3749,0.0,0.0,0.0,0.0,0.0,-0.438,-0.4836,-0.5014,-0.4923,-0.4923,-0.4748,-0.4399,-0.426,-0.3997,-0.3605,-0.3514,-0.3355,-0.3116,-0.2968,-0.2887,-0.2805,-0.2747,-0.2691,-0.2691,-0.2691,-0.2521,-0.224,-0.224,-0.224,-0.224,-0.9064,0.0,0.0,0.0,0.0,0.0,0.0,-1.33,0.0,-1.4325,0.0,-1.5109,-1.5109,-1.5516,-1.5792,-1.5792,0.0,-1.5481,-1.5017,-1.4685,-1.4325,-1.3801,-1.2814,-1.2196,-1.2041,-1.077,-0.9777,0.0,0.0,0.0,-0.6445,-0.573,-0.5404,0.0,0.0,0.0,0.0,-0.9515,-1.0448,-1.0878,-1.0725,-1.0677,-1.0687,-1.0582,-1.0582,-1.0582,-1.0361,-1.0649,-1.1132,-1.0943,-1.0611,-1.0283,-1.0428,-1.0088,-0.9664,-0.9677,-0.9439,-0.9136,-0.8984,-0.8935,-0.8895,-0.8854,-0.8529,-0.8123,-0.7772,-0.7115,-0.6447,-0.6132,-0.5707,-0.5521,0.0,0.0,0.0,0.0,0.0,0.0,0.0,0.0,0.0,0.0,0.0,0.0,0.0,0.0,0.0,0.0,0.0,0.0,0.0,0.0,0.0,-0.3575,-0.3991,-0.4127,-0.3906,0.0,-0.4128,-0.3778,-0.3734,-0.3517,-0.3084,-0.2962,-0.277,-0.257,-0.248,-0.2532,-0.2691,-0.2691,-0.2635,-0.2577,-0.2577,-0.2127,-0.151,-0.151,-0.151,-0.1511,-0.9091,0.0,0.0,0.0,0.0,-1.2808,-1.3435,-1.3875,-1.4349,-1.4797,-1.5325,-1.5648,-1.5648,-1.5732,-1.5792,-1.5715,-1.5614,0.0,0.0,0.0,0.0,-1.3814,-1.2411,-1.1502,-1.1165,-1.0459,-0.9561,0.0,0.0,0.0,-0.6244,-0.566,0.0,0.0,0.0,0.0,-0.9202,-0.9435,0.0,-1.0725,-1.0659,-1.0621,-1.0582,-1.0428,-1.0477,-1.0544,-1.0166,-1.0244,-1.0428,-1.0244,-1.0137,-1.0019,-0.9765,-0.9637,-0.9487,-0.9208,-0.9096,-0.8935,-0.8618,-0.8496,-0.8406,-0.8013,-0.7599,-0.7217,-0.7162,-0.6697,-0.6241,-0.6035,-0.5868,-0.5669,-0.5471,0.0,0.0,0.0,0.0,0.0,0.0,0.0,0.0,0.0,0.0,0.0,0.0,0.0,0.0,0.0,0.0,0.0,0.0,0.0,0.0,0.0,-0.3738,0.0,0.0,0.0,-0.3561,-0.3164,-0.2993,-0.2729,-0.238,-0.241,-0.2411,-0.2421,-0.2549,-0.2591,-0.2691,-0.2691,-0.241,-0.1959,-0.1959,-0.1566,-0.1006,-0.0894,-0.0559,-0.0112,0.0,0.0,0.0,0.0,0.0,0.0,0.0,-1.3901,0.0,-1.4916,-1.5229,-1.5255,-1.4926,-1.5171,-1.5187,-1.4869,-1.472,-1.4617,-1.4617,-1.3995,-1.3648,-1.3694,-1.2529,0.0,-1.1572,-1.0656,-0.9781,-0.8936,0.0,0.0,-0.6345,-0.548,0.0,-0.5137,0.0,-0.7473,0.0,0.0,0.0,-1.0293,-1.0386,-1.0429,-1.0438,-1.027,-1.027,-1.0312,-1.011,-1.011,-1.0164,-0.9833,-0.9616,-0.9457,-0.9297,-0.9248,-0.9208,-0.9056,-0.9016,-0.8895,-0.8496,-0.8414,-0.8283,-0.7807,-0.7349,-0.6979,-0.6979,-0.6653,-0.6233,-0.6024,-0.5933,-0.5764,-0.5392,-0.5031,0.0,0.0,0.0,0.0,0.0,0.0,0.0,0.0,0.0,0.0,0.0,0.0,0.0,0.0,0.0,0.0,0.0,0.0,0.0,0.0,0.0,0.0,0.0,0.0,0.0,-0.2595,-0.2464,-0.2377,-0.2203,-0.2288,-0.2331,-0.2423,-0.2567,-0.2659,-0.2691,-0.2352,-0.2071,-0.1734,-0.1398,-0.0838,-0.0224,-0.0056,0.0448,0.101,0.0,-1.1123,0.0,0.0,-1.2057,0.0,-1.2896,-1.3736,-1.4404,-1.4786,-1.4814,-1.4641,-1.4182,-1.4485,-1.4536,-1.4014,-1.3873,-1.3779,-1.3779,-1.3552,-1.342,-1.342,-1.2651,-1.2146,-1.2059,-1.0976,-1.0102,0.0,0.0,0.0,0.0,-0.5517,0.0,0.0,0.0,0.0,0.0,0.0,-0.9538,-0.9987,-1.0196,-1.0273,-1.0228,-1.0137,-1.0092,-1.0092,-1.0092,-1.0092,-1.0043,-0.9738,-0.9453,-0.9214,-0.9214,-0.9113,-0.8972,-0.8972,-0.8872,-0.8643,-0.8201,-0.8118,-0.7995,-0.7523,-0.7147,-0.6859,-0.6768,-0.6483,-0.619,-0.5884,-0.589,-0.5769,-0.5229,-0.4794,0.0,0.0,0.0,0.0,0.0,0.0,0.0,0.0,0.0,0.0,0.0,0.0,0.0,0.0,0.0,0.0,-0.1866,-0.1928,0.0,0.0,0.0,-0.2242,-0.2169,0.0,-0.2467,-0.2201,-0.2201,-0.2209,-0.223,-0.227,-0.236,-0.2452,-0.2544,-0.2569,-0.241,-0.179,-0.1454,-0.1286,-0.0671,-0.0056,0.0617,0.0839,0.1232,0.1684,0.0,0.0,0.0,0.0,0.0,0.0,-1.2847,-1.3598,-1.4247,-1.4332,-1.4286,-1.425,-1.4204,-1.4143,-1.4014,-1.3815,-1.3826,-1.3732,-1.361,-1.316,-1.2861,-1.2861,-1.2365,-1.1944,-1.1583,-1.1085,-1.0266,0.0,0.0,-0.7351,0.0,-0.6109,0.0,0.0,0.0,0.0,0.0,-0.9142,-0.9544,-1.0266,-1.0165,-1.0137,-1.0137,-1.0092,-1.0092,-1.0092,-1.0092,-1.0092,-1.0083,-1.0052,-1.0026,-0.9981,-0.9981,-0.9479,-0.8904,-0.8904,-0.8377,-0.7724,-0.7273,-0.7147,-0.7027,-0.6617,-0.6496,-0.6361,-0.5916,-0.5782,-0.5696,-0.5437,-0.5577,-0.5514,-0.4779,-0.4838,-0.4698,0.0,0.0,0.0,0.0,0.0,-0.3273,-0.2891,0.0,0.0,0.0,0.0,0.0,0.0,0.0,0.0,-0.164,-0.1652,-0.1657,-0.1713,0.0,-0.1969,-0.2029,-0.2157,-0.2243,-0.2201,-0.2201,-0.224,-0.2272,-0.2362,-0.2454,-0.2601,-0.2638,-0.2289,-0.1677,-0.1062,-0.0392,0.0224,0.028,0.0673,0.1234,0.1458,0.1572,0.1628,0.0,0.0,0.0,0.0,0.0,0.0,0.0,-1.2888,-1.3084,-1.3228,-1.3742,-1.3931,-1.3542,-1.3447,-1.3208,-1.2832,-1.2783,-1.2745,-1.2706,-1.2501,-1.2403,-1.2403,-1.2215,-1.2003,-1.1847,-1.149,-1.08,0.0,0.0,-0.8161,-0.7293,-0.6874,0.0,0.0,0.0,-0.8552,-0.956,-0.9934,-1.026,-1.0552,-1.0728,-1.0822,-1.0822,-1.0822,-1.0822,-1.0765,-1.0425,-1.0279,-1.023,-0.9927,-0.9739,-0.9619,-0.9619,-0.9203,-0.864,-0.864,-0.8415,-0.8089,-0.7587,-0.7497,-0.7322,-0.6773,-0.6653,-0.6472,-0.5863,-0.5658,-0.5529,-0.5346,-0.527,-0.5115,-0.4521,-0.4219,-0.3933,0.0,0.0,0.0,0.0,0.0,0.0,0.0,0.0,-0.2162,0.0,0.0,0.0,0.0,0.0,0.0,0.0,0.0,0.0,-0.1621,0.0,-0.1925,-0.2017,-0.2153,-0.2201,-0.2201,-0.2253,-0.2294,-0.2287,-0.2432,-0.2336,-0.1975,-0.2003,-0.1621,-0.0838,-0.028,0.0112,0.0449,0.0954,0.129,0.1515,0.1685,0.1741,0.1741,-1.2832,0.0,-1.2368,0.0,-1.2387,-1.2205,-1.2414,-1.2382,-1.2323,-1.2382,-1.2987,-1.3266,-1.2832,-1.2783,-1.254,-1.2126,-1.2076,-1.2076,-1.2076,-1.2076,-1.2076,-1.2076,-1.2076,0.0,-1.2076,-1.1691,-1.1159,-1.0434,-0.9551,0.0,-0.7971,0.0,0.0,0.0,-0.8267,-0.8774,-0.953,-1.0,-1.0278,-1.0401,-1.0705,-1.0804,-1.0804,-1.0804,-1.0804,-1.0753,-1.0344,-1.0138,-1.0087,-0.9718,-0.9407,-0.9159,-0.9351,-0.8963,-0.8468,-0.8468,-0.831,-0.8044,-0.7706,-0.7611,-0.7519,-0.7016,-0.6768,-0.6435,-0.5754,-0.5358,-0.5053,-0.487,-0.4831,-0.4661,-0.4184,-0.3741,-0.3432,-0.336,0.0,0.0,0.0,0.0,0.0,0.0,-0.1897,-0.1805,-0.1677,0.0,0.0,0.0,0.0,0.0,0.0,0.0,0.0,0.0,0.0,0.0,0.0,-0.2153,-0.2213,-0.2238,-0.2299,-0.2261,-0.2119,-0.2101,-0.1804,-0.1341,-0.1174,-0.0671,-0.0056,0.0504,0.0785,0.0842,0.1459,0.1685,0.1685,0.1741,0.1797,0.1797,-1.2676,-1.2569,-1.252,-1.248,-1.252,-1.2471,-1.2323,-1.2274,-1.2274,-1.2126,-1.2126,-1.2175,-1.2274,-1.2175,-1.2126,-1.2076,-1.2076,-1.2076,-1.2076,-1.2076,-1.2076,0.0,0.0,-1.2076,-1.2076,-1.1691,-1.1235,-1.0724,0.0,0.0,-0.8391,0.0,-0.7744,-0.7981,-0.7981,-0.8371,-0.9003,-0.9011,-0.9256,-0.9607,-0.9614,-0.9614,-0.9614,-0.9614,-0.9614,-0.9614,-0.9614,-0.9614,-0.9614,-0.9614,-0.9242,-0.8922,-0.9444,-0.9031,-0.8387,-0.8387,-0.7843,-0.72,-0.72,-0.72,-0.72,-0.72,-0.6625,-0.5978,-0.5499,-0.4749,-0.4049,-0.3785,-0.4052,-0.4184,-0.3697,-0.3605,-0.3383,-0.2789,0.0,0.0,0.0,0.0,0.0,0.0,-0.1803,-0.1673,-0.1619,0.0,0.0,0.0,0.0,0.0,0.0,0.0,0.0,-0.1701,-0.1881,0.0,-0.2017,-0.2153,-0.2242,-0.228,-0.228,-0.2077,-0.1699,-0.1155,-0.0838,-0.067,-0.0056,0.0392,0.0727,0.1345,0.1685,0.1797,0.1797,0.1797,0.1797,0.1797,0.1797,0.1797,-1.2578,-1.2529,-1.248,-1.2382,-1.2382,-1.2323,-1.2175,-1.2175,-1.2126,-1.2126,-1.2076,-1.2126,-1.2175,-1.2126,-1.2076,0.0,-1.2076,-1.2076,0.0,-1.2076,-1.2076,-1.2076,-1.2076,-1.1927,-1.1578,-1.1405,-1.0959,-1.01,0.0,0.0,0.0,-0.8377,-0.841,-0.8673,-0.8673,-0.8953,-0.9402,-0.9402,-0.9467,-0.9614,-0.9614,-0.9614,-0.9614,-0.9614,-0.9614,-0.9562,-0.9197,-0.9033,-0.8988,-0.858,-0.8315,-0.8209,-0.8368,-0.8258,-0.8084,-0.8084,-0.7866,-0.7701,-0.7701,-0.7701,-0.7653,-0.7516,-0.7011,-0.6325,-0.5573,-0.4664,-0.3788,-0.3262,-0.3524,-0.3697,-0.3217,-0.3132,-0.3073,-0.2857,-0.2887,0.0,0.0,0.0,0.0,0.0,-0.1986,-0.1879,0.0,-0.1713,0.0,0.0,0.0,0.0,0.0,0.0,0.0,0.0,-0.189,0.0,-0.1536,-0.1603,-0.1477,-0.1138,-0.1219,-0.1211,-0.099,-0.0834,-0.0391,0.0279,0.0447,0.0896,0.1457,0.1684,0.1741,0.1797,0.1797,0.1797,0.1797,0.1797,0.2074,0.2404,-1.2431,-1.2382,-1.2323,-1.2224,-1.2224,-1.2175,-1.2126,-1.2076,-1.2026,-1.1828,-1.1778,-1.1719,-1.1501,-1.1451,0.0,-1.1778,-1.1778,-1.1719,-1.1501,-1.1451,-1.1451,-1.1451,-1.1451,-1.1301,-1.0947,0.0,0.0,-0.9657,-0.9264,-0.8812,-0.8322,-0.8322,-0.8423,-0.8599,-0.8599,-0.8707,-0.8942,-0.8942,-0.8942,-0.8942,-0.8942,-0.8942,-0.8942,-0.8942,-0.8942,-0.8942,-0.8573,-0.8468,-0.8415,-0.8002,-0.7901,-0.7901,-0.7842,-0.7676,-0.7568,-0.7842,-0.7901,-0.7901,-0.7901,-0.7741,-0.7587,-0.7425,-0.6691,-0.5761,-0.4843,-0.4174,-0.3586,-0.3035,-0.3157,-0.3278,-0.2962,-0.2912,-0.2912,-0.2912,-0.2912,-0.2821,-0.2551,0.0,0.0,0.0,0.0,0.0,0.0,-0.1616,0.0,0.0,0.0,0.0,0.0,0.0,0.0,-0.1466,-0.1494,0.0,-0.11,-0.1097,-0.0943,-0.067,-0.048,-0.0384,-0.028,-0.0056,0.0392,0.1064,0.1064,0.1345,0.1797,0.1797,0.1797,0.1797,0.1797,0.1964,0.2128,0.2128,0.2517,0.3014,-1.2274,-1.2175,0.0,0.0,-1.2026,0.0,-1.1977,-1.1968,-1.1819,-1.1318,-1.1217,-1.1006,-1.0466,-1.0415,-1.0626,-1.1167,0.0,0.0,0.0,-1.0415,-1.0415,-1.0415,-1.0415,-1.0364,-1.0312,-1.0218,-0.9865,-0.9309,-0.8586,-0.8115,-0.7901,-0.7901,-0.7901,-0.7901,-0.7901,-0.7901,-0.7901,-0.7901,-0.7901,-0.7901,-0.7901,-0.7901,-0.7901,-0.7901,-0.7901,-0.7901,-0.7901,-0.7901,-0.7901,-0.7848,-0.7848,-0.7788,-0.767,-0.7235,-0.6961,-0.7628,-0.7794,-0.7735,-0.7735,-0.7413,-0.7031,-0.7031,-0.5947,-0.4614,-0.3663,-0.3427,-0.334,-0.3082,-0.3013,-0.2976,-0.2903,-0.2926,-0.2923,-0.2912,-0.2912,-0.2776,-0.2551,0.0,0.0,0.0,0.0,0.0,0.0,-0.1233,-0.1053,0.0,0.0,0.0,0.0,0.0,-0.0658,-0.1219,-0.0868,-0.0668,-0.0624,-0.0547,-0.0567,-0.0642,0.0,0.0336,0.0505,0.1066,0.1403,0.1628,0.1628,0.1685,0.1797,0.1797,0.1853,0.1853,0.1853,0.224,0.2736,0.2736,0.3125,0.368,0.0,0.0,-1.1477,-1.1477,-1.1477,-1.1309,-1.088,-1.0779,-1.0779,-1.0626,-1.0626,-1.0576,-1.0415,-1.0415,-1.0269,-1.0028,-1.0379,-1.0576,-1.0415,-1.0415,-1.0415,-1.0415,-1.0312,-1.0064,-0.9666,-0.9517,-0.9099,-0.848,-0.8275,-0.8115,-0.7901,-0.7901,-0.7901,-0.7901,-0.7901,-0.7901,-0.7901,-0.7901,-0.7901,-0.7901,-0.7901,-0.7901,-0.7901,-0.7901,-0.7901,-0.7901,-0.7783,-0.7729,-0.7729,-0.7628,-0.73,-0.6918,-0.6858,-0.648,-0.615,-0.675,-0.6642,-0.6317,-0.6317,-0.6209,-0.61,-0.61,-0.5411,-0.4539,-0.373,-0.3493,-0.3362,-0.3186,-0.3128,-0.3093,-0.2978,-0.296,-0.2974,-0.2929,-0.2821,-0.2687,-0.2504,-0.2415,0.0,0.0,-0.1545,-0.1362,-0.0869,-0.0832,-0.0749,0.0,0.0,0.0,0.0,0.0134,0.0134,-0.0661,-0.0695,-0.0441,0.0156,0.0157,0.0375,0.0831,0.095,0.1122,0.1347,0.1459,0.1628,0.1741,0.1741,0.1797,0.1797,0.1797,0.2074,0.246,0.246,0.285,0.3403,0.3403,0.3793,0.4294,-1.125,-1.1099,-1.0897,-1.0897,-1.0897,-1.0787,-1.0466,-1.0415,-1.0312,-1.0064,-1.0012,-0.9909,-0.9599,-0.9599,-0.9451,-0.9093,-0.9607,-0.9858,-0.9599,-0.9496,-0.9496,-0.9496,-0.9399,-0.9242,-0.8942,-0.8791,-0.8533,-0.8062,-0.8062,-0.8008,-0.7901,-0.7901,-0.7901,-0.7901,-0.7901,-0.7901,-0.7901,-0.7901,-0.7901,-0.7901,-0.7901,-0.7901,-0.7901,-0.7901,-0.7735,-0.7456,-0.7343,-0.7128,-0.6799,-0.675,-0.648,-0.6209,-0.6145,-0.571,-0.5332,-0.555,-0.5719,-0.5773,-0.5773,-0.5609,-0.5281,-0.4952,-0.4609,-0.4173,-0.3701,-0.3542,-0.3475,-0.3314,-0.33,-0.3265,-0.3099,-0.3037,-0.2931,-0.2679,-0.249,-0.2279,-0.1923,-0.1744,0.0,-0.1119,-0.1093,-0.0875,-0.0414,-0.0374,-0.0237,0.0095,0.0,0.0,0.0095,0.0581,0.0577,-0.0092,0.0049,0.0358,0.0798,0.0812,0.1047,0.1459,0.1459,0.1515,0.1685,0.1685,0.1741,0.1797,0.1797,0.1797,0.1797,0.1797,0.2128,0.2681,0.2681,0.3236,0.4015,0.4015,0.4349,0.4853,-1.0364,-1.0312,-1.0261,-1.0261,-1.0261,-1.0261,-1.0167,-1.0159,-0.9961,-0.951,-0.9458,-0.9197,-0.8626,-0.8573,-0.8527,-0.8427,-0.889,-0.9047,-0.8573,-0.8474,-0.8421,-0.8421,-0.8374,-0.8374,-0.8374,-0.8215,-0.8062,-0.7901,-0.7901,-0.7901,-0.7901,-0.7901,-0.7901,-0.7901,-0.7901,-0.7901,-0.7901,-0.7901,-0.7901,-0.7901,-0.7901,-0.7901,-0.7842,-0.7788,-0.7348,-0.6853,-0.6745,-0.6312,-0.5769,-0.5719,-0.5664,-0.5555,-0.5382,-0.4999,-0.4512,-0.4405,-0.4901,-0.5445,-0.5445,-0.5117,-0.457,-0.3907,-0.3744,-0.3744,-0.3638,-0.3527,-0.3442,-0.334,-0.3212,-0.3126,-0.296,-0.2857,-0.2635,-0.2235,-0.1974,-0.1698,-0.1164,0.0,-0.0814,-0.0632,-0.0562,-0.0384,0.0096,0.0148,0.0353,0.0762,0.0814,0.0814,0.0865,0.0971,0.0857,0.0485,0.0929,0.1175,0.1343,0.1383,0.1459,0.1628,0.1628,0.1685,0.1797,0.1797,0.1797,0.1797,0.1797,0.1797,0.1797,0.1797,0.2128,0.2736,0.2792,0.3514,0.4519,0.4574,0.4908,0.5297,-1.0312,-1.0064,-0.9718,-0.9718,-0.9718,-0.9562,-0.9106,-0.8942,-0.889,-0.8903,-0.8804,-0.8639,-0.854,-0.8381,-0.8321,-0.8368,-0.8374,-0.8374,-0.8421,-0.8421,-0.8421,-0.8421,-0.8268,-0.8215,-0.8215,-0.8062,-0.7955,-0.7901,-0.7901,-0.7901,-0.7901,-0.7901,-0.7901,-0.7901,-0.7901,-0.7901,-0.7901,-0.7901,-0.7901,-0.7901,-0.7901,-0.7842,-0.767,-0.7235,-0.6912,-0.6583,-0.5923,-0.5651,-0.5542,-0.5441,-0.5062,-0.468,-0.468,-0.4242,-0.3749,-0.3749,-0.386,-0.3968,-0.3968,-0.386,-0.3749,-0.3638,-0.3638,-0.3638,-0.3585,-0.3188,-0.2845,-0.283,-0.2384,-0.2032,-0.1855,-0.184,-0.1728,-0.1482,-0.1334,-0.1164,-0.094,0.0,-0.0565,-0.0141,-0.0049,0.015,0.065,0.0703,0.0766,0.0896,0.0898,0.0951,0.1056,0.1087,0.1141,0.1312,0.1272,0.1351,0.156,0.168,0.1741,0.1797,0.1797,0.1797,0.1797,0.1797,0.1797,0.1797,0.1797,0.1797,0.1797,0.1797,0.2128,0.2736,0.3236,0.3904,0.4574,0.5018,0.5242,0.5297,-0.9517,-0.9361,-0.9159,-0.9159,-0.9054,-0.8949,-0.8745,-0.858,-0.8527,-0.8586,-0.848,-0.8427,-0.8328,-0.8275,-0.8168,-0.8109,-0.8062,-0.8062,-0.8109,-0.8109,-0.8109,-0.8109,-0.8062,-0.8062,-0.8062,-0.7955,-0.7901,-0.7901,-0.7901,-0.7901,-0.7901,-0.7901,-0.7901,-0.7901,-0.7901,-0.7901,-0.7901,-0.7574,-0.7408,-0.7348,-0.702,-0.6804,-0.6642,-0.6421,-0.5987,-0.5546,-0.5218,-0.4838,-0.4457,-0.4405,-0.4242,-0.4024,-0.4024,-0.3805,-0.3585,-0.3585,-0.3585,-0.3585,-0.3585,-0.3585,-0.3585,-0.3585,-0.3357,-0.313,-0.313,-0.2627,-0.2235,-0.2235,-0.2014,-0.1782,-0.1699,-0.1592,-0.1391,-0.1016,-0.0723,0.0,0.0,0.0,0.0192,0.0392,0.0508,0.0623,0.0831,0.0846,0.0862,0.0875,0.0877,0.0931,0.1096,0.1168,0.1337,0.1536,0.1591,0.1602,0.1685,0.1797,0.1797,0.1797,0.1797,0.1797,0.1797,0.1797,0.1797,0.1797,0.1797,0.1964,0.2294,0.2294,0.285,0.3683,0.3959,0.4408,0.4963,0.5187,0.5297,0.5297,-0.8804,-0.8804,-0.8804,-0.8804,-0.8646,-0.854,-0.8527,-0.8498,-0.8502,-0.8502,-0.8448,-0.8425,-0.8404,-0.8361,-0.8294,-0.8081,-0.8081,-0.8081,-0.8081,-0.7917,-0.7864,-0.7907,-0.7901,-0.7901,-0.7901,-0.7901,-0.7901,-0.7901,-0.7901,-0.7848,-0.7741,-0.7741,-0.7663,-0.7552,-0.7552,-0.758,-0.7582,-0.7136,-0.6854,-0.6734,-0.623,-0.5956,-0.5798,-0.5682,-0.523,-0.4724,-0.4555,-0.4147,-0.3623,-0.3623,-0.3604,-0.3585,-0.3585,-0.3585,-0.3585,-0.3585,-0.3585,-0.3585,-0.3585,-0.3585,-0.3583,-0.3413,-0.3019,-0.2681,-0.2514,-0.2014,-0.1567,-0.1567,-0.1455,-0.1399,-0.1399,-0.1197,-0.0956,-0.0532,0.0,0.0,0.0,0.0744,0.0843,0.0815,0.0844,0.0916,0.0916,0.0884,0.0898,0.0898,0.0898,0.0954,0.1066,0.1234,0.1403,0.1629,0.1741,0.1797,0.1797,0.1797,0.1797,0.1797,0.1797,0.1797,0.1797,0.1797,0.1852,0.2018,0.2018,0.2352,0.2903,0.2903,0.3458,0.4294,0.4463,0.4743,0.5132,0.5242,0.5297,0.5297,-0.8804,-0.8804,-0.8804,-0.8804,-0.8804,-0.8646,-0.8275,-0.8563,-0.8783,-0.8783,-0.8614,-0.8622,-0.889,-0.8926,-0.886,-0.8639,-0.8621,-0.8621,-0.8621,-0.8036,-0.7777,-0.7919,-0.7901,-0.7901,-0.7901,-0.7901,-0.7901,-0.7901,-0.7901,-0.7628,-0.7139,-0.7139,-0.6924,-0.6502,-0.6502,-0.6606,-0.678,-0.6543,-0.6428,-0.6424,-0.6177,-0.6002,-0.5827,-0.5292,-0.4931,-0.4746,-0.4148,-0.3895,-0.3798,-0.3798,-0.3729,-0.3585,-0.3585,-0.3585,-0.3585,-0.3585,-0.3585,-0.3585,-0.3585,-0.3585,-0.3471,-0.2905,-0.2736,-0.2569,-0.2014,-0.14,-0.0953,-0.0953,-0.0505,-0.0112,-0.0112,-0.0109,0.0,0.0266,0.0,0.0,0.0756,0.0829,0.0899,0.0902,0.0875,0.0894,0.0894,0.0896,0.0898,0.0898,0.0898,0.0954,0.1066,0.1234,0.1459,0.1797,0.1797,0.1797,0.1797,0.1797,0.1797,0.1797,0.1797,0.1797,0.1797,0.1797,0.213,0.2625,0.2625,0.2959,0.3516,0.3516,0.3569,0.3738,0.4294,0.4519,0.4629,0.5132,0.5297,0.5297,-0.8718,-0.8782,-0.8867,-0.8579,-0.8661,-0.8689,-0.8577,-0.8621,-0.8636,-0.874,-0.8695,-0.8691,-0.8824,-0.842,-0.8153,-0.8091,-0.772,-0.7483,-0.7483,-0.7245,-0.7111,-0.7177,-0.7172,-0.7172,-0.7172,-0.7172,-0.7172,-0.7172,-0.7172,-0.7052,-0.6879,-0.6879,-0.675,-0.6592,-0.6479,-0.6461,-0.6469,-0.5928,-0.5627,-0.5506,-0.5086,-0.4844,-0.4661,-0.4418,-0.4296,-0.4235,-0.3994,-0.3906,-0.3865,-0.3865,-0.3786,-0.3746,-0.3746,-0.364,-0.3585,-0.3585,-0.3357,-0.3019,-0.3019,-0.3019,-0.2963,-0.2736,-0.2124,-0.1512,-0.1288,-0.0784,-0.0336,-0.0336,-0.0168,0.0,0.0,0.0111,0.0275,0.0385,0.0,0.0736,0.086,0.091,0.0913,0.0878,0.089,0.0898,0.0898,0.0898,0.0898,0.0898,0.0898,0.101,0.1234,0.1459,0.1685,0.1797,0.1797,0.1797,0.1797,0.1797,0.1797,0.1797,0.1797,0.202,0.235,0.235,0.2683,0.3236,0.3236,0.3624,0.4184,0.4184,0.4349,0.4684,0.4908,0.5018,0.5018,0.5242,0.5297,0.5297,-0.8961,-0.8895,-0.8928,-0.8789,-0.8869,-0.8908,-0.8854,-0.8863,-0.8765,-0.8556,-0.8566,-0.8558,-0.8315,-0.7889,-0.7583,-0.7583,-0.7206,-0.6898,-0.6898,-0.6709,-0.6655,-0.6708,-0.6703,-0.6703,-0.6703,-0.6703,-0.6703,-0.6703,-0.6703,-0.6584,-0.6404,-0.6404,-0.6315,-0.6193,-0.6014,-0.5924,-0.5976,-0.5351,-0.4981,-0.4859,-0.4427,-0.4179,-0.405,-0.405,-0.405,-0.405,-0.405,-0.4026,-0.3993,-0.3993,-0.3912,-0.3811,-0.3811,-0.3614,-0.3347,-0.3312,-0.2905,-0.2402,-0.2402,-0.2291,-0.2124,-0.2124,-0.1512,-0.0842,-0.0673,-0.028,0.0,0.0,0.0,0.0,0.0056,0.0224,0.0393,0.0505,0.066,0.0874,0.0895,0.088,0.0874,0.0895,0.0898,0.0898,0.0898,0.0898,0.0898,0.0898,0.0954,0.1066,0.1403,0.1628,0.1741,0.1797,0.1964,0.2074,0.2074,0.1908,0.1908,0.2074,0.2074,0.2406,0.2959,0.2959,0.3292,0.3904,0.3904,0.4239,0.4739,0.4739,0.4963,0.5297,0.5297,0.5297,0.5297,0.5297,0.5352,0.5407,-0.9569,-0.9195,-0.8949,-0.9421,-0.9484,-0.9358,-0.9059,-0.925,-0.9128,-0.824,-0.8344,-0.8231,-0.7451,-0.7386,-0.7386,-0.7386,-0.7386,-0.7386,-0.7386,-0.6793,-0.6493,-0.6667,-0.6708,-0.6708,-0.6708,-0.6708,-0.6708,-0.6708,-0.6708,-0.6409,-0.5808,-0.5808,-0.5536,-0.5068,-0.4947,-0.4961,-0.509,-0.4758,-0.4625,-0.4561,-0.4364,-0.43,-0.43,-0.43,-0.43,-0.43,-0.43,-0.4221,-0.4118,-0.4118,-0.4037,-0.3875,-0.3872,-0.343,-0.2859,-0.2709,-0.2293,-0.179,-0.179,-0.1344,-0.0898,-0.0898,-0.0898,-0.0729,-0.0112,0.0,0.0,0.0,0.0,0.0056,0.0168,0.0224,0.0336,0.0673,0.0673,0.0729,0.0898,0.0898,0.0898,0.0898,0.0898,0.0898,0.0898,0.0898,0.0898,0.0898,0.101,0.1234,0.1572,0.1628,0.1685,0.1797,0.2406,0.2681,0.2681,0.213,0.213,0.2681,0.2681,0.3014,0.3627,0.3627,0.3959,0.4519,0.4519,0.4798,0.5297,0.5297,0.5297,0.5297,0.5297,0.5297,0.5297,0.5301,0.5407,0.5622,-0.9547,-0.9469,-0.9402,-0.9174,-0.8794,-0.8463,-0.8361,-0.7921,-0.7632,-0.7624,-0.7673,-0.7647,-0.7451,-0.699,-0.6728,-0.6728,-0.6276,-0.6017,-0.6017,-0.5818,-0.5709,-0.5807,-0.5804,-0.5804,-0.5804,-0.5804,-0.5804,-0.5804,-0.5804,-0.5675,-0.5546,-0.5345,-0.524,-0.5091,-0.4832,-0.4722,-0.4758,-0.4495,-0.4364,-0.4364,-0.43,-0.43,-0.43,-0.43,-0.43,-0.43,-0.43,-0.4276,-0.4246,-0.4246,-0.4164,-0.3922,-0.3406,-0.3058,-0.2775,-0.2221,-0.162,-0.1152,-0.1183,-0.0728,-0.0393,-0.0785,-0.0561,-0.0224,-0.0056,0.0,0.0,0.0112,0.0168,0.0168,0.0336,0.0449,0.0561,0.0673,0.0785,0.0842,0.0898,0.0898,0.0898,0.0898,0.0898,0.0898,0.0898,0.0898,0.0954,0.101,0.1679,0.2291,0.2792,0.2905,0.3016,0.3072,0.3239,0.3347,0.3347,0.3128,0.3128,0.3347,0.3347,0.3624,0.4239,0.4239,0.4519,0.5077,0.5077,0.5132,0.5297,0.5297,0.5297,0.5301,0.5462,0.5513,0.5513,0.5626,0.5686,0.5736,-0.8868,-0.8775,-0.8756,-0.8425,-0.8233,-0.8032,-0.7837,-0.726,-0.6872,-0.6994,-0.699,-0.6929,-0.6671,-0.6272,-0.6013,-0.6013,-0.562,-0.5428,-0.5428,-0.5428,-0.5428,-0.5428,-0.5428,-0.5428,-0.5428,-0.5428,-0.5428,-0.5428,-0.5428,-0.5359,-0.5292,-0.5156,-0.5087,-0.4957,-0.4691,-0.4625,-0.4558,-0.4364,-0.43,-0.43,-0.43,-0.43,-0.43,-0.43,-0.43,-0.43,-0.43,-0.43,-0.43,-0.43,-0.4051,-0.3644,-0.3099,-0.2568,-0.2118,-0.1571,-0.1018,-0.0537,-0.0528,-0.0289,-0.0057,-0.04,-0.0227,0.0,0.0056,0.0056,0.0112,0.0224,0.028,0.0336,0.0505,0.0617,0.0729,0.0785,0.0842,0.0898,0.0898,0.0898,0.0898,0.0898,0.0898,0.0898,0.0898,0.1177,0.1512,0.1958,0.2512,0.3012,0.34,0.3514,0.3624,0.3624,0.3849,0.3959,0.3959,0.4181,0.4181,0.3959,0.3959,0.4239,0.4798,0.4798,0.5018,0.5297,0.5297,0.5297,0.5297,0.5297,0.5297,0.5301,0.5407,0.5513,0.5622,0.5681,0.5791,0.59,-0.7772,-0.7517,-0.7386,-0.7386,-0.7707,-0.7772,-0.7386,-0.6937,-0.6609,-0.6334,-0.6334,-0.6075,-0.5491,-0.5428,-0.5428,-0.5428,-0.5428,-0.5428,-0.5428,-0.5428,-0.5428,-0.5428,-0.5428,-0.5428,-0.5428,-0.5428,-0.5362,-0.5362,-0.5362,-0.5292,-0.509,-0.5087,-0.4957,-0.4764,-0.4628,-0.4561,-0.4558,-0.4364,-0.43,-0.43,-0.43,-0.43,-0.43,-0.43,-0.43,-0.43,-0.4233,-0.4231,-0.4164,-0.4097,-0.3689,-0.3068,-0.2864,-0.2004,-0.1093,-0.0873,-0.0433,0.0,0.0,0.0,0.0059,0.0178,0.0115,0.0056,0.0168,0.0224,0.028,0.0393,0.0449,0.0505,0.0673,0.0729,0.0785,0.0898,0.0898,0.0898,0.0898,0.0898,0.0898,0.0898,0.0898,0.0898,0.0953,0.168,0.246,0.3345,0.34,0.3511,0.3735,0.3738,0.3738,0.3738,0.4294,0.4574,0.4574,0.5073,0.5073,0.4574,0.4574,0.4853,0.5297,0.5297,0.5297,0.5297,0.5297,0.5297,0.5297,0.5297,0.5297,0.5297,0.5297,0.5458,0.5622,0.5673,0.5891,0.6109,-0.7517,-0.7451,-0.7386,-0.7386,-0.7055,-0.6724,-0.6662,-0.6079,-0.569,-0.562,-0.562,-0.5557,-0.5428,-0.5428,-0.5428,-0.5428,-0.5428,-0.5428,-0.5428,-0.5428,-0.5428,-0.5428,-0.5428,-0.5428,-0.5428,-0.5428,-0.5292,-0.5156,-0.5156,-0.509,-0.4894,-0.4758,-0.4691,-0.4628,-0.4431,-0.4367,-0.4367,-0.43,-0.43,-0.43,-0.43,-0.43,-0.43,-0.43,-0.43,-0.4233,-0.3623,-0.342,-0.3353,-0.275,-0.2482,-0.2211,-0.1667,-0.1332,-0.0994,-0.0387,-0.0128,0.0064,0.0187,0.0246,0.0245,0.0428,0.0418,0.0405,0.0338,0.0336,0.0393,0.0617,0.0617,0.0673,0.0842,0.0842,0.0842,0.0898,0.0898,0.0898,0.0898,0.0898,0.0898,0.0898,0.0898,0.1065,0.1568,0.2348,0.3183,0.3956,0.4125,0.446,0.4908,0.4908,0.4908,0.4908,0.5073,0.5132,0.5132,0.5242,0.5242,0.5132,0.5132,0.5187,0.5297,0.5297,0.5297,0.5297,0.5297,0.5297,0.5297,0.5297,0.5297,0.5297,0.5458,0.5567,0.5673,0.6372,0.6642,0.6799,-0.6535,-0.6474,-0.6474,-0.6474,-0.6145,-0.5947,-0.5947,-0.562,-0.5428,-0.5428,-0.5428,-0.5428,-0.5428,-0.5428,-0.5428,-0.5428,-0.5428,-0.5428,-0.5428,-0.5428,-0.5428,-0.5428,-0.5363,-0.5332,-0.5332,-0.5329,-0.5225,-0.5087,-0.5094,-0.4925,-0.4722,-0.4717,-0.4743,-0.4671,-0.4538,-0.4469,-0.4469,-0.4469,-0.4469,-0.4469,-0.4469,-0.4258,-0.3839,-0.3839,-0.3599,-0.3217,-0.2804,-0.2644,-0.2614,-0.2213,-0.1879,-0.1544,-0.121,-0.0875,-0.047,0.0,0.0132,0.0197,0.0324,0.0383,0.0442,0.0631,0.0617,0.0598,0.0579,0.0567,0.0617,0.0785,0.0785,0.0842,0.0898,0.0898,0.0898,0.0898,0.0898,0.0898,0.0898,0.0898,0.0898,0.0898,0.1177,0.1734,0.2734,0.3347,0.3904,0.468,0.4794,0.5018,0.5297,0.5297,0.5297,0.5297,0.5297,0.5297,0.5297,0.5297,0.5297,0.5297,0.5297,0.5297,0.5297,0.5297,0.5297,0.5297,0.5297,0.5297,0.5297,0.5297,0.5297,0.5352,0.5778,0.5996,0.6159,0.6966,0.7337,0.7444,-0.5491,-0.5428,-0.5428,-0.5428,-0.5428,-0.5428,-0.5428,-0.5428,-0.5428,-0.5428,-0.5428,-0.5428,-0.5428,-0.5452,-0.5466,-0.5466,-0.5423,-0.5437,-0.5437,-0.5437,-0.5437,-0.5437,-0.5349,-0.5272,-0.5272,-0.517,-0.5118,-0.5094,-0.5011,-0.4856,-0.4717,-0.4822,-0.4798,-0.4726,-0.4726,-0.4726,-0.4726,-0.4726,-0.4581,-0.4506,-0.4506,-0.3926,-0.3199,-0.3199,-0.2725,-0.2112,-0.1972,-0.1873,-0.1768,-0.1761,-0.1353,-0.088,-0.0943,-0.0471,0.0067,0.027,0.0337,0.0337,0.0539,0.053,0.0586,0.0781,0.0827,0.0804,0.0783,0.0759,0.0799,0.0913,0.0909,0.0905,0.0905,0.0901,0.0898,0.0898,0.0898,0.0898,0.0898,0.1009,0.1065,0.1065,0.1679,0.2625,0.3898,0.4233,0.4625,0.5242,0.5297,0.5297,0.5297,0.5297,0.5297,0.5297,0.5297,0.5297,0.5297,0.5297,0.5297,0.5297,0.5297,0.5297,0.5297,0.5297,0.5297,0.5297,0.5297,0.5297,0.5297,0.5352,0.5407,0.5567,0.6204,0.6583,0.6853,0.7557,0.7984,0.8243,-0.5428,-0.5428,-0.5428,-0.5428,-0.5428,-0.5428,-0.5428,-0.5428,-0.5428,-0.5428,-0.5428,-0.5428,-0.5428,-0.5481,-0.5559,-0.5559,-0.5671,-0.5742,-0.5742,-0.5603,-0.5464,-0.5464,-0.5334,-0.5197,-0.5197,-0.5006,-0.4928,-0.4893,-0.4911,-0.4847,-0.4701,-0.4718,-0.4726,-0.4726,-0.4726,-0.4726,-0.4726,-0.4726,-0.4287,-0.3561,-0.3561,-0.3054,-0.2254,-0.2254,-0.2178,-0.2026,-0.1449,-0.0795,-0.0287,-0.0281,-0.0209,-0.0139,-0.0136,0.0067,0.027,0.027,0.0404,0.0539,0.0674,0.074,0.0804,0.1003,0.1048,0.0962,0.0959,0.0936,0.0976,0.0976,0.0955,0.0878,0.0878,0.0915,0.0898,0.0898,0.0898,0.0898,0.0898,0.1344,0.1679,0.1679,0.2792,0.3683,0.4122,0.468,0.5073,0.5297,0.5297,0.5297,0.5297,0.5297,0.5297,0.5297,0.5297,0.5297,0.5297,0.5297,0.5297,0.5297,0.5297,0.5297,0.5297,0.5297,0.5297,0.5297,0.5297,0.5297,0.5301,0.5513,0.5832,0.6253,0.6475,0.6907,0.7492,0.8196,0.883,0.9406,-0.5428,-0.5428,-0.5428,-0.5428,-0.5428,-0.5428,-0.5428,-0.5428,-0.5428,-0.5428,-0.5437,-0.5491,-0.5491,-0.562,-0.5708,-0.5708,-0.5698,-0.5663,-0.5663,-0.5444,-0.5303,-0.5303,-0.4708,-0.4446,-0.4446,-0.3834,-0.3561,-0.3561,-0.3964,-0.3863,-0.3344,-0.3464,-0.3485,-0.3485,-0.3485,-0.3485,-0.3485,-0.3485,-0.3258,-0.2879,-0.2879,-0.2425,-0.1669,-0.1669,-0.1354,-0.0891,-0.0586,-0.0291,0.0,0.0,0.0072,0.0143,0.0141,0.0282,0.0492,0.0623,0.0689,0.0755,0.0947,0.0942,0.101,0.1076,0.1066,0.1057,0.1057,0.1046,0.1028,0.0995,0.0977,0.0969,0.0969,0.0943,0.0928,0.0945,0.0934,0.1044,0.1535,0.1688,0.2056,0.2856,0.3569,0.4181,0.468,0.5018,0.5242,0.5297,0.5297,0.5297,0.5297,0.5297,0.5297,0.5297,0.5297,0.5297,0.5297,0.5297,0.5297,0.5297,0.5297,0.5297,0.5297,0.5297,0.5297,0.5301,0.5407,0.5458,0.5458,0.5626,0.5841,0.6105,0.6588,0.7385,0.829,0.8928,0.9354,0.9614]},{"header":{"parameterUnit":"m.s-1","parameterCategory":1,"la1":30.6,"la2":28.766,"lo1":-90.7593,"lo2":-88.6598,"dy":0.0162,"dx":0.0183,"nx":116,"ny":114,"refTime":"2024-06-10T18:00:00:Z","depth":0,"parameterNumber":3,"parameterNumberName":"V-component_of_WINDS"},"data":[0.0,0.0,0.0,0.0,0.0,0.0,0.0,0.0,0.0,0.0,0.0,0.0,0.0,0.0,0.0,0.0,0.0,0.0,0.0,0.0,0.0,0.0,0.0,0.0,0.0,0.0,0.0,0.0,0.0,0.0,0.0,0.0,0.0,0.0,0.0,0.0,0.0,0.0,0.0,0.0,0.0,0.0,0.0,0.0,0.0,0.0,0.0,0.0,0.0,0.0,0.0,0.0,0.0,0.0,0.0,0.0,0.0,0.0,0.0,0.0,0.0,0.0,0.0,0.0,0.0,0.0,0.0,0.0,0.0,0.0,0.0,0.0,0.0,0.0,0.0,0.0,0.0,0.0,0.0,0.0,0.0,0.0,0.0,0.0,0.0,0.0,0.0,0.0,0.0,0.0,0.0,0.0,0.0,0.0,0.0,0.0,0.0,0.0,0.0,0.0,0.0,0.0,0.0,0.0,0.0,0.0,0.0,0.0,0.0,0.0,0.0,0.0,0.0,0.0,0.0,0.0,0.0,0.0,0.0,0.0,0.0,0.0,0.0,0.0,0.0,0.0,0.0,0.0,0.0,0.0,0.0,0.0,0.0,0.0,0.0,0.0,0.0,0.0,0.0,0.0,0.0,0.0,0.0,0.0,0.0,0.0,0.0,0.0,0.0,0.0,0.0,0.0,0.0,0.0,0.0,0.0,0.0,0.0,0.0,0.0,0.0,0.0,0.0,0.0,0.0,0.0,0.0,0.0,0.0,0.0,0.0,0.0,0.0,0.0,0.0,0.0,0.0,0.0,0.0,0.0,0.0,0.0,0.0,0.0,0.0,0.0,0.0,0.0,0.0,0.0,0.0,0.0,0.0,0.0,0.0,0.0,0.0,0.0,0.0,0.0,0.0,0.0,0.0,0.0,0.0,0.0,0.0,0.0,0.0,0.0,0.0,0.0,0.0,0.0,0.0,0.0,0.0,0.0,0.0,0.0,0.0,0.0,0.0,0.0,0.0,0.0,0.0,0.0,0.0,0.0,0.0,0.0,0.0,0.0,0.0,0.0,0.0,0.0,0.0,0.0,0.0,0.0,0.0,0.0,0.0,0.0,0.0,0.0,0.0,0.0,0.0,0.0,0.0,0.0,0.0,0.0,0.0,0.0,0.0,0.0,0.0,0.0,0.0,0.0,0.0,0.0,0.0,0.0,0.0,0.0,0.0,0.0,0.0,0.0,0.0,0.0,0.0,0.0,0.0,0.0,0.0,0.0,0.0,0.0,0.0,0.0,0.0,0.0,0.0,0.0,0.0,0.0,0.0,0.0,0.0,0.0,0.0,0.0,0.0,0.0,0.0,0.0,0.0,0.0,0.0,0.0,0.0,0.0,0.0,0.0,0.0,0.0,0.0,0.0,0.0,0.0,0.0,0.0,0.0,0.0,0.0,0.0,0.0,0.0,0.0,0.0,0.0,0.0,0.0,0.0,0.0,0.0,0.0,0.0,0.0,0.0,0.0,0.0,0.0,0.0,0.0,0.0,0.0,0.0,0.0,0.0,0.0,0.0,0.0,0.0,0.0,0.0,0.0,0.0,0.0,0.0,0.0,0.0,0.0,0.0,0.0,0.0,0.0,0.0,0.0,0.0,0.0,0.0,0.0,0.0,0.0,0.0,0.0,0.0,0.0,0.0,0.0,0.0,0.0,0.0,0.0,0.0,0.0,0.0,0.0,0.0,0.0,0.0,0.0,0.0,0.0,0.0,0.0,0.0,0.0,0.0,0.0,0.0,0.0,0.0,0.0,0.0,0.0,0.0,0.0,0.0,0.0,0.0,0.0,0.0,0.0,0.0,0.0,0.0,0.0,0.0,0.0,0.0,0.0,0.0,0.0,0.0,0.0,0.0,0.0,0.0,0.0,0.0,0.0,0.0,0.0,0.0,0.0,0.0,0.0,0.0,0.0,0.0,0.0,0.0,0.0,0.0,0.0,0.0,0.0,0.0,0.0,0.0,0.0,0.0,0.0,0.0,0.0,0.0,0.0,0.0,0.0,0.0,0.0,0.0,0.0,0.0,0.0,0.0,0.0,0.0,0.0,0.0,0.0,0.0,0.0,0.0,0.0,0.0,0.0,0.0,0.0,0.0,0.0,0.0,0.0,0.0,0.0,0.0,0.0,0.0,0.0,0.0,0.0,0.0,0.0,0.0,0.0,0.0,0.0,0.0,0.0,0.0,0.0,0.0,0.0,0.0,0.0,0.0,0.0,0.0,0.0,0.0,0.0,0.0,0.0,0.0,0.0,0.0,0.0,0.0,0.0,0.0,0.0,0.0,0.0,0.0,0.0,0.0,0.0,0.0,0.0,0.0,0.0,0.0,0.0,0.0,0.0,0.0,0.0,0.0,0.0,0.0,0.0,0.0,0.0,0.0,0.0,0.0,0.0,0.0,0.0,0.0,0.0,0.0,0.0,0.0,0.0,0.0,0.0,0.0,0.0,0.0,0.0,0.0,0.0,0.0,0.0,0.0,0.0,0.0,0.0,0.0,0.0,0.0,0.0,0.0,0.0,0.0,0.0,0.0,0.0,0.0,0.0,0.0,0.0,0.0,0.0,0.0,0.0,0.0,0.0,0.0,0.0,0.0,0.0,0.0,0.0,0.0,0.0,0.0,0.0,0.0,0.0,0.0,0.0,0.0,0.0,0.0,0.0,0.0,0.0,0.0,0.0,0.0,0.0,0.0,0.0,0.0,0.0,0.0,0.0,0.0,0.0,0.0,0.0,0.0,0.0,0.0,0.0,0.0,0.0,0.0,0.0,0.0,0.0,0.0,0.0,0.0,0.0,0.0,0.0,0.0,0.0,0.0,0.0,0.0,0.0,0.0,0.0,0.0,0.0,0.0,0.0,0.0,0.0,0.0,0.0,0.0,0.0,0.0,0.0,0.0,0.0,0.0,0.0,0.0,0.0,0.0,0.0,0.0,0.0,0.0,0.0,0.0,0.0,0.0,0.0,0.0,0.0,0.0,0.0,0.0,0.0,0.0,0.0,0.0,0.0,0.0,0.0,0.0,0.0,0.0,0.0,0.0,0.0,0.0,0.0,0.0,0.0,0.0,0.0,0.0,0.0,0.0,0.0,0.0,0.0,0.0,0.0,0.0,0.0,0.0,0.0,0.0,0.0,0.0,0.0,0.0,0.0,0.0,0.0,0.0,0.0,0.0,0.0,0.0,0.0,0.0,0.0,0.0,0.0,0.0,0.0,0.0,0.0,0.0,0.0,0.0,0.0,0.0,0.0,0.0,0.0,0.0,0.0,0.0,0.0,0.0,0.0,0.0,0.0,0.0,0.0,0.0,0.0,0.0,0.0,0.0,0.0,0.0,0.0,0.0,0.0,0.0,0.0,0.0,0.0,0.0,0.0,0.0,0.0,0.0,0.0,0.0,0.0,0.0,0.0,0.0,0.0,0.0,0.0,0.0,0.0,0.0,0.0,0.0,0.0,0.0,0.0,0.0,0.0,0.0,0.0,0.0,0.0,0.0,0.0,0.0,0.0,0.0,0.0,0.0,0.0,0.0,0.0,0.0,0.0,0.0,0.0,0.0,0.0,0.0,0.0,0.0,0.0,0.0,0.0,0.0,0.0,0.0,0.0,0.0,0.0,0.0,0.0,0.0,0.0,0.0,0.0,0.0,0.0,0.0,0.0,0.0,0.0,0.0,0.0,0.0,0.0,0.0,0.0,0.0,0.0,0.0,0.0,0.0,0.0,0.0,0.0,0.0,0.0,0.0,0.0,0.0,0.0,0.0,0.0,0.0,0.0,0.0,0.0,0.0,0.0,0.0,0.0,0.0,0.0,0.0,0.0,0.0,0.0,0.0,0.0,0.0,0.0,0.0,0.0,0.0,0.0,0.0,0.0,0.0,0.0,0.0,0.0,0.0,0.0,0.0,0.0,0.0,0.0,0.0,0.0,0.0,0.0,0.0,0.0,0.0,0.0,0.0,0.0,0.0,0.0,0.0,0.0,0.0,0.0,0.0,0.0,0.0,0.0,0.0,0.0,0.0,0.0,0.0,0.0,0.0,0.0,0.0,0.0,0.0,0.0,0.0,0.0,0.0,0.0,0.0,0.0,0.0,0.0,0.0,0.0,0.0,0.0,0.0,0.0,0.0,0.0,0.0,0.0,0.0,0.0,0.0,0.0,0.0,0.0,0.0,0.0,0.0,0.0,0.0,0.0,0.0,0.0,0.0,0.0,0.0,0.0,0.0,0.0,0.0,0.0,0.0,0.0,0.0,0.0,0.0,0.0,0.0,0.0,0.0,0.0,0.0,0.0,0.0,0.0,0.0,0.0,0.0,0.0,0.0,0.0,0.0,0.0,0.0,0.0,0.0,0.0,0.0,0.0,0.0,0.0,0.0,0.0,0.0,0.0,0.0,0.0,0.0,0.0,0.0,0.0,0.0,0.0,0.0,0.0,0.0,0.0,0.0,0.0,0.0,0.0,0.0,0.0,0.0,0.0,0.0,0.0,0.0,0.0,0.0,0.0,0.0,0.0,0.0,0.0,0.0,0.0,0.0,0.0,0.0,0.0,0.0,0.0,0.0,0.0,0.0,0.0,0.0,0.0,0.0,0.0,0.0,0.0,0.0,0.0,0.0,0.0,0.0,0.0,0.0,0.0,0.0,0.0,0.0,0.0,0.0,0.0,0.0,0.0,0.0,0.0,0.0,0.0,0.0,0.0,0.0,0.0,0.0,0.0,0.0,0.0,0.0,0.0,0.0,0.0,0.0,0.0,0.0,0.0,0.0,0.0,0.0,0.0,0.0,0.0,0.0,0.0,0.0,0.0,0.0,0.0,0.0,0.0,0.0,0.0,0.0,0.0,0.0,0.0,0.0,0.0,0.0,0.0,0.0,0.0,0.0,0.0,0.0,0.0,0.0,0.0,0.0,0.0,0.0,0.0,0.0,0.0,0.0,0.0,0.0,0.0,0.0,0.0,0.0,0.0,0.0,0.0,0.0,0.0,0.0,0.0,0.0,0.0,0.0,0.0,0.0,0.0,0.0,0.0,0.0,0.0,0.0,0.0,0.0,0.0,0.0,0.0,0.0,0.0,0.0,0.0,0.0,0.0,0.0,0.0,0.0,0.0,0.0,0.0,0.0,0.0,0.0,0.0,0.0,0.0,0.0,0.0,0.0,0.0,0.0,0.0,0.0,0.0,0.0,0.0,0.0,0.0,0.0,0.0,0.0,0.0,0.0,0.0,0.0,0.0,0.0,0.0,0.0,0.0,0.0,0.0,0.0,0.0,0.0,0.0,0.0,0.0,0.0,0.0,0.0,0.0,0.0,0.0,0.0,0.0,0.0,0.0,0.0,0.0,0.0,0.0,0.0,0.0,0.0,0.0,0.0,0.0,0.0,0.0,0.0,0.0,0.0,0.0,0.0,0.0,0.0,0.0,0.0,0.0,0.0,0.0,0.0,0.0,0.0,0.0,0.0,0.0,0.0,0.0,0.0,0.0,0.0,0.0,0.0,0.0,0.0,0.0,0.0,0.0,0.0,0.0,0.0,0.0,0.0,0.0,0.0,0.0,0.0,0.0,0.0,0.0,0.0,0.0,0.0,0.0,0.0,0.0,0.0,0.0,0.0,0.0,0.0,0.0,0.0,0.0,0.0,0.0,0.0,0.0,0.0,0.0,0.0,0.0,0.0,0.0,0.0,0.0,0.0,0.0,0.0,0.0,0.0,0.0,0.0,0.0,0.0,0.0,0.0,0.0,0.0,0.0,0.0,0.0,0.0,0.0,0.0,0.0,0.0,0.0,0.0,0.0,0.0,0.0,0.0,0.0,0.0,0.0,0.0,0.0,0.0,0.0,0.0,0.0,0.0,0.0,0.0,0.0,0.0,0.0,0.0,0.0,0.0,0.0,0.0,0.0,0.0,0.0,0.0,0.0,0.0,0.0,0.0,0.0,0.0,0.0,0.0,0.0,0.0,0.0,0.0,0.0,0.0,0.0,0.0,0.0,0.0,0.0,0.0,0.0,0.0,0.0,0.0,0.0,0.0,0.0,0.0,0.0,0.0,0.0,0.0,0.0,0.0,0.0,0.0,0.0,0.0,0.0,0.0,0.0,0.0,0.0,0.0,-1.3831,0.0,0.0,0.0,0.0,0.0,0.0,0.0,0.0,0.0,0.0,0.0,0.0,0.0,0.0,0.0,0.0,0.0,0.0,0.0,0.0,0.0,0.0,0.0,0.0,0.9979,1.0005,1.0049,0.9997,0.9944,0.99,0.0,0.0,0.0,0.0,0.0,0.9259,0.9189,0.9308,0.9582,0.9617,1.0198,1.1274,1.108,1.0802,1.0466,0.0,0.0,0.0,0.0,0.0,0.0,0.0,0.0,0.0,0.0,0.0,0.0,0.0,0.0,0.0,0.0,0.0,0.0,0.0,0.0,0.0,0.0,0.0,0.0,0.0,0.0,0.0,0.0,0.0,0.0,0.0,0.0,0.0,0.0,0.0,0.0,0.0,0.0,0.0,0.0,0.0,0.0,0.0,0.0,0.0,0.0,0.0,0.0,0.0,0.0,0.0,0.0,0.0,0.0,0.0,0.0,0.0,0.0,0.0,0.0,0.0,0.0,0.0,0.0,0.0,0.0,0.0,0.0,0.0,0.0,0.0,-1.5037,0.0,0.0,0.0,0.0,0.0,0.0,0.0,0.0,0.0,0.0,0.0,0.0,0.0,0.0,0.0,0.0,0.0,0.0,0.0,0.0,0.0,1.0061,1.0178,1.0195,1.0271,1.0425,1.0157,0.9961,0.9913,0.9577,0.0,0.0,0.0,0.897,0.8836,0.8895,0.9182,0.9642,1.0169,1.1063,1.2239,1.2736,1.2702,1.2189,1.1758,0.0,0.0,0.0,0.0,0.0,0.0,0.0,0.0,0.0,0.0,0.0,0.0,0.0,0.0,0.0,0.0,0.0,0.0,0.0,0.0,0.0,0.0,0.0,0.0,0.0,0.0,0.0,0.0,0.0,0.0,0.0,0.0,0.0,0.0,0.0,0.0,0.0,0.0,0.0,0.0,0.0,0.0,0.0,0.0,0.0,0.0,0.0,0.0,0.0,0.0,0.0,0.0,0.0,0.0,0.0,0.0,0.0,0.0,0.0,0.0,0.0,0.0,0.0,-1.9953,-2.0079,-2.0887,-2.037,-2.0559,-2.1113,-1.7851,-1.7572,-1.9176,0.0,0.0,0.0,0.0,0.0,0.0,0.0,0.0,0.0,0.0,0.0,0.0,0.0,0.0,0.0,0.0,0.0,0.0,0.0,0.0,1.0311,1.0889,1.1007,1.1239,1.1702,1.1087,1.0568,1.0339,0.9419,0.0,0.0,0.8483,0.833,0.8135,0.8529,0.8835,0.9019,1.0923,1.2432,1.3544,1.4151,1.4658,1.4984,1.3348,1.2739,1.2838,0.0,0.0,0.0,0.0,0.0,0.0,0.0,0.0,0.0,0.0,0.0,0.0,0.0,0.0,0.0,0.0,0.0,0.0,0.0,0.0,0.0,0.0,0.0,0.0,0.0,0.0,0.0,0.0,0.0,0.0,0.0,0.0,0.0,0.0,0.0,0.0,0.0,0.0,0.0,0.0,0.0,1.1169,1.0126,0.0,0.0,0.0,0.0,0.0,0.0,0.0,0.0,0.0,0.0,0.0,0.0,0.0,-1.6969,-1.8472,-1.8761,-1.9178,-1.969,-2.0262,-2.0658,-2.0909,-2.1574,-2.194,-2.202,-2.1569,0.0,-2.0867,-1.9088,0.0,0.0,0.0,0.0,0.0,0.0,0.0,0.0,0.0,0.0,0.0,0.0,0.0,0.0,0.0,0.0,0.0,0.0,0.0,0.0,0.0,1.1286,1.1797,1.244,1.2359,1.1809,1.0746,1.0062,0.9216,0.8153,0.7971,0.803,0.8271,0.8735,0.9787,1.1414,1.3015,1.4272,1.5207,1.5533,1.6031,1.659,1.5529,1.449,1.3435,1.233,0.0,0.0,0.0,0.0,0.0,0.0,0.0,0.0,0.0,0.0,0.0,0.0,0.0,0.0,0.0,0.0,0.0,0.0,0.0,0.0,0.0,0.0,0.0,0.0,0.0,0.0,0.0,0.0,0.0,0.0,0.0,0.0,0.0,0.0,0.0,0.0,0.0,0.0,0.0,0.8255,0.8865,0.8094,0.5482,0.2991,0.0,0.0,0.0,0.0,0.0,0.0,0.0,0.0,0.0,-1.4993,-1.5669,-1.6829,-1.8591,-1.8995,-1.9548,-2.034,-2.094,-2.1339,-2.1596,-2.2153,-2.2603,-2.2887,-2.3191,-2.3297,-2.3106,-2.1115,-2.016,-1.9821,0.0,0.0,0.0,0.0,-1.9101,-1.9568,0.0,0.0,0.0,0.0,0.0,0.0,0.0,0.0,0.0,0.0,0.0,0.0,1.0886,1.1593,1.2353,1.327,1.319,1.2523,1.1156,1.0319,0.9246,0.7851,0.7528,0.7647,0.8223,0.9137,1.0865,1.3403,1.4382,1.5324,1.6222,1.6318,1.6681,1.7284,1.6874,1.5931,1.4633,1.3718,1.253,1.1144,0.0,0.0,0.0,0.0,0.0,0.0,0.0,0.0,0.0,0.0,0.0,0.0,0.0,0.0,0.0,0.0,0.0,0.0,0.0,0.0,0.0,0.0,0.0,0.0,0.0,0.0,0.0,0.0,0.0,0.0,0.0,0.0,0.0,0.0,0.0,0.0,0.0,0.6835,0.7283,0.6535,0.3611,0.0951,0.0,0.0,0.0,0.0,0.0,0.0,-1.1688,-1.2589,-1.3621,-1.4948,-1.595,-1.7128,-1.854,-1.9224,-1.9829,-2.0407,-2.107,-2.1456,-2.1532,-2.2033,-2.2461,-2.2888,-2.341,-2.3861,-2.412,-2.2545,-2.2014,-2.2094,-2.1235,-2.0919,-2.1053,-2.1756,-2.2112,-2.2449,0.0,0.0,0.0,0.0,0.0,0.0,0.0,0.0,0.0,0.0,0.0,1.008,1.1318,1.2123,1.3083,1.4401,1.3122,1.2073,0.0,0.9575,0.8215,0.7819,0.7127,0.7009,0.7535,0.9627,1.1602,1.3403,1.3957,1.4851,1.6033,1.6019,1.6355,1.6928,1.6586,1.6864,1.7469,1.5591,1.4415,1.358,1.0855,0.0,0.0,0.0,0.0,0.0,0.0,0.0,0.0,0.0,0.0,0.0,0.0,0.0,0.0,0.0,0.0,0.0,0.0,0.0,0.0,0.0,0.0,0.0,0.0,0.0,0.0,0.0,0.0,0.0,0.0,0.0,0.0,0.0,0.0,0.0,0.0,0.0,0.0,0.624,0.578,0.0,0.0,0.0,0.0,-0.7874,-0.8917,-1.0351,-1.2533,-1.3454,-1.4499,-1.57,-1.7178,-1.802,-1.813,-1.9615,-1.9782,-1.8754,-2.0167,-2.0538,-1.9962,-2.0876,-2.1302,-2.1345,-2.2085,-2.2511,-2.2764,-2.3266,-2.3611,-2.3708,-2.2822,-2.2593,-2.2766,-2.2817,-2.332,-2.3997,0.0,0.0,0.0,0.0,0.0,0.7899,0.8204,0.812,0.7982,0.7903,0.8877,0.9932,1.0826,1.2215,1.3513,1.446,1.4283,1.346,1.1899,1.0459,0.9228,0.8284,0.7472,0.7853,0.9661,1.0931,1.2424,1.4089,1.4281,1.4819,1.5617,1.5401,1.5497,1.5928,1.5893,1.6201,1.6663,1.5736,1.4789,1.372,1.1994,1.0354,0.0,0.0,0.0,0.0,0.0,0.0,0.0,0.0,0.0,0.0,0.0,0.0,0.0,0.0,0.0,0.0,0.0,0.0,0.0,0.0,0.0,0.0,0.0,0.0,0.0,0.0,0.0,0.0,0.0,0.0,0.0,0.0,0.0,0.0,0.0,0.0,0.0,0.3299,0.2668,0.0,-0.1682,-0.2947,-0.4824,-0.7764,-0.7565,-0.8321,-1.0584,-1.0979,-1.1873,-1.3362,-1.4742,-1.5797,-1.6482,-1.7752,-1.8275,-1.8026,-1.8493,-1.8841,-1.909,-1.9647,-2.0164,-2.0639,-2.1168,-2.1578,-2.1885,-2.2544,-2.3345,-2.4129,-2.3823,-2.3831,-2.4067,-2.4107,-2.4303,-2.4572,0.0,0.0,0.0,0.0,0.6768,0.6914,0.7182,0.7155,0.7107,0.7123,0.8466,0.9647,1.0253,1.199,1.3319,1.3924,1.3878,1.3174,1.1589,1.0391,0.928,0.8314,0.7987,0.8764,1.0727,1.176,1.2913,1.4218,1.4192,1.4384,1.4733,1.4367,1.4367,1.4744,1.4835,1.5297,1.5898,1.5634,1.5117,1.4391,1.3123,1.1769,1.0354,0.0,0.0,0.0,0.0,0.0,0.0,0.0,0.0,0.0,0.0,0.0,0.0,0.0,0.0,0.0,0.0,0.0,0.0,0.0,0.0,0.0,0.0,0.0,0.0,0.0,0.0,0.0,0.0,0.0,0.0,0.0,0.0,0.0,0.0,0.0,0.2887,0.1685,0.1097,-0.0051,-0.223,-0.3195,-0.4561,-0.6692,-0.6813,-0.7663,-0.9749,-1.0379,-1.151,-1.3186,-1.441,-1.5352,-1.5938,-1.7207,-1.7664,-1.732,-1.7604,-1.7909,-1.8198,-1.844,-1.8801,-1.9286,-1.9794,-2.0137,-2.0432,-2.1282,-2.2289,-2.3307,-2.3895,-2.4245,-2.4452,-2.4471,-2.4554,-2.4674,0.0,0.0,0.0,0.4402,0.5235,0.5846,0.5864,0.5884,0.5947,0.617,0.7884,0.9243,0.9724,1.1357,1.2567,1.2815,1.1817,1.1033,1.0681,0.9217,0.8214,0.7843,0.867,0.9584,1.0496,1.1972,1.3001,1.3552,1.3445,1.3443,1.3406,1.2898,1.2946,1.3443,1.3443,1.4239,1.5499,1.5421,1.5553,1.5661,1.4278,1.3583,1.3058,0.0,0.0,0.0,0.0,0.0,0.0,0.0,0.0,0.0,0.0,0.0,0.0,0.0,0.0,0.0,0.0,0.0,0.0,0.0,0.0,0.0,0.0,0.0,0.0,0.0,0.0,0.0,0.0,0.0,0.0,0.0,0.0,0.0,0.2391,0.2859,0.2885,0.1846,0.1542,0.0875,-0.0589,-0.2557,-0.3985,-0.4612,-0.6788,-0.8707,-1.0208,-1.1889,-1.3564,-1.5324,-1.6414,-1.683,-1.6578,-1.8034,-1.8054,-1.6652,-1.7581,-1.7735,-1.7199,-1.7199,-1.7199,-1.7227,-1.7903,-1.8236,-1.8456,-1.9602,-2.0511,-2.1312,-2.2988,-2.3733,-2.3858,-2.3877,-2.4063,-2.4315,0.0,0.0,0.3494,0.4036,0.4199,0.4497,0.5269,0.5355,0.5471,0.5917,0.7424,0.8563,0.8895,1.0341,1.1431,1.1771,1.0963,1.0332,1.0144,0.8616,0.792,0.8281,0.927,1.0233,1.1126,1.1177,1.1396,1.1874,1.1828,1.1832,1.1832,1.1674,1.1674,1.1882,1.2657,1.3226,1.3643,1.4982,1.5596,1.5549,1.4588,1.3468,1.2278,0.0,0.0,0.0,0.0,0.0,0.0,0.0,0.0,0.0,0.0,0.0,0.0,0.0,0.0,0.0,0.0,0.0,0.0,0.0,0.0,0.0,0.0,0.0,0.0,0.0,0.0,0.0,0.0,0.0,0.0,0.0,0.0,0.2954,0.2649,0.2678,0.2452,0.1722,0.0722,-0.0345,-0.1597,-0.2918,-0.4439,-0.6302,-0.7126,-0.8249,-0.9701,-1.028,-1.0962,-1.2026,-1.3271,-1.4443,-1.5659,-1.586,-1.6339,-1.7171,-1.6344,-1.621,-1.6693,-1.6693,-1.6863,-1.7199,-1.7394,-1.7733,-1.8171,-1.8972,-1.9677,-2.0391,-2.1776,-2.2615,-2.3065,-2.3257,-2.3563,-2.3888,0.0,0.25,0.2847,0.3265,0.3508,0.384,0.4449,0.4609,0.4915,0.5529,0.6807,0.7769,0.8057,0.9317,1.0113,1.0149,0.9702,0.9234,0.8898,0.806,0.7912,0.8592,0.9553,1.0383,1.1057,1.0928,1.0978,1.12,1.0947,1.0854,1.0854,1.0643,1.0643,1.0905,1.1534,1.2178,1.2861,1.3971,1.4664,1.5005,1.4451,1.4068,1.3705,1.2653,1.1964,1.1431,1.0863,1.0514,1.0169,0.9538,0.0,0.0,0.0,0.0,0.0,0.0,0.0,0.0,0.0,0.0,0.0,0.0,0.0,0.0,0.0,0.0,0.0,0.0,0.0,0.0,0.0,0.0,0.0,0.0,0.3254,0.3032,0.2424,0.2217,0.1923,0.1354,0.0171,-0.1063,-0.2086,-0.3009,-0.4205,-0.5693,-0.6697,-0.7628,-0.8526,-0.9351,-1.0236,-1.1163,-1.1927,-1.2937,-1.4274,-1.458,-1.506,-1.5703,-1.5255,-1.5246,-1.5567,-1.58,-1.6064,0.0,-1.6509,-1.6837,-1.7201,-1.7839,-1.8412,0.0,0.0,0.0,0.0,0.0,-2.3478,-2.3845,0.0,0.1554,0.2172,0.2311,0.3019,0.3556,0.3549,0.382,0.4279,0.4986,0.6048,0.6877,0.7213,0.8276,0.8829,0.841,0.8297,0.805,0.0,0.7661,0.8119,0.8814,0.9558,1.0174,1.0575,1.0872,1.0998,1.0998,1.0549,1.03,1.019,0.9718,0.9769,1.0241,1.0293,1.1133,1.2521,1.2716,1.3341,1.4107,1.4071,1.4801,1.5807,1.4232,1.3721,1.3729,1.2294,1.134,1.0692,0.9966,0.0,0.0,0.0,0.0,0.0,0.0,0.0,0.0,0.0,0.0,0.0,0.0,0.0,0.0,0.0,0.0,0.0,0.0,0.0,0.0,0.0,0.0,0.0,0.0,0.3335,0.2972,0.1949,0.1635,0.1351,0.0835,-0.0289,-0.1372,-0.2207,-0.2983,-0.3596,-0.4084,-0.5796,-0.6976,-0.7246,0.0,0.0,0.0,0.0,-1.2057,-1.2956,-1.3855,-1.4,-1.3362,-1.4283,-1.4521,-1.4143,-1.4617,-1.4858,-1.496,-1.5412,-1.5768,-1.6032,-1.6582,-1.7131,-1.7894,-1.9951,-2.1006,-2.1509,-2.2731,-2.3414,-2.385,0.0,0.1289,0.1705,0.1945,0.2367,0.2783,0.322,0.3374,0.3649,0.425,0.5155,0.5894,0.6223,0.7122,0.7798,0.8053,0.7736,0.7384,0.7115,0.7924,0.8594,0.8934,0.9638,1.014,1.0436,1.0092,0.9917,0.9917,0.9821,0.951,0.9086,0.8981,0.8981,0.9138,0.954,1.0167,1.0939,1.2276,1.2909,1.315,1.392,1.4122,1.3884,1.377,1.3552,1.3279,1.3383,1.308,1.2498,1.1998,1.1146,1.02,0.9453,0.8501,0.0,0.0,0.0,0.0,0.0,0.0,0.0,0.0,0.0,0.0,0.0,0.0,0.0,0.0,0.0,0.0,0.0,0.0,0.0,0.364,0.3245,0.2717,0.19,0.1336,0.0835,0.0224,-0.059,-0.1407,-0.2093,-0.2976,-0.3936,-0.4945,-0.5804,-0.6732,-0.7782,-0.8436,-0.9268,-1.0332,-1.0332,-1.1279,-1.3263,-1.2705,-1.2889,-1.3854,0.0,0.0,-1.2994,-1.3137,-1.3385,-1.3841,-1.4354,-1.505,-1.5876,-1.6497,-1.7277,-1.8269,-1.942,-2.015,-2.0714,-2.1544,-2.2232,-2.2891,0.0446,0.1068,0.1576,0.1843,0.2176,0.2507,0.2805,0.2934,0.3215,0.3861,0.4309,0.4744,0.5303,0.5748,0.6098,0.6313,0.6449,0.0,0.7262,0.8054,0.8691,0.9167,0.963,0.9824,0.971,0.951,0.9197,0.8771,0.8935,0.8778,0.8349,0.8349,0.8349,0.8349,0.8967,0.9496,1.0064,1.1124,1.1733,1.208,1.2871,1.2944,1.2708,1.3478,1.3557,1.3244,1.3217,1.288,1.2365,1.1755,1.1028,1.0311,0.9724,0.8962,0.8092,0.0,0.0,0.0,0.0,0.0,0.0,0.0,0.0,0.0,0.0,0.0,0.0,0.0,0.0,0.4156,0.0,0.0,0.392,0.3568,0.2927,0.2237,0.1568,0.1121,0.0677,0.0057,-0.065,-0.134,-0.2012,-0.2783,-0.3638,-0.435,-0.4948,-0.5672,-0.6535,-0.7386,-0.8226,-0.9046,-0.9448,-1.0319,-1.1658,-1.1776,-1.2022,-1.2295,-1.242,-1.2253,-1.1963,-1.2404,-1.2748,-1.3066,-1.3701,-1.4268,-1.4806,-1.5787,-1.6642,-1.7439,-1.8582,-1.945,-2.0268,-2.1507,-2.2267,-2.2785,0.0067,0.0756,0.1377,0.1692,0.2,0.2267,0.2359,0.2485,0.2786,0.3435,0.3537,0.3774,0.4422,0.4575,0.4712,0.486,0.5457,0.6346,0.7575,0.8244,0.8829,0.9392,0.973,0.9629,0.9033,0.9152,0.8837,0.7984,0.8315,0.8256,0.7824,0.7824,0.7771,0.7771,0.8349,0.8922,0.9481,1.0131,1.0651,1.1099,1.1669,1.1819,1.181,1.2861,1.3246,1.3215,1.2586,1.2054,1.1558,1.0942,1.0335,0.9867,0.964,0.9205,0.8558,0.7611,0.6822,0.0,0.0,0.0,0.0,0.0,0.0,0.0,0.0,0.4209,0.4135,0.4455,0.4509,0.4542,0.4763,0.4284,0.3732,0.3219,0.2527,0.1809,0.119,0.0906,0.0573,0.0059,-0.0593,-0.1331,-0.2098,-0.2774,-0.3279,-0.3558,-0.4154,-0.4677,-0.5084,-0.633,-0.7372,-0.8146,-0.8742,-0.939,-1.0015,-1.0954,-1.1073,-1.0329,-1.1359,-1.1535,-1.091,-1.1705,-1.214,-1.2334,-1.319,-1.3622,-1.3782,-1.4883,-1.5593,-1.6165,-1.7265,-1.8289,-1.9356,-2.124,-2.2152,-2.257,0.0,0.0201,0.0672,0.1116,0.1424,0.1667,0.1847,0.1982,0.2166,0.2426,0.2972,0.3423,0.3682,0.4146,0.472,0.5446,0.6017,0.6729,0.7713,0.8676,0.9299,0.9588,1.0035,0.9836,0.9026,0.9249,0.9047,0.8368,0.8639,0.8321,0.7568,0.7568,0.7408,0.7187,0.7771,0.8349,0.8981,0.9984,1.0446,1.0549,1.1108,1.1242,1.1124,1.1141,1.185,1.2793,1.2128,1.1606,1.1203,1.0918,1.0204,0.9469,0.9587,0.9116,0.8455,0.7962,0.7135,0.6259,0.5712,0.5408,0.5398,0.5947,0.5382,0.4956,0.0,0.5358,0.4644,0.4535,0.4497,0.4341,0.3877,0.3611,0.3284,0.2676,0.2407,0.199,0.1289,0.0702,0.0295,0.0122,-0.0673,-0.1658,-0.2782,-0.3051,-0.3416,-0.3894,-0.4284,-0.4743,-0.5276,-0.5873,-0.6793,-0.7962,-0.8215,-0.8854,-1.0015,-1.0142,-0.992,-0.9363,-0.9833,-0.9946,-0.9679,-1.0137,-1.0794,-1.1575,-1.2633,-1.3329,-1.3729,-1.3879,-1.4228,-1.4745,-1.4998,-1.5834,-1.7146,-1.9436,-2.0635,-2.1217,0.0,0.0067,0.0494,0.0758,0.1025,0.1336,0.1736,0.1781,0.1891,0.2241,0.248,0.2695,0.2937,0.3272,0.3737,0.4379,0.537,0.6318,0.7234,0.8423,0.9283,0.963,0.9715,0.9517,0.8876,0.8666,0.8137,0.7402,0.7509,0.73,0.6712,0.6603,0.6554,0.6603,0.7337,0.7871,0.8349,0.9458,0.9925,0.9976,1.0498,1.0592,1.0399,1.0208,1.0573,1.1182,1.1149,1.0588,0.0,1.0034,0.9462,0.8665,0.8575,0.8244,0.7795,0.7213,0.6645,0.6145,0.5728,0.5507,0.5415,0.5836,0.5614,0.5404,0.5774,0.522,0.4566,0.4529,0.4239,0.3904,0.3624,0.3294,0.2905,0.0,0.2129,0.1638,0.1322,0.0931,0.047,0.0117,-0.0297,-0.1034,-0.2268,-0.2845,-0.3234,-0.3489,-0.3689,-0.3887,-0.4223,-0.4815,-0.547,-0.6125,-0.7107,-0.7887,-0.8339,-0.9046,-0.9163,-0.8733,-0.9087,-0.9177,-0.9066,-0.9399,-1.0133,-1.1076,-1.1838,-1.2295,-1.2505,-1.3226,-1.366,-1.3938,-1.4735,-1.5365,-1.6007,-1.7815,-1.8893,-1.9559,0.0,-0.0045,0.0314,0.047,0.0671,0.1027,0.1607,0.1582,0.1689,0.2158,0.211,0.2106,0.2355,0.2577,0.291,0.3409,0.4587,0.5724,0.6754,0.7996,0.8944,0.946,0.9416,0.9113,0.8508,0.8249,0.7664,0.681,0.6864,0.6707,0.6337,0.6009,0.5959,0.6232,0.7069,0.7599,0.7978,0.9138,0.9614,0.9614,1.0035,0.9974,0.9649,0.9475,0.9308,0.9291,0.9709,0.9278,0.8568,0.8798,0.8362,0.7645,0.7508,0.7311,0.7006,0.656,0.6178,0.588,0.5576,0.5405,0.5307,0.5529,0.5604,0.557,0.5461,0.4937,0.4381,0.4271,0.3793,0.3292,0.3128,0.2738,0.2462,0.2462,0.1915,0.1417,0.1315,0.0994,0.0589,0.0057,-0.0173,-0.0712,-0.1627,-0.2407,-0.2832,-0.2917,-0.3055,-0.3268,-0.3429,-0.3956,-0.4417,-0.4945,-0.6133,-0.692,-0.7251,-0.8196,-0.85,-0.8192,-0.8591,-0.8782,-0.8788,-0.9238,-0.9829,-1.0604,-1.1178,-1.1303,-1.1233,-1.2419,-1.283,-1.2761,-1.3835,-1.4368,-1.4653,-1.5662,-1.674,-1.7716,0.0,0.0,-0.0022,0.018,0.0337,0.0651,0.1299,0.1343,0.1474,0.1942,0.1894,0.1891,0.2084,0.2355,0.2679,0.3084,0.3997,0.5119,0.6525,0.7514,0.8319,0.8898,0.916,0.8802,0.7771,0.8309,0.8096,0.7085,0.7354,0.7192,0.6647,0.6218,0.6059,0.6232,0.6956,0.7534,0.7978,0.9138,0.9614,0.9614,0.9614,0.9322,0.8948,0.8856,0.8203,0.7335,0.7692,0.779,0.7755,0.7232,0.6752,0.639,0.6572,0.6417,0.6197,0.6334,0.6029,0.555,0.5385,0.5204,0.516,0.5446,0.5392,0.5295,0.5307,0.4901,0.4346,0.3738,0.3125,0.2571,0.1964,0.1853,0.1853,0.1853,0.1774,0.1644,0.1419,0.0845,0.0304,0.0059,-0.0514,-0.0908,0.0,-0.1697,-0.2186,-0.2248,-0.277,-0.3134,-0.3222,-0.3429,-0.4092,-0.5276,-0.5543,-0.6272,-0.7456,-0.7847,-0.7866,-0.7648,-0.8438,-0.8863,-0.8936,-0.9624,-1.0002,-1.0021,-1.0604,-1.0541,-1.0148,-1.1233,-1.1365,-1.0926,-1.149,-1.2097,-1.2565,-1.2618,-1.3895,-1.5666,0.0,0.0,0.0,-0.0202,0.0067,0.0382,0.0758,0.0936,0.1183,0.161,0.1826,0.0,0.0,0.0,0.0,0.0,0.3594,0.4446,0.5106,0.6448,0.7326,0.7633,0.7802,0.795,0.8031,0.7632,0.7402,0.7354,0.7085,0.6869,0.6701,0.6114,0.6009,0.6232,0.7069,0.7599,0.7978,0.9138,0.9614,0.9599,0.9402,0.9148,0.8841,0.8396,0.7781,0.7161,0.0,0.6663,0.6628,0.6903,0.6645,0.6236,0.6207,0.6021,0.5801,0.5644,0.5519,0.5437,0.5623,0.5653,0.5668,0.5894,0.5806,0.5608,0.5618,0.4736,0.3849,0.3627,0.2745,0.1965,0.1846,0.1764,0.1751,0.179,0.1718,0.1647,0.1598,0.1231,0.0935,0.083,0.0535,0.0,0.0,0.0,0.0,-0.1474,-0.2123,-0.254,-0.2547,-0.3023,-0.3493,-0.3889,-0.455,-0.5272,-0.6001,-0.6209,-0.6633,-0.7279,-0.7524,-0.7773,-0.8037,-0.8822,-0.9256,-0.9588,-1.0091,-1.0148,-1.0015,-1.0401,-1.0401,-1.0281,-1.0471,-1.0647,-1.0829,-1.0829,-1.1301,-1.2173,0.0,0.0,0.0,0.0,0.0,0.0,0.0,0.0,0.0,0.0,0.0,0.0,0.0,0.0,0.0,0.0,0.0,0.362,0.4081,0.5228,0.5972,0.6116,0.6383,0.6694,0.7056,0.654,0.6471,0.6861,0.6503,0.6339,0.631,0.5738,0.5637,0.6006,0.6816,0.7332,0.7698,0.8825,0.9177,0.9005,0.9023,0.8726,0.8276,0.7986,0.7475,0.0,0.6368,0.6004,0.5818,0.6178,0.6116,0.5855,0.5752,0.5757,0.5734,0.5428,0.5413,0.5566,0.5835,0.5859,0.5859,0.6067,0.59,0.5681,0.5458,0.4457,0.3558,0.3299,0.2431,0.1711,0.1729,0.17,0.1693,0.1755,0.1689,0.1687,0.1715,0.1552,0.1392,0.1267,0.116,0.1033,0.0,0.0,0.0,-0.0695,-0.1343,-0.1888,-0.221,-0.2619,-0.3023,-0.3493,-0.402,-0.455,-0.5143,-0.5305,-0.5965,-0.6944,-0.6944,-0.7199,-0.759,-0.8035,-0.849,-0.8888,-0.932,-0.9512,-0.9518,-0.9831,-0.9894,-0.9767,-0.9958,-1.0015,-1.0015,-1.0015,-1.0015,-1.0325,0.0,0.0,0.0,0.0,0.0,0.0,0.0,0.0,0.0,0.0,0.0,0.0,0.0,0.0,0.0,0.0,0.0,0.0,0.3482,0.3962,0.429,0.4426,0.493,0.5173,0.5029,0.525,0.5497,0.5687,0.5682,0.5664,0.5594,0.5144,0.5148,0.5609,0.6218,0.6696,0.7146,0.8207,0.8388,0.8031,0.8454,0.8123,0.7359,0.7709,0.721,0.6304,0.624,0.5833,0.5324,0.5081,0.5146,0.5326,0.5262,0.5568,0.5879,0.5678,0.5766,0.5906,0.5906,0.5817,0.5772,0.5955,0.5782,0.5454,0.4838,0.4116,0.3366,0.273,0.2124,0.168,0.1625,0.0,0.1635,0.1696,0.1641,0.1655,0.1714,0.1681,0.1534,0.0,0.0,0.0,0.0,0.0,0.0,0.0,0.0,-0.1238,-0.2009,-0.2147,-0.275,-0.3894,-0.3961,-0.4223,-0.4749,-0.5077,-0.5741,-0.6544,-0.6609,-0.6868,-0.7391,-0.7391,-0.7587,-0.7917,-0.8355,-0.849,-0.8447,-0.9384,-0.9576,-0.9204,-0.964,-0.9824,-0.9888,-0.9888,-0.9824,-1.0009,0.0,0.0,0.0,0.0,0.0,0.0,0.0,0.0,0.0,0.0,0.0,0.0,0.0,0.0,0.0,0.0,0.0,0.0,0.2392,0.3087,0.3502,0.3594,0.403,0.4557,0.5153,0.4993,0.5181,0.5755,0.5574,0.5565,0.5649,0.5368,0.5357,0.5609,0.6228,0.6568,0.6713,0.7767,0.7969,0.7652,0.783,0.7724,0.7405,0.7162,0.6894,0.6628,0.6314,0.6095,0.5898,0.5433,0.5552,0.5827,0.5792,0.5863,0.5948,0.5919,0.5903,0.5906,0.5906,0.5976,0.6108,0.6164,0.5782,0.5281,0.4952,0.3989,0.306,0.2664,0.2041,0.1579,0.1609,0.1616,0.1635,0.1696,0.1786,0.0,0.195,0.1861,0.0,0.1664,0.0,0.1489,0.1362,0.1284,0.0,0.0,0.0192,-0.0326,-0.0537,-0.1611,-0.2348,-0.2618,-0.3157,-0.3692,-0.4225,-0.4683,-0.4818,-0.4688,-0.5084,-0.5477,-0.587,-0.587,-0.6067,-0.6465,-0.6588,-0.6593,-0.6597,-0.6846,-0.7237,-0.7702,-0.7242,-0.7507,-0.8166,-0.8166,-0.7767,-0.7562,0.0,0.0,0.0,0.0,0.0,0.0,0.0,0.0,0.0,0.0,0.0,0.0,0.0,0.0,0.0,0.0,0.0,0.0,0.0,0.2422,0.2705,0.273,0.304,0.344,0.3987,0.3885,0.4169,0.4838,0.4731,0.4841,0.5137,0.4966,0.4947,0.511,0.5618,0.5924,0.6148,0.6877,0.7041,0.0,0.0,0.712,0.6909,0.6936,0.6881,0.6698,0.6445,0.6503,0.6591,0.6124,0.6167,0.6406,0.6496,0.6428,0.631,0.6289,0.6191,0.6048,0.6048,0.6138,0.6178,0.6178,0.5896,0.5425,0.4638,0.3865,0.3089,0.2249,0.1747,0.1511,0.1467,0.1523,0.1586,0.1621,0.0,0.0,0.1965,0.1989,0.1979,0.0,0.1798,0.0,0.1542,0.1452,0.1403,0.0,0.0787,0.033,0.0,-0.0805,-0.1543,-0.2147,-0.2551,-0.3023,-0.3627,-0.3956,-0.409,-0.4028,-0.4289,-0.4686,-0.5077,-0.5077,-0.5276,-0.5606,0.0,-0.5738,-0.587,-0.587,-0.6199,-0.6593,-0.6203,-0.6334,-0.6798,-0.6863,-0.6601,-0.6453,0.0,0.0,0.0,0.0,0.0,0.0,0.0,0.0,0.0,0.0,0.0,0.0,0.0,0.0,0.0,0.0,0.0,0.0,0.0,0.0,0.0,0.2029,0.2182,0.235,0.251,0.2631,0.2944,0.3506,0.3668,0.3914,0.4286,0.4323,0.4338,0.4399,0.4721,0.5098,0.5484,0.585,0.5961,0.595,0.6587,0.656,0.6268,0.0,0.0,0.6647,0.6647,0.6882,0.7141,0.6894,0.6929,0.7082,0.7204,0.7039,0.6783,0.6783,0.6506,0.6228,0.6232,0.6178,0.6178,0.6178,0.6064,0.5621,0.426,0.3783,0.3203,0.174,0.1463,0.1444,0.1337,0.1403,0.147,0.1533,0.0,0.1838,0.1955,0.2088,0.2085,0.1945,0.1951,0.1884,0.1681,0.1681,0.1547,0.1412,0.1277,0.0874,0.0202,0.0067,-0.0604,-0.2013,-0.2147,-0.2484,-0.3092,-0.3159,-0.3426,-0.3894,-0.3894,-0.4156,-0.4616,-0.4616,-0.4749,-0.5011,-0.5011,0.0,-0.5543,-0.5543,-0.5606,-0.5672,-0.5609,-0.5675,-0.5738,-0.5851,-0.5844,-0.5821,0.0,0.0,0.0,0.0,0.0,0.0,0.0,0.0,0.0,0.0,0.0156,0.0702,0.0,0.0,0.0,0.0,0.0,0.0,0.0,0.0,0.0,0.2093,0.2117,0.2317,0.2646,0.2569,0.268,0.3011,0.3251,0.3517,0.3737,0.3926,0.4086,0.4242,0.4233,0.4461,0.4807,0.5259,0.5596,0.5856,0.6256,0.6463,0.6607,0.0,0.0,0.0,0.6947,0.6786,0.6639,0.7167,0.7637,0.7947,0.7648,0.7453,0.7292,0.7079,0.6838,0.6544,0.6282,0.6178,0.6178,0.6178,0.5955,0.5404,0.4425,0.3692,0.291,0.1948,0.1535,0.1309,0.1284,0.135,0.1436,0.1583,0.171,0.1838,0.1955,0.2088,0.2086,0.0,0.2154,0.2154,0.2087,0.1951,0.0,0.0,0.0,0.1344,0.0941,0.0336,-0.0403,-0.1276,-0.1879,-0.2281,-0.235,-0.2956,-0.3226,-0.336,-0.336,-0.336,-0.3491,-0.3491,-0.3491,-0.3558,-0.3558,0.0,-0.3689,-0.3689,-0.4087,-0.4677,-0.4156,-0.4356,-0.4998,-0.4948,-0.4525,-0.4193,0.0,0.0,0.0,0.0,0.0,0.0,0.0,-0.1563,-0.1425,-0.1511,-0.1014,-0.0381,0.0372,0.0605,0.0,0.0,0.0,0.0,0.0,0.0,0.0,0.0,0.1852,0.1945,0.2109,0.2136,0.2307,0.2706,0.0,0.317,0.3535,0.3641,0.3729,0.3849,0.399,0.4237,0.4581,0.4935,0.5286,0.5622,0.6075,0.6321,0.0,0.0,0.0,0.0,0.6854,0.6834,0.6866,0.6875,0.7302,0.7791,0.7782,0.7635,0.7461,0.7192,0.6923,0.6652,0.6282,0.6178,0.6178,0.6178,0.6064,0.5599,0.4481,0.3798,0.3104,0.1918,0.1499,0.1287,0.1211,0.1288,0.1398,0.1423,0.1602,0.1744,0.1864,0.1932,0.2003,0.2161,0.2202,0.2221,0.2221,0.2087,0.2018,0.1884,0.0,0.1614,0.1345,0.0672,0.0067,-0.0269,-0.0939,-0.134,-0.134,-0.1609,-0.1879,-0.1949,-0.1949,-0.2016,-0.2083,-0.2083,-0.2083,-0.2083,-0.2083,0.0,-0.2686,-0.2686,-0.3153,-0.382,-0.3493,-0.3593,-0.3926,-0.4003,-0.3758,-0.3508,0.0,0.0,0.0,0.0,0.0,0.0,0.0,-0.1977,-0.1962,-0.2213,-0.2133,-0.1499,-0.0186,0.0,0.0306,0.0,0.0,0.0,0.0,0.0,0.0,0.0,0.0,0.1609,0.1609,0.0,0.0,0.2487,0.2603,0.0,0.0,0.0,0.0,0.0,0.3793,0.4113,0.4462,0.4762,0.5087,0.0,0.0,0.0,0.0,0.0,0.0,0.0,0.0,0.678,0.6936,0.6407,0.6613,0.7077,0.748,0.757,0.7435,0.7116,0.6881,0.6707,0.6282,0.6178,0.6178,0.6178,0.614,0.5797,0.4526,0.3941,0.3315,0.1965,0.1467,0.1269,0.1146,0.126,0.1345,0.1323,0.1447,0.1643,0.1778,0.1835,0.1913,0.211,0.2171,0.0,0.222,0.2221,0.0,0.0,0.0,0.0,0.1614,0.1076,0.0739,0.0739,0.0067,-0.0268,-0.0268,-0.0402,-0.0604,-0.0739,-0.0739,-0.0806,-0.094,-0.1002,-0.1066,-0.1065,-0.1125,0.0,0.0,-0.1929,-0.2203,-0.2686,-0.2671,-0.2692,-0.2634,-0.2793,-0.2925,-0.2913,0.0,0.0,0.0,0.0,0.0,0.0,0.0,-0.2361,-0.2447,-0.2476,-0.2614,-0.2384,-0.1596,-0.1115,-0.053,0.0,0.0,0.0,0.0,0.0,0.0,0.0,0.0,0.0,0.0,0.0,0.0,0.2412,0.2481,0.0,0.0,0.0,0.0,0.0,0.0,0.3914,0.4242,0.464,0.0,0.0,0.0,0.0,0.0,0.0,0.0,0.0,0.0,0.6291,0.6046,0.6082,0.5948,0.5847,0.638,0.7007,0.7479,0.6921,0.6918,0.6923,0.6337,0.6178,0.6178,0.6178,0.6081,0.5672,0.4703,0.4005,0.3289,0.2179,0.1606,0.128,0.1187,0.126,0.1308,0.1365,0.144,0.1594,0.1773,0.1801,0.1869,0.2106,0.0,0.0,0.2216,0.2221,0.0,0.0,0.0,0.0,0.1614,0.1547,0.148,0.148,0.0806,0.0403,0.0403,-0.0201,-0.0536,-0.0536,-0.0536,-0.0536,-0.0536,-0.0784,-0.0905,-0.0904,-0.1131,0.0,0.0,-0.1099,-0.105,-0.1005,-0.111,-0.1097,-0.1087,-0.121,-0.1538,-0.1999,0.0,0.0,0.0,0.0,0.0,0.0,-0.2652,-0.2568,-0.2635,-0.3171,-0.3181,-0.3004,-0.2642,-0.2187,-0.1432,0.0,0.0,0.0,0.0,0.0,0.0,0.0,0.0,0.0,0.0,0.0,0.0,0.2393,0.2455,0.0,0.0,0.0,0.0,0.0,0.0,0.0,0.4242,0.0,0.0,0.0,0.0,0.0,0.0,0.0,0.0,0.0,0.0,0.0,0.5887,0.5756,0.5559,0.5395,0.5614,0.6119,0.6636,0.6676,0.6783,0.6802,0.6568,0.6337,0.6178,0.6178,0.5908,0.5388,0.4653,0.3893,0.308,0.2376,0.1781,0.1367,0.1435,0.1348,0.1324,0.1328,0.1385,0.146,0.1617,0.1696,0.1796,0.1936,0.2081,0.0,0.0,0.0,0.2221,0.0,0.0,0.0,0.1904,0.1933,0.1951,0.1951,0.1681,0.1547,0.1547,0.1189,0.0982,0.0916,0.0835,0.0765,0.0638,0.0505,0.0689,0.1,0.0557,0.0,0.0,0.05,0.0377,0.0317,-0.0063,-0.0185,-0.0243,-0.0592,-0.0928,-0.1195,0.0,0.0,0.0,0.0,0.0,-0.2259,-0.2824,-0.2676,-0.275,-0.3414,-0.3482,-0.3399,-0.3269,-0.2796,-0.2083,-0.1106,0.0,0.0,0.0,0.0,0.0,0.0,0.0,0.0,0.0,0.0,0.0,0.2447,0.2422,0.2868,0.0,0.0,0.3464,0.0,0.0,0.0,0.0,0.0,0.0,0.0,0.0,0.0,0.0,0.0,0.0,0.0,0.0,0.0,0.0,0.0,0.0,0.5092,0.5092,0.5324,0.5715,0.631,0.6573,0.6676,0.6596,0.6445,0.6337,0.6232,0.576,0.5166,0.4642,0.3767,0.2964,0.2506,0.1989,0.1629,0.1709,0.1627,0.1553,0.1553,0.1569,0.1644,0.1732,0.1777,0.1838,0.1982,0.0,0.2358,0.0,0.2676,0.0,0.0,0.0,0.0,0.261,0.2659,0.2492,0.2165,0.2183,0.2185,0.2165,0.2121,0.1972,0.1844,0.1805,0.1727,0.1604,0.165,0.1944,0.2303,0.1866,0.0,0.0,0.1815,0.17,0.1768,0.1333,0.1193,0.1167,0.0695,0.0228,-0.0112,0.0,0.0,0.0,0.0,0.0,0.0,-0.2692,-0.2764,-0.2854,-0.2991,-0.3336,-0.3548,-0.3401,-0.2806,-0.2357,-0.228,0.0,0.0,0.0,0.0,0.0,0.0,0.0,0.0,0.0,0.0,0.0,0.2501,0.2382,0.2796,0.3794,0.3511,0.3429,0.0,0.0,0.0,0.0,0.0,0.0,0.0,0.0,0.0,0.0,0.0,0.0,0.0,0.0,0.0,0.0,0.0,0.0,0.0,0.0,0.4722,0.4774,0.5672,0.6276,0.6666,0.6365,0.6481,0.6598,0.6282,0.5657,0.5018,0.4614,0.3727,0.2887,0.2491,0.2221,0.2071,0.2021,0.2039,0.2103,0.2103,0.2095,0.2169,0.2341,0.217,0.2052,0.0,0.0,0.2891,0.3075,0.3825,0.0,0.0,0.0,0.0,0.3819,0.3814,0.3263,0.2036,0.2096,0.2099,0.1976,0.1973,0.1973,0.1973,0.1971,0.1971,0.2032,0.2324,0.2464,0.0,0.0,0.0,0.0,0.2696,0.2866,0.3488,0.3382,0.3338,0.3326,0.3159,0.2282,0.128,0.0,0.0,0.0,0.0,0.0,0.0,0.0,-0.2592,-0.2515,-0.3071,-0.313,-0.3257,-0.3585,-0.3173,-0.2789,-0.2576,0.0,0.0,0.0,0.0,0.0,0.0,0.0,0.0,0.0,0.0,0.0,0.262,0.2501,0.2982,0.4022,0.3765,0.3597,0.3471,0.4142,0.0,0.0,0.0,0.0,0.0,0.0,0.0,0.0,0.0,0.0,0.0,0.0,0.0,0.0,0.0,0.0,0.0,0.0,0.0,0.0,0.5268,0.5389,0.5344,0.5467,0.548,0.5401,0.4979,0.4578,0.4187,0.3762,0.3293,0.2854,0.2658,0.2476,0.2353,0.2331,0.2221,0.2131,0.2234,0.2498,0.2756,0.2946,0.3131,0.0,0.3434,0.3779,0.4018,0.0,0.0,0.0,0.0,0.0,0.0,0.3988,0.4065,0.3806,0.3258,0.3228,0.323,0.3261,0.3191,0.3155,0.3155,0.3087,0.3111,0.3111,0.319,0.3457,0.0,0.0,0.0,0.0,0.4079,0.4216,0.4713,0.4323,0.4135,0.4073,0.3638,0.3121,0.2672,0.0,0.0,0.0,0.0,0.0,0.0,0.0,-0.2637,-0.2453,-0.2909,-0.292,-0.3054,-0.346,-0.3192,-0.2912,-0.272,0.0,0.0,0.0,0.0,0.0,0.0,0.0,0.0,0.0,0.0,0.1385,0.2501,0.2445,0.2947,0.3924,0.3781,0.3652,0.3506,0.4136,0.0,0.0,0.0,0.0,0.0,0.0,0.0,0.0,0.0,0.0,0.0,0.0,0.0,0.0,0.0,0.0,0.0,0.0,0.0,0.0,0.0,0.469,0.4514,0.5096,0.5063,0.4866,0.4609,0.4223,0.3851,0.358,0.3231,0.2972,0.2912,0.2832,0.2725,0.2772,0.2687,0.2595,0.2747,0.3035,0.3343,0.0,0.0,0.0,0.4316,0.0,0.0,0.0,0.0,0.0,0.0,0.0,0.0,0.4773,0.48,0.4735,0.4562,0.4076,0.3781,0.3738,0.3721,0.3743,0.374,0.3772,0.3735,0.3735,0.4012,0.4291,0.0,0.0,0.0,0.0,0.5062,0.5277,0.6,0.5449,0.5226,0.5226,0.4563,0.4122,0.3843,0.0,0.0,0.0,0.0,0.0,0.0,0.0,-0.2813,-0.2592,-0.2605,-0.2788,-0.2985,-0.3167,-0.2973,-0.2771,-0.2698,0.0,0.0,0.0,0.0,0.0,0.0,0.0,0.0,0.0,0.0783,0.1272,0.2224,0.2258,0.2788,0.3697,0.3619,0.3584,0.3582,0.4109,0.0,0.0,0.0,0.0,0.0,0.0,0.0,0.0,0.0,0.0,0.0,0.0,0.0,0.0,0.0,0.0,0.0,0.0,0.0,0.0,0.0,0.0,0.0,0.0,0.5168,0.4862,0.4881,0.4416,0.389,0.3878,0.3475,0.0,0.327,0.322,0.3169,0.332,0.3345,0.3392,0.361,0.3681,0.0,0.0,0.4282,0.0,0.0,0.5152,0.0,0.0,0.0,0.0,0.0,0.0,0.0,0.5964,0.59,0.5905,0.5959,0.4812,0.402,0.3738,0.3907,0.3962,0.3962,0.4067,0.4119,0.4174,0.4732,0.4956,0.0,0.0,0.0,0.0,0.5651,0.6136,0.7235,0.6701,0.6539,0.6588,0.5941,0.534,0.4838,0.0,0.0,0.0,0.0,0.0,0.0,0.0,0.0,0.0,0.0,-0.2918,-0.3065,-0.3107,-0.3059,-0.2893,0.0,0.0,0.0,0.0,0.0,0.0,0.0,0.0,0.0,0.0,0.0664,0.1201,0.2343,0.2204,0.2695,0.3697,0.37,0.3493,0.3275,0.4157,0.0,0.0,0.0,0.0,0.0,0.0,0.0,0.0,0.0,0.0,0.0,0.5517,0.5405,0.0,0.0,0.0,0.0,0.0,0.0,0.0,0.0,0.4433,0.4251,0.4813,0.0,0.4288,0.3988,0.3962,0.3853,0.0,0.351,0.356,0.3198,0.3281,0.3458,0.3734,0.3621,0.3669,0.4123,0.4526,0.4811,0.5072,0.0,0.0,0.5887,0.6066,0.0,0.0,0.0,0.0,0.0,0.0,0.703,0.7396,0.7025,0.6923,0.7241,0.6954,0.6306,0.5293,0.5293,0.5348,0.5348,0.5348,0.5403,0.5403,0.5513,0.5572,0.0,0.0,0.0,0.6534,0.6367,0.674,0.7439,0.7283,0.7278,0.7278,0.7117,0.6686,0.615,0.0,0.0,0.0,0.0,0.0,0.0,0.0,0.0,0.0,0.0,0.0,0.0,0.0,0.0,0.0,0.0,0.0,0.0,0.0,0.0,0.0,0.0,0.0,0.0,0.0,0.0802,0.1378,0.2265,0.2352,0.2846,0.3697,0.366,0.3577,0.3457,0.422,0.0,0.0,0.0,0.0,0.0,0.0,0.0,0.0,0.0,0.0,0.0,0.5529,0.546,0.0,0.5232,0.5081,0.4953,0.0,0.0,0.0,0.0,0.4646,0.4511,0.4742,0.4493,0.4147,0.4064,0.4128,0.4112,0.383,0.3889,0.3966,0.3689,0.3757,0.3955,0.4182,0.413,0.4289,0.4924,0.5125,0.0,0.0,0.0,0.6178,0.6178,0.6271,0.0,0.0,0.0,0.0,0.0,0.0,0.761,0.7871,0.761,0.7557,0.7771,0.7771,0.7396,0.6593,0.6647,0.6652,0.6652,0.6756,0.6756,0.6756,0.6756,0.6756,0.0,0.0,0.0,0.7503,0.745,0.7818,0.8343,0.8084,0.8025,0.8078,0.7711,0.7396,0.7074,0.0,0.0,0.0,0.0,0.0,0.0,0.0,0.0,0.0,0.0,0.0,0.0,0.0,0.0,0.0,0.0,0.0,0.0,0.0,0.0,0.0,0.0,0.0,0.0,0.0612,0.1073,0.158,0.2211,0.2609,0.3104,0.3697,0.3663,0.3741,0.3951,0.4399,0.0,0.0,0.0,0.0,0.0,0.0,0.0,0.0,0.0,0.0,0.0,0.0,0.0,0.0,0.5358,0.5176,0.5023,0.4953,0.0,0.0,0.0,0.0,0.0,0.4861,0.4615,0.4393,0.4595,0.4598,0.4575,0.4503,0.4474,0.4444,0.4372,0.4361,0.4459,0.4657,0.4763,0.5012,0.0,0.0,0.0,0.6032,0.6221,0.6337,0.6337,0.6337,0.0,0.0,0.0,0.0,0.0,0.0,0.8137,0.8243,0.8137,0.8137,0.8243,0.8243,0.8137,0.7865,0.7771,0.7717,0.7717,0.7824,0.7925,0.7925,0.7925,0.7925,0.7871,0.0,0.0,0.8626,0.8527,0.8837,0.9413,0.8935,0.883,0.8823,0.8196,0.7931,0.7824,0.0,0.0,0.0,0.0,0.0,0.0,0.0,0.0,0.0,0.0,0.0,0.0,0.0,0.0,0.0,0.0,0.0,0.0,0.0,0.0,0.0,0.0,0.0,0.0721,0.1183,0.1245,0.1743,0.2697,0.2816,0.3146,0.3697,0.37,0.3967,0.4505,0.4835,0.5116,0.0,0.0,0.0,0.0,0.0,0.0,0.0,0.0,0.0,0.0,0.0,0.0,0.0,0.5718,0.546,0.5176,0.5144,0.0,0.0,0.0,0.0,0.0,0.5153,0.5347,0.5359,0.4877,0.5097,0.5328,0.4904,0.4989,0.5046,0.4651,0.4741,0.4958,0.5152,0.5438,0.575,0.0,0.0,0.6635,0.0,0.0,0.6977,0.6977,0.0,0.0,0.0,0.0,0.0,0.0,0.0,0.9204,0.9629,0.9256,0.9204,0.9681,0.9681,0.9681,0.9621,0.8455,0.7877,0.7877,0.7871,0.7925,0.7925,0.7925,0.7925,0.7925,0.0,0.819,0.8778,0.8725,0.9093,0.9562,0.9458,0.9458,0.9458,0.9354,0.904,0.8567,0.0,0.0,0.0,0.0,0.0,0.0,0.0,0.0,0.0,0.0,0.0,0.0,0.0,0.0,0.0,0.0,0.0,0.0,0.0,0.0,0.0,0.0,0.0807,0.1063,0.1306,0.1603,0.2131,0.2891,0.3187,0.352,0.3924,0.4085,0.4432,0.4985,0.5026,0.5144,0.5309,0.0,0.0,0.0,0.0,0.0,0.0,0.0,0.0,0.0,0.0,0.0,0.0,0.0,0.5842,0.5522,0.5453,0.0,0.0,0.0,0.0,0.0,0.509,0.5321,0.5535,0.5511,0.5702,0.5937,0.6117,0.6066,0.597,0.5904,0.6009,0.6147,0.638,0.6575,0.6832,0.7413,0.0,0.7844,0.7741,0.7759,0.7759,0.0,0.0,0.0,0.0,0.0,0.0,0.0,0.0,0.0,0.9999,0.9792,0.974,0.9999,0.9999,0.9999,0.9999,0.9658,0.9347,0.904,0.904,0.904,0.904,0.904,0.904,0.904,0.0,0.9197,0.9465,0.9465,0.9769,1.0233,1.0233,1.0431,1.0669,1.0261,0.9865,0.9361,0.0,0.0,0.0,0.0,0.0,0.0,0.0,0.0,0.0,0.0,0.0,0.0,0.0,0.0,0.0,0.0,0.0,0.0,0.0,0.0,0.0514,0.0572,0.106,0.1375,0.1503,0.2018,0.2647,0.3346,0.3594,0.3924,0.428,0.467,0.5016,0.5323,0.5204,0.5211,0.5309,0.5309,0.534,0.0,0.0,0.0,0.0,0.0,0.0,0.0,0.0,0.0,0.0,0.0,0.0,0.0,0.0,0.0,0.0,0.5207,0.5119,0.5068,0.5106,0.5278,0.5559,0.6068,0.6189,0.6389,0.7238,0.7181,0.7017,0.7349,0.7468,0.7536,0.762,0.7686,0.0,0.8514,0.8734,0.8823,0.8554,0.8495,0.0,0.0,0.0,0.0,0.0,0.0,0.0,0.0,0.0,0.0,1.0102,1.0102,1.0102,1.0102,1.0102,1.0102,1.0102,1.0506,1.0557,1.0205,1.0293,1.0395,1.0395,1.0395,1.0395,1.0395,1.0395,1.0395,1.0395,1.0395,1.0643,1.099,1.099,1.1233,1.1566,1.1015,1.0584,1.0146,0.0,0.0,0.0,0.0,0.0,0.0,0.0,0.0,0.0,0.0,0.0,0.0,0.0,0.0,0.0,0.0,0.0,0.0,0.0,0.0,0.0505,0.0507,0.1001,0.1549,0.2028,0.2625,0.3363,0.4283,0.4001,0.4188,0.4753,0.5452,0.5683,0.5503,0.5593,0.5518,0.5309,0.5309,0.5467,0.0,0.0,0.0,0.0,0.0,0.0,0.0,0.0,0.0,0.0,0.0,0.0,0.0,0.0,0.0,0.5749,0.5749,0.5491,0.5235,0.5409,0.554,0.5729,0.6312,0.6373,0.6621,0.7868,0.7998,0.8033,0.8575,0.8886,0.8883,0.843,0.8529,0.8798,0.9075,0.9145,0.9159,0.9152,0.0,0.0,0.0,0.0,0.0,0.0,0.0,0.0,0.0,0.0,0.0,1.0462,1.0462,1.0462,1.0462,1.0462,1.0462,1.0462,1.0522,1.0616,1.0753,1.1225,1.1466,1.1466,1.1466,1.1466,1.1466,1.1466,1.1466,1.1466,1.1466,1.1516,1.1516,1.1516,1.1566,1.1616,1.1566,1.1183,1.0804,0.0,0.0,0.0,0.0,0.0,0.0,0.0,0.0,0.0,0.0,0.0,0.0,0.0,0.0,0.0,0.0,0.0,0.0,0.0,0.0,0.0614,0.0848,0.1358,0.1947,0.2714,0.3169,0.3594,0.4092,0.4399,0.4836,0.5346,0.5539,0.5763,0.5911,0.559,0.5416,0.5347,0.5316,0.5529,0.5866,0.0,0.0,0.0,0.0,0.0,0.0,0.0,0.0,0.0,0.0,0.651,0.624,0.6203,0.6153,0.6052,0.5799,0.5502,0.5316,0.5558,0.5708,0.6004,0.6836,0.722,0.7613,0.8585,0.8928,0.9152,0.9803,1.0019,1.0027,0.9802,0.0,1.0396,1.0474,1.0498,1.0498,0.0,0.0,0.0,0.0,0.0,0.0,0.0,0.0,0.0,0.0,0.0,0.0,1.1309,1.1451,1.1534,1.1534,1.1501,1.141,1.141,1.1841,1.208,1.2178,1.1642,1.1551,1.1841,1.1841,1.1841,1.1841,1.1841,1.1841,1.1841,1.1841,1.203,1.2365,1.2716,1.2667,1.2365,1.2258,1.1931,1.1551,0.0,0.0,0.0,0.0,0.0,0.0,0.0,0.0,0.0,0.0,0.0,0.0,0.0,0.0,0.0,0.0,0.0,0.0,0.0,0.0,0.0805,0.1101,0.1659,0.232,0.3035,0.3493,0.3887,0.4186,0.4851,0.5349,0.5627,0.5683,0.5893,0.6213,0.5672,0.5489,0.5547,0.5508,0.571,0.6044,0.6245,0.0,0.0,0.0,0.0,0.0,0.0,0.0,0.0,0.0,0.6384,0.6206,0.6285,0.6313,0.6239,0.5977,0.5887,0.5889,0.5926,0.6119,0.653,0.7538,0.8095,0.8683,0.9665,0.9935,1.0234,1.1233,1.1366,1.1316,1.1316,1.1484,0.0,0.0,1.166,0.0,0.0,0.0,0.0,0.0,0.0,0.0,0.0,0.0,0.0,0.0,0.0,0.0,0.0,1.2169,1.2267,1.2267,1.2178,1.2147,1.2147,1.257,1.2909,1.3064,1.2295,1.2147,1.2589,1.254,1.254,1.2589,1.2589,1.2589,1.2638,1.2638,1.2919,1.3437,1.36,1.3552,1.3379,1.3283,1.2957,1.257,0.0,0.0,0.0,0.0,0.0,0.0,0.0,0.0,0.0,0.0,0.0,0.0,0.0,0.0,0.0,0.0,0.0,0.0,0.0,0.0801,0.1044,0.1107,0.1941,0.2567,0.289,0.3634,0.4262,0.4797,0.5334,0.5559,0.5515,0.5968,0.6233,0.63,0.5957,0.5855,0.5889,0.5897,0.6052,0.6307,0.639,0.6794,0.0,0.0,0.0,0.0,0.0,0.0,0.0,0.0,0.6191,0.6266,0.667,0.6566,0.6311,0.6311,0.6687,0.7022,0.6601,0.6798,0.7339,0.8369,0.8953,0.9657,1.1015,1.1061,1.1256,1.2852,1.3016,1.2812,1.2812,1.257,0.0,1.2414,1.2414,0.0,0.0,0.0,0.0,0.0,0.0,0.0,0.0,0.0,0.0,0.0,0.0,0.0,0.0,1.2414,1.2414,1.2414,1.2414,1.2414,1.2414,1.2414,1.2667,1.3208,1.3208,1.342,1.3821,1.3668,1.3668,1.3821,1.3821,1.3868,1.402,1.402,1.428,1.4663,1.4035,1.4165,1.4709,1.4709,1.4329,1.3909,0.0,0.0,0.0,0.0,0.0,0.0,0.0,0.0,0.0,0.0,0.0,0.0,0.0,0.0,0.0,0.0,0.0,0.0,0.0,0.0827,0.1213,0.198,0.2272,0.2917,0.4003,0.4386,0.4654,0.4797,0.5071,0.5297,0.5515,0.6048,0.6161,0.5957,0.593,0.5832,0.5616,0.5872,0.6145,0.646,0.6717,0.7107,0.0,0.0,0.0,0.0,0.0,0.0,0.0,0.0,0.0,0.0,0.6244,0.6496,0.6601,0.6298,0.6448,0.6622,0.6367,0.7128,0.8204,0.9024,1.0221,1.1533,1.2849,1.272,1.2542,1.3314,1.3266,1.3064,1.3064,1.3016,0.0,1.2967,0.0,0.0,0.0,0.0,0.0,0.0,0.0,0.0,0.0,0.0,0.0,0.0,0.0,0.0,0.0,1.3542,1.3684,1.3684,1.3552,1.3515,1.3515,1.3637,1.3742,1.3894,1.4258,1.4222,1.3926,1.3915,1.3915,1.3926,1.3926,1.3973,1.402,1.4362,1.4571,1.4709,1.4892,1.5028,1.5209,1.5209,1.5062,1.4971,0.0,0.0,0.0,0.0,0.0,0.0,0.0,0.0,0.0,0.0,0.0,0.0,0.0,0.0,0.0,0.0,0.0,0.0,0.0,0.0,0.1721,0.2381,0.2719,0.3335,0.4269,0.4576,0.4759,0.4785,0.4897,0.511,0.5462,0.6052,0.6247,0.6138,0.6209,0.6206,0.6131,0.6191,0.6413,0.6725,0.7107,0.7373,0.7598,0.0,0.0,0.0,0.0,0.0,0.0,0.0,0.0,0.0,0.5902,0.6194,0.6409,0.646,0.681,0.723,0.7404,0.8244,0.9327,1.0463,1.1507,1.2667,1.4177,1.4183,1.3911,1.4157,1.4071,1.3967,1.3967,1.3967,0.0,0.0,0.0,0.0,0.0,0.0,0.0,0.0,0.0,0.0,0.0,0.0,0.0,0.0,0.0,0.0,0.0,1.4186,1.4326,1.4419,1.4244,1.4208,1.4291,1.428,1.4408,1.4628,1.4903,1.4994,1.4846,1.4628,1.4593,1.4628,1.4686,1.4731,1.4731,1.4971,1.5197,1.5433,1.5466,1.5656,1.5832,1.5832,1.5788,1.5776,0.0,0.0,0.0,0.0,0.0,0.0,0.0,0.0,0.0,0.0,0.0,0.0,0.0,0.0,0.0,0.0,0.0,0.0,0.0,0.0,0.2413,0.2511,0.3339,0.3914,0.4118,0.4473,0.4736,0.4844,0.4812,0.5004,0.5399,0.6005,0.6361,0.6536,0.6586,0.6745,0.6951,0.6672,0.6678,0.691,0.729,0.7444,0.7434,0.7123,0.0,0.0,0.0,0.0,0.0,0.0,0.0,0.0,0.5645,0.5803,0.5926,0.6614,0.7441,0.8304,0.9028,0.9675,1.0542,1.2219,1.2821,1.342,1.5151,1.5334,1.5153,1.5153,1.5108,1.5108,1.5108,1.5108,1.5108,0.0,0.0,0.0,0.0,0.0,0.0,0.0,0.0,0.0,0.0,0.0,0.0,0.0,0.0,0.0,0.0,1.4512,1.4605,1.4834,1.4651,1.464,1.4834,1.4651,1.4823,1.5344,1.54,1.5688,1.6157,1.5688,1.5511,1.5632,1.5744,1.5832,1.5832,1.5732,1.6039,1.6466,1.5996,1.6083,1.6595,1.6637,1.6539,1.6441,0.0,0.0,0.0,0.0,0.0,0.0,0.0,0.0,0.0,0.0,0.0,0.0,0.0,0.0,0.0,0.0,0.0,0.0,0.0,0.0,0.2582,0.3322,0.423,0.4794,0.4953,0.5087,0.5151,0.5182,0.4934,0.5004,0.5392,0.5854,0.5997,0.5917,0.6458,0.6374,0.586,0.6227,0.6158,0.5839,0.6092,0.6273,0.6409,0.6351,0.6146,0.0,0.0,0.0,0.0,0.0,0.0,0.0,0.5645,0.5803,0.5845,0.6,0.6803,0.7723,0.7989,0.9544,1.1377,1.2611,1.4017,1.5243,1.562,1.5703,1.5614,1.5468,1.5244,1.5108,1.5108,1.5108,0.0,0.0,0.0,0.0,0.0,0.0,0.0,0.0,0.0,0.0,0.0,0.0,0.0,0.0,0.0,0.0,1.5322,1.5322,1.549,1.5776,1.5764,1.5764,1.5808,1.5764,1.5808,0.0,1.6299,1.6527,1.6612,1.6107,1.5844,1.5744,1.5888,1.5944,1.5988,1.6355,1.6612,1.6752,1.6993,1.7173,1.7297,1.7639,1.7517,1.7297,0.0,0.0,0.0,0.0,0.0,0.0,0.0,0.0,0.0,0.0,0.0,0.0,0.0,0.0,0.0,0.0,0.0,0.0,0.0,0.0,0.3149,0.4217,0.4933,0.5259,0.0,0.0,0.0,0.5306,0.5154,0.5199,0.548,0.6263,0.6567,0.6517,0.6817,0.6803,0.6537,0.6139,0.59,0.5801,0.5909,0.6009,0.608,0.598,0.5886,0.5774,0.5547,0.0,0.0,0.0,0.0,0.0,0.0,0.0,0.5529,0.5885,0.6672,0.7557,0.8231,0.9804,1.1623,1.3269,1.4785,1.5913,1.5913,1.5913,1.5869,1.5703,1.5513,1.5424,1.5424,1.5424,0.0,0.0,0.0,0.0,0.0,0.0,0.0,0.0,0.0,0.0,0.0,0.0,0.0,0.0,0.0,1.5367,1.5591,1.5591,1.58,1.6269,1.617,1.6157,1.6287,1.6157,1.6244,1.6544,1.6782,1.7005,1.724,1.6879,1.6667,1.6612,1.671,1.671,1.6752,1.7229,1.7435,1.7476,1.7921,1.7974,1.7854,1.8224,1.8145,1.7841,0.0,0.0,0.0,0.0,0.0,0.0,0.0,0.0,0.0,0.0,0.0,0.0,0.0,0.0,0.0,0.0,0.0,0.0,0.0,0.2962,0.381,0.4871,0.0,0.0,0.0,0.0,0.0,0.5383,0.5393,0.5538,0.5836,0.6841,0.7327,0.7389,0.734,0.732,0.7271,0.6118,0.5712,0.5813,0.5799,0.5823,0.5857,0.5691,0.5643,0.5625,0.5234,0.5108,0.5108,0.5108,0.0,0.0,0.0,0.0,0.5215,0.5838,0.6576,0.7439,0.8604,1.0066,1.1777,1.3885,1.5208,1.6009,1.6139,1.6207,1.6238,1.612,1.5957,1.5881,1.5957,0.0,0.0,0.0,0.0,0.0,0.0,0.0,0.0,0.0,0.0,0.0,0.0,0.0,0.0,0.0,0.0,1.5768,1.5888,1.5888,1.6151,1.6735,1.6527,1.6514,1.6727,1.6514,1.6685,1.7173,1.7201,1.7434,1.7868,1.776,1.7639,1.7516,1.7666,1.7707,1.7666,1.808,1.8263,1.8302,1.8626,1.8588,1.8302,1.8727,1.8612,1.8341,0.0,0.0,0.0,0.0,0.0,0.0,0.0,0.0,0.0,0.0,0.0,0.0057,0.0368,0.0654,0.0,0.0,0.0,0.0,0.2682,0.0,0.0,0.4561,0.0,0.0,0.0,0.0,0.0,0.5723,0.5442,0.5916,0.7073,0.7239,0.7331,0.7397,0.7696,0.7095,0.5874,0.5795,0.5374,0.4703,0.4532,0.4658,0.4968,0.4953,0.5046,0.5185,0.5127,0.5108,0.5108,0.5108,0.5108,0.0,0.0,0.0,0.5127,0.5293,0.598,0.6845,0.7543,0.9813,1.236,1.4047,1.5237,1.6112,1.6596,1.7034,1.7299,0.0,1.657,1.6076,0.0,0.0,0.0,0.0,0.0,0.0,0.0,0.0,0.0,0.0,0.0,0.0,0.0,0.0,0.0,0.0,1.6705,1.682,1.7144,1.7144,1.7323,1.7706,1.7666,1.7693,1.7706,1.7693,1.7706,1.7788,1.7949,1.8254,1.863,1.863,1.8226,1.7557,1.8355,1.8525,1.8226,1.8745,1.8974,1.8974,1.9011,1.9011,1.9011,1.942,1.931,1.9011,0.0,0.0,0.0,0.0,0.0,0.0,0.0,0.0,0.0,0.0,0.0,0.0456,0.1056,0.1251,0.0,0.0,0.0,0.0,0.3211,0.3856,0.0,0.0,0.0,0.0,0.0,0.0,0.5249,0.5457,0.5394,0.6207,0.7789,0.7872,0.8087,0.8386,0.8248,0.766,0.6712,0.5963,0.5254,0.4664,0.4564,0.5068,0.5791,0.5192,0.5461,0.6074,0.5363,0.5117,0.5166,0.5166,0.5175,0.5214,0.5214,0.0,0.0,0.0,0.6004,0.7019,0.8726,1.0461,1.2212,1.3986,1.4993,1.575,1.6585,1.6904,1.7156,1.7437,1.7201,1.6993,0.0,0.0,0.0,0.0,0.0,0.0,0.0,0.0,0.0,0.0,0.0,0.0,0.0,0.0,0.0,0.0,1.6876,1.7115,1.7557,1.7557,1.7774,1.8242,1.8123,1.8123,1.8242,1.8123,1.8123,1.8242,1.8475,1.8693,1.8869,1.9229,1.9043,1.8422,1.8869,1.8983,1.8831,1.9339,1.9666,1.9864,2.0074,2.0128,2.0131,2.0348,2.0299,2.0131,0.0,0.0,0.0,0.0,0.0,0.0,0.0,0.0,0.0,0.0,0.0,0.0,0.1699,0.0,0.0,0.0,0.0,0.0,0.3612,0.0,0.0,0.0,0.0,0.0,0.0,0.509,0.5187,0.533,0.5327,0.6329,0.8245,0.8221,0.868,0.9459,0.8921,0.824,0.7415,0.631,0.5556,0.5135,0.5231,0.5884,0.6727,0.626,0.669,0.7346,0.6075,0.5664,0.5664,0.0,0.0,0.5291,0.0,0.533,0.0,0.0,0.0,0.7049,0.9132,1.0284,1.1312,1.3103,1.4271,1.5233,1.6211,0.0,1.6978,0.0,1.7769,0.0,0.0,0.0,0.0,0.0,0.0,0.0,0.0,0.0,0.0,0.0,0.0,0.0,0.0,0.0,0.0,0.0,1.7295,1.7488,1.7882,1.7882,1.8095,1.8478,1.8361,1.8361,1.8517,1.8425,1.8528,1.8812,1.8997,1.9155,1.9266,1.9773,1.9788,1.9457,1.9515,1.9464,1.9413,1.9969,2.0333,2.0601,2.0991,2.1102,2.1054,2.1102,2.1102,2.1054,0.0,0.0,0.0,0.0,0.0,0.0,0.0,0.0,0.0,0.0,0.0,0.0,0.0,0.0,0.0,0.0,0.0,0.0,0.0,0.0,0.0,0.0,0.0,0.0,0.0,0.4921,0.5167,0.5669,0.5298,0.6241,0.8369,0.7949,0.8652,1.0225,0.9729,0.8521,0.683,0.6764,0.6466,0.6058,0.6457,0.6761,0.7124,0.8327,0.8844,0.8733,0.7534,0.0,0.0,0.0,0.0,0.0,0.5291,0.5425,0.5595,0.0,0.0,0.0,0.7335,0.8377,0.9552,1.0923,1.2874,1.4667,1.5466,0.0,1.7378,1.8043,1.8173,0.0,0.0,0.0,0.0,0.0,0.0,0.0,0.0,0.0,0.0,0.0,0.0,0.0,0.0,0.0,0.0,0.0,1.8439,1.8439,1.8478,1.8478,1.8478,1.8517,1.8478,1.8478,1.8517,1.8731,1.9132,1.9654,1.9639,1.9869,2.0235,2.0254,2.0323,2.0426,2.041,2.0224,1.9934,2.0649,2.0959,2.0991,2.1354,2.1477,2.1477,2.1477,2.1477,2.1477,0.0,0.0,0.0,0.0,0.0,0.0,0.0,0.0,0.0,0.0,0.0,0.0,0.0,0.2826,0.2998,0.3345,0.0,0.0,0.0,0.0,0.0,0.0,0.0,0.0,0.0,0.5069,0.5274,0.5512,0.5362,0.5985,0.7297,0.7311,0.7656,0.8271,0.8936,0.8707,0.7782,0.7241,0.6723,0.6362,0.7046,0.785,0.8623,0.8892,0.951,1.0062,0.8916,0.0,0.0,0.0,0.0,0.0,0.6083,0.5946,0.5881,0.6039,0.6272,0.671,0.7706,0.8286,0.8953,1.0474,1.2034,1.3507,1.4523,1.5682,1.675,1.7432,0.0,0.0,0.0,0.0,0.0,0.0,0.0,0.0,0.0,0.0,0.0,0.0,0.0,0.0,0.0,0.0,0.0,0.0,0.0,1.8542,1.8683,1.8683,1.8836,1.9124,1.9011,1.9049,1.9288,1.9493,1.969,1.9884,2.008,2.0239,2.0392,2.0527,2.0761,2.1023,2.1023,2.0878,2.0699,2.1039,2.1415,2.1774,2.1948,2.2136,2.2309,2.2136,2.222,2.2364,0.0,0.0,0.0,0.0,0.0,0.0,0.0,0.0,0.0,0.2352,0.0,0.0,0.0,0.0,0.345,0.3807,0.4027,0.4232,0.4423,0.0,0.0,0.0,0.0,0.0,0.0,0.514,0.527,0.5492,0.527,0.5724,0.6813,0.6921,0.7154,0.7527,0.8259,0.8406,0.8125,0.7559,0.7129,0.6911,0.7935,0.8827,0.9608,1.0125,1.0874,1.1503,0.0,0.0,0.0,0.0,0.0,0.0,0.6966,0.6488,0.6135,0.6343,0.6483,0.6762,0.7513,0.7912,0.8474,1.0076,1.1127,1.2187,1.3664,1.4645,1.5502,1.6387,0.0,0.0,0.0,0.0,0.0,0.0,0.0,0.0,0.0,0.0,0.0,0.0,0.0,0.0,0.0,0.0,0.0,0.0,0.0,0.0,1.9011,1.9035,1.9236,1.9639,1.953,1.9624,1.9995,2.0135,2.0254,2.0357,2.0646,2.0763,2.0712,2.1039,2.1293,2.1509,2.1509,2.1462,2.1399,2.1568,2.1895,2.2275,2.2439,2.2651,2.2799,2.2616,2.2764,2.2985,0.0,0.0,0.0,0.0,0.0,0.0,0.0,0.0,0.2604,0.2994,0.0,0.0,0.0,0.0,0.0,0.4125,0.4268,0.4451,0.4691,0.4711,0.0,0.0,0.0,0.0,0.0,0.5121,0.5185,0.5704,0.5051,0.5503,0.6971,0.6772,0.7245,0.8234,0.7856,0.7677,0.7686,0.7686,0.7705,0.7851,0.0,0.9649,0.9992,0.0,1.2965,0.0,1.1795,1.1357,0.0,0.9817,0.0,0.0,0.0,0.7058,0.6372,0.6547,0.6611,0.6624,0.0,0.0,0.0,0.9563,0.0,0.0,1.2806,0.0,1.3699,1.4964,0.0,0.0,0.0,0.0,0.0,0.0,0.0,0.0,0.0,0.0,0.0,0.0,0.0,0.0,0.0,0.0,0.0,0.0,1.9043,1.9192,1.9434,1.9456,1.963,1.9945,1.998,2.0174,2.0599,2.0599,2.078,2.1135,2.1386,2.1448,2.134,2.1721,2.1928,2.1911,2.1998,2.1969,2.194,2.2192,2.2341,2.2449,2.2782,2.2902,2.2902,2.2902,2.3077,2.3277,0.0,0.0,0.0,0.0,0.0,0.3549,0.3606,0.3669,0.3837,0.0,0.0,0.0,0.444,0.4708,0.4972,0.5236,0.5211,0.5114,0.5,0.5078,0.5195,0.5319,0.5328,0.5434,0.5635,0.569,0.5776,0.5907,0.5729,0.5863,0.6285,0.6414,0.6639,0.6918,0.7108,0.7195,0.7187,0.7187,0.0,0.8414,0.9007,0.9972,0.0,0.0,0.0,0.0,0.0,1.2419,1.2001,0.0,1.0485,0.9268,0.0,0.0,0.7038,0.6694,0.6887,0.7118,0.689,0.0,0.0,0.0,0.0,0.0,0.0,0.0,0.0,1.3165,0.0,0.0,0.0,0.0,0.0,0.0,0.0,0.0,0.0,0.0,0.0,0.0,0.0,0.0,0.0,0.0,0.0,0.0,1.7949,1.8066,1.8335,1.8633,1.881,1.892,1.92,1.9668,2.0302,2.0453,2.0847,2.1446,2.1718,2.1853,2.1794,2.1911,2.2068,2.2258,2.2275,2.2439,2.2677,2.2466,2.2537,2.2782,2.2927,2.297,2.3003,2.3247,2.3371,2.344,0.0,0.0,0.0,0.0,0.0,0.4445,0.4504,0.4462,0.457,0.0,0.0,0.0,0.5409,0.5506,0.5584,0.5718,0.5551,0.5349,0.5185,0.5281,0.5396,0.552,0.5614,0.5726,0.5904,0.5826,0.5902,0.6135,0.5809,0.5838,0.6117,0.6192,0.6287,0.6358,0.6598,0.6701,0.6701,0.6701,0.0,0.0,0.9391,0.0,0.0,1.2249,1.2799,0.0,0.0,0.0,1.2722,1.2543,1.1486,0.0,0.0,0.8224,0.788,0.7579,0.7752,0.8018,0.786,0.8109,0.8446,0.0,0.0,0.0,1.0396,1.1001,0.0,0.0,0.0,0.0,0.0,0.0,0.0,0.0,0.0,0.0,0.0,0.0,0.0,0.0,0.0,0.0,0.0,1.7732,1.77,1.7814,1.7814,1.7956,1.8207,1.8558,1.8736,1.8736,1.9054,1.9463,1.9943,2.0136,2.0611,2.1387,2.1669,2.1932,2.2164,2.232,2.2483,2.2669,2.2807,2.2975,2.3199,2.3056,2.2982,2.2995,2.3045,2.3102,2.3223,2.3435,2.3598,2.3753,0.0,0.0,0.5219,0.5547,0.5315,0.5132,0.5291,0.509,0.5119,0.0,0.5753,0.5988,0.6518,0.6179,0.5958,0.6064,0.5664,0.5439,0.5517,0.5511,0.5603,0.5804,0.597,0.6116,0.6236,0.584,0.586,0.6313,0.5668,0.5696,0.6313,0.6141,0.6153,0.6295,0.6295,0.6295,0.6307,0.6427,0.0,0.8127,0.9887,1.077,0.0,0.0,1.3113,1.3198,1.3232,1.3232,1.3185,1.3157,1.2203,0.0,0.0,0.9564,0.901,0.879,0.8968,0.0,0.9147,0.9368,0.9699,0.0,0.9673,0.0,1.1117,1.1176,1.1254,0.0,0.0,0.0,0.0,0.0,0.0,0.0,0.0,0.0,0.0,0.0,0.0,0.0,0.0,0.0,1.8129,1.8098,1.8098,1.8129,1.8129,1.8263,1.854,1.8784,1.894,1.894,1.9143,1.9353,1.9541,1.9748,2.0221,2.1025,2.1404,2.1841,2.2382,2.2849,2.3052,2.3102,2.3394,2.3531,2.3553,2.3732,2.3558,2.3175,2.3175,2.3342,2.3549,2.3553,2.3816,2.4116,0.0,0.6021,0.5898,0.6244,0.6196,0.6209,0.65,0.6461,0.6511,0.6904,0.6912,0.7094,0.7643,0.7027,0.6929,0.7739,0.6815,0.6363,0.6802,0.645,0.6278,0.6425,0.646,0.6465,0.6441,0.6457,0.6474,0.6458,0.6423,0.6423,0.6458,0.6423,0.6354,0.6295,0.6295,0.6295,0.6355,0.7227,0.0,0.9088,0.9157,0.0,1.2021,1.2641,1.2997,1.3232,1.3514,1.3425,1.317,1.3,1.2914,1.2624,0.0,1.0903,1.0907,0.9398,0.9694,1.0356,0.9552,1.0121,1.0649,0.9427,0.0,0.0,0.9201,0.9585,1.0233,0.0,0.0,0.0,0.0,0.0,0.0,0.0,0.0,0.0,0.0,0.0,0.0,0.0,0.0,0.0,1.7002,1.6866,1.6839,1.7002,1.7162,1.7345,1.7559,1.7724,1.7887,1.8047,1.8205,1.8568,1.9185,1.939,1.986,2.0618,2.1498,2.199,2.2183,2.29,2.3348,2.3562,2.3628,2.3735,2.3821,2.3862,2.378,2.3667,2.3667,2.3732,2.3834,2.3999,2.4154,2.4284,0.6527,0.6542,0.6639,0.682,0.6829,0.6859,0.7059,0.7062,0.7282,0.7859,0.8232,0.8467,0.8551,0.809,0.7928,0.8266,0.7381,0.6854,0.6995,0.6687,0.6535,0.6599,0.6633,0.6638,0.6591,0.6672,0.6672,0.6591,0.6672,0.6672,0.6591,0.6591,0.6759,0.7047,0.6734,0.6777,0.7109,0.7351,0.8019,0.8976,0.9957,0.0,1.2799,1.334,1.3644,1.3762,1.396,1.3894,1.367,1.324,1.3024,0.0,0.0,1.1806,1.1791,0.0,1.1113,1.156,1.0776,1.1001,1.1307,1.05,0.0,0.0,0.0,1.0616,1.1099,1.1641,1.1431,0.0,0.0,0.0,0.0,0.0,0.0,0.0,0.0,0.0,0.0,0.0,0.0,0.0,1.6548,1.6799,1.7018,1.7199,1.7296,1.7432,1.7658,1.7704,1.7811,1.7917,1.8031,1.8289,1.8645,1.8857,1.9346,2.0158,2.1057,2.175,2.2234,2.3028,2.3526,2.3714,2.3819,2.3941,2.4116,2.4211,2.4248,2.4173,2.3941,2.3959,2.4096,2.421,2.4339,2.4481,0.6783,0.6989,0.7271,0.7415,0.7366,0.7393,0.7559,0.7608,0.7911,0.8797,0.9447,0.973,0.9531,0.9305,0.9105,0.8999,0.8158,0.7539,0.7374,0.7056,0.6867,0.6872,0.6821,0.6825,0.6907,0.6825,0.6757,0.674,0.6803,0.6803,0.674,0.6757,0.7088,0.7614,0.724,0.738,0.7882,0.0,0.0,0.9284,0.0,1.2274,1.2957,1.387,1.4142,1.4124,1.4246,1.4332,1.4288,1.3629,1.3156,1.2802,1.2568,1.2548,0.0,0.0,0.0,0.0,0.0,0.0,0.0,0.0,0.0,1.2053,0.0,0.0,0.0,1.3347,0.0,0.0,0.0,0.0,0.0,0.0,0.0,0.0,0.0,0.0,0.0,0.0,0.0,0.0,0.0,1.6847,1.7282,1.7732,1.7457,1.749,1.8009,1.8048,1.807,1.8091,1.8205,1.827,1.827,1.8448,1.8917,1.9613,2.0436,2.1283,2.2171,2.302,2.3563,2.3842,2.404,2.4211,2.4393,2.4547,2.4631,2.458,2.4192,2.4192,2.4375,2.4375,2.4479,2.4631,0.745,0.7375,0.7561,0.8144,0.8003,0.8003,0.8557,0.8684,0.9057,0.9985,1.0171,1.0442,1.099,1.0673,1.0691,1.1439,0.0,0.0,0.9364,0.0,0.7847,0.7838,0.7341,0.725,0.7661,0.726,0.6993,0.6874,0.7118,0.7101,0.6891,0.6993,0.7033,0.7013,0.7495,0.7769,0.7936,0.0,0.9745,0.0,1.1843,1.1629,0.0,1.32,1.367,1.3479,1.4097,1.4493,1.4634,0.0,1.3912,1.3896,0.0,1.324,1.4001,1.2808,0.0,0.0,0.0,0.0,0.0,0.0,1.3534,0.0,0.0,0.0,1.2353,1.1464,0.0,0.0,0.0,0.0,0.0,0.0,0.0,0.0,0.0,0.0,0.0,0.0,0.0,0.0,0.0,1.6067,1.6353,1.7859,1.6597,1.6452,1.8076,1.8184,1.8266,1.8426,1.8526,1.8547,1.8547,1.8696,1.8823,1.8912,1.9775,2.0679,2.1624,2.2556,2.3493,2.4408,2.4425,2.4528,2.466,2.4676,2.4692,2.4676,2.4564,2.4582,2.465,2.465,2.4663,2.4692,0.7143,0.7563,0.7963,0.7898,0.8055,0.8301,0.8587,0.9512,1.022,1.0298,1.0978,1.1486,0.0,0.0,0.0,0.0,0.0,1.0447,0.0,0.0,0.8887,0.8542,0.7946,0.7712,0.7914,0.7371,0.712,0.7134,0.7244,0.7262,0.7187,0.7251,0.7657,0.834,0.8253,0.8884,0.9953,0.0,0.9891,0.0,0.0,0.0,0.0,1.3742,1.4582,1.4504,1.4772,1.4963,1.4986,0.0,1.3954,0.0,0.0,0.0,0.0,0.0,0.0,0.0,0.0,0.0,0.0,0.0,0.0,0.0,1.2915,0.0,1.3053,0.0,0.0,0.0,0.0,0.0,0.0,0.0,0.0,0.0,0.0,0.0,0.0,0.0,0.0,0.0,0.0,0.0,0.0,0.0,1.6248,1.6426,1.7768,1.8279,1.8582,1.8676,1.8696,1.8715,1.8715,1.8843,1.8931,1.9001,1.99,2.0549,2.1016,2.239,2.3303,2.3843,2.429,2.4607,2.4823,2.4823,2.4861,2.4942,2.4915,2.4823,2.4695,2.4695,2.4753,2.4823,0.7206,0.7708,0.7992,0.7602,0.8063,0.8605,0.9067,1.0197,1.1015,1.0998,1.1864,0.0,1.2411,1.2624,0.0,0.0,1.2372,1.1871,0.0,0.0,1.0101,0.9911,0.8922,0.8461,0.8683,0.7903,0.7462,0.7355,0.7371,0.7389,0.7407,0.7453,0.8001,0.8928,0.8842,0.9758,1.1321,0.0,1.0681,1.1494,1.1997,1.2311,1.2636,1.4356,1.5153,1.5313,1.5313,1.5313,1.5211,1.4601,1.4143,0.0,1.4382,0.0,0.0,0.0,0.0,0.0,1.5192,0.0,0.0,0.0,0.0,0.0,0.0,0.0,0.0,0.0,0.0,0.0,0.0,0.0,0.0,0.0,0.0,0.0,0.0,0.0,0.0,0.0,0.0,0.0,0.0,0.0,0.0,0.0,0.0,1.59,1.7505,1.8146,1.8574,1.8788,1.8843,1.8878,1.8878,1.9017,1.9134,1.9196,1.9911,2.0375,2.0714,2.2205,2.305,2.3406,2.4254,2.4731,2.4902,2.4942,2.5012,2.5107,2.5107,2.4987,2.4832,2.4818,2.4869,2.4962,0.8205,0.78,0.7404,0.7656,0.8196,0.9068,1.0518,1.0774,1.1277,1.2628,0.0,0.0,0.0,0.0,0.0,0.0,0.0,1.3685,1.3406,0.0,1.156,1.2428,1.0412,0.9617,0.0,0.9188,0.8212,0.7484,0.7559,0.7514,0.7407,0.7605,0.7709,0.7811,0.9025,1.0099,1.1039,1.1518,1.2922,1.4799,1.4252,1.4745,1.573,0.0,1.4747,1.5313,1.5313,0.0,0.0,1.4841,1.4752,0.0,0.0,0.0,0.0,0.0,0.0,0.0,0.0,0.0,0.0,1.56,0.0,0.0,0.0,0.0,1.4349,0.0,0.0,0.0,0.0,0.0,0.0,1.1437,0.0,0.0,0.0,0.0,0.0,0.0,0.0,0.0,0.0,0.0,0.0,0.0,0.0,0.0,1.7416,1.7629,1.8004,1.877,1.9,1.9099,1.9099,1.9289,1.9394,1.9394,1.9546,2.0043,2.084,2.1854,2.2755,2.3558,2.4473,2.4902,2.4915,2.5037,2.5107,2.5091,2.5091,2.5122,2.5171,2.5111,2.508,2.5111,0.8444,0.819,0.8064,0.8154,0.8518,0.9256,1.0618,1.1482,1.2297,0.0,0.0,0.0,0.0,1.4452,1.4641,0.0,0.0,1.4616,1.4118,1.3612,0.0,0.0,1.2135,1.1446,0.0,1.0495,0.9567,0.8434,0.845,0.8227,0.7797,0.787,0.8124,0.8528,0.9458,1.0776,0.0,0.0,0.0,0.0,0.0,1.4862,1.5953,0.0,0.0,1.5755,1.5755,1.5755,0.0,1.5613,1.5357,1.5154,1.5463,1.5516,1.56,1.6143,1.6632,0.0,0.0,0.0,1.7535,1.6584,0.0,0.0,0.0,0.0,0.0,0.0,0.0,0.0,0.0,0.0,0.0,1.2474,0.0,0.0,0.0,0.0,0.0,0.0,0.0,0.0,0.0,0.0,0.0,0.0,1.4083,0.0,0.0,1.7428,1.8121,1.8395,1.8984,1.9305,1.9305,1.9452,1.9541,1.9541,1.9668,1.9869,2.0169,2.1033,2.194,2.2823,2.3721,2.4522,2.5165,2.5216,2.5283,2.5363,2.5363,2.539,2.5382,2.5215,2.5186,2.5245,0.9442,0.9136,0.0,0.0,0.0,0.9875,1.136,1.2677,0.0,0.0,1.4828,0.0,1.5509,0.0,1.5733,0.0,1.62,1.595,1.5443,1.5106,0.0,1.4524,1.3625,0.0,0.0,0.0,1.0757,0.9367,0.9107,0.8636,0.8,0.8043,0.8285,0.8698,0.9644,1.1067,1.2792,1.3245,1.4052,0.0,0.0,1.5474,0.0,0.0,1.6136,1.5996,0.0,1.5996,1.5996,1.608,1.5937,1.5801,1.6253,1.6323,1.6329,1.6822,1.7199,1.7486,1.7693,1.791,0.0,1.7211,1.6661,0.0,1.5071,0.0,0.0,0.0,0.0,0.0,0.0,0.0,0.0,0.0,1.2693,0.0,0.0,1.0069,0.0,0.0,0.0,0.0,0.0,0.0,1.2826,1.3132,1.3503,0.0,0.0,0.0,1.79,1.8195,1.9031,1.9467,1.9467,1.9596,1.9668,1.9668,1.9751,1.9801,1.9868,2.0702,2.158,2.2525,2.3449,2.4398,2.5292,2.5343,2.5437,2.5544,2.5544,2.5544,2.5518,2.5385,2.5365,2.543,1.1051,1.0574,0.0,0.0,0.9576,0.0,0.0,0.0,1.5309,0.0,1.6731,1.7223,1.7223,1.729,1.7471,1.7794,1.7827,1.7651,1.7255,1.6452,0.0,0.0,1.4852,1.4197,1.4476,0.0,0.0,1.034,0.9544,0.8789,0.8074,0.8171,0.8197,0.8259,0.9606,0.0,1.2526,1.3773,1.5211,1.6596,1.6596,1.6596,1.6596,1.6623,1.6382,1.6024,1.6024,1.6024,1.608,1.6274,1.6501,1.6722,1.6659,1.6993,1.7384,1.7344,1.7509,1.78,1.8103,1.8208,1.8075,1.7498,0.0,0.0,0.0,0.0,1.627,0.0,0.0,0.0,0.0,0.0,0.0,0.0,0.0,0.0,0.0,0.0,0.0,0.0,0.0,0.0,0.0,1.1692,1.2202,1.2997,1.2509,1.3222,0.0,0.0,1.7322,1.8116,1.9095,1.9614,1.9614,1.9738,1.9807,1.982,1.982,1.9842,1.9947,2.0766,2.1689,2.2661,2.3619,2.4538,2.5327,2.5452,2.5544,2.5596,2.5596,2.5609,2.5601,2.5602,2.5609,2.5601,1.1472,1.1549,1.1602,0.0,1.1026,1.1576,0.0,0.0,0.0,0.0,1.6913,1.7372,1.7617,1.765,1.7794,1.8082,1.8191,0.0,0.0,0.0,0.0,1.7045,1.6475,1.5941,1.5519,1.4684,0.0,1.2205,0.0,0.9718,0.9029,0.8523,0.8285,0.8348,0.0,1.0851,1.18,1.3719,1.5326,1.6596,1.6596,1.6596,0.0,0.0,1.6607,1.6463,1.6554,1.6607,1.6607,1.6763,1.6959,1.715,1.7142,1.7272,1.7502,1.7618,1.78,1.7958,1.8146,1.8307,1.8393,1.8239,1.7859,1.7417,0.0,0.0,0.0,0.0,0.0,0.0,0.0,0.0,0.0,0.0,0.0,0.0,0.0,0.0,0.0,1.2345,0.0,0.0,0.0,1.1825,1.2832,1.2455,1.2909,0.0,0.0,0.0,0.0,1.7513,1.8977,1.9738,1.9738,1.9825,1.9896,1.9945,1.995,1.9983,2.0059,2.0269,2.1261,2.2778,2.3068,2.4087,2.5524,2.5557,2.557,2.5595,2.5595,2.5595,2.5601,2.5595,2.5595,2.5607,1.2574,0.0,0.0,1.3855,0.0,0.0,1.5037,0.0,0.0,1.7151,1.7812,0.0,1.8427,1.8718,1.8967,1.9083,1.9196,0.0,1.8747,0.0,0.0,1.7877,1.7554,1.7233,1.6871,1.6,0.0,1.3342,0.0,0.0,0.9473,0.8789,0.8472,0.8537,0.0,1.0994,1.1782,1.4283,1.5959,1.6942,1.6977,0.0,0.0,1.7117,1.7093,1.7043,1.7191,1.7117,1.6952,1.7076,1.7305,1.7505,1.7455,1.7595,1.7816,1.7866,1.8018,1.8187,1.8307,1.8408,1.8485,1.8485,1.8303,1.8021,1.7681,1.7806,1.7877,0.0,0.0,0.0,0.0,0.0,0.0,0.0,0.0,0.0,0.0,0.0,0.0,0.0,1.3197,0.0,0.0,0.0,1.2966,1.1802,0.0,0.0,0.0,0.0,0.0,1.7406,1.8701,1.9563,1.9928,1.9928,1.9971,2.005,2.0041,2.0095,2.0188,2.0185,2.1181,2.2894,2.2934,2.3948,2.5609,2.5595,2.5601,2.5601,2.5601,2.5599,2.5605,2.5605,2.5605,2.5605,1.4025,0.0,0.0,0.0,0.0,0.0,0.0,1.6947,0.0,1.8253,0.0,1.9425,1.9425,1.995,2.0304,2.0304,0.0,2.0175,1.957,1.9577,1.9358,1.8822,1.8471,1.8253,1.8192,1.7153,1.5723,0.0,0.0,0.0,0.96,0.8994,0.8691,0.0,0.0,0.0,0.0,1.5081,1.664,1.7408,1.7502,1.7509,1.7526,1.7612,1.7612,1.7612,1.7766,1.7549,1.7224,1.7344,1.7572,1.7811,1.7704,1.7922,1.8176,1.8103,1.8229,1.8426,1.8522,1.8524,1.8544,1.8563,1.8715,1.8681,1.7982,1.8063,1.8333,1.8461,1.7963,1.7919,0.0,0.0,0.0,0.0,0.0,0.0,0.0,0.0,0.0,0.0,0.0,0.0,0.0,0.0,0.0,0.0,0.0,0.0,0.0,0.0,0.0,1.757,1.838,1.921,2.0093,0.0,2.0068,2.0137,2.0145,2.0204,2.0334,2.0431,2.1403,2.3001,2.3109,2.4086,2.5601,2.5601,2.5607,2.5593,2.5593,2.5595,2.56,2.56,2.56,2.5619,1.5204,0.0,0.0,0.0,0.0,1.7468,1.8073,1.8083,1.8284,1.9025,1.9703,2.0119,2.0119,2.0227,2.0304,2.0388,2.0441,0.0,0.0,0.0,0.0,1.9821,1.9766,1.9429,1.8766,1.8025,1.6559,0.0,0.0,0.0,0.9662,0.9015,0.0,0.0,0.0,0.0,1.4655,1.5247,0.0,1.7502,1.7566,1.7589,1.7612,1.7704,1.7698,1.7635,1.7878,1.7833,1.7704,1.7833,1.7917,1.7983,1.8078,1.8125,1.8225,1.8368,1.8445,1.8524,1.8695,1.8751,1.877,1.8877,1.9048,1.9175,1.9029,1.9177,1.9351,1.9436,1.9344,1.9139,1.877,0.0,0.0,0.0,0.0,0.0,0.0,0.0,0.0,0.0,0.0,0.0,0.0,0.0,0.0,0.0,0.0,0.0,0.0,0.0,0.0,0.0,1.8374,0.0,0.0,0.0,2.0196,2.0262,2.0328,2.0385,2.0487,2.1152,2.2017,2.3037,2.375,2.4649,2.5601,2.5601,2.5609,2.5609,2.5609,2.5597,2.5605,2.5609,2.5638,2.5683,0.0,0.0,0.0,0.0,0.0,0.0,0.0,1.9761,0.0,1.9352,1.958,1.988,2.008,2.0409,2.0712,2.0942,2.1023,2.1071,2.1071,2.1045,2.1016,2.0986,2.0749,0.0,2.0044,1.9126,1.7646,1.5634,0.0,0.0,1.0405,0.9398,0.0,0.8987,0.0,1.3208,0.0,0.0,0.0,1.8569,1.903,1.9207,1.9224,1.9314,1.9314,1.9292,1.9421,1.9421,1.9216,1.8396,1.818,1.8263,1.8345,1.8348,1.8368,1.8465,1.8485,1.8544,1.8751,1.8788,1.8825,1.8964,1.9146,1.9305,1.9305,1.946,1.962,1.9705,1.9712,1.9457,1.865,1.7839,0.0,0.0,0.0,0.0,0.0,0.0,0.0,0.0,0.0,0.0,0.0,0.0,0.0,0.0,0.0,0.0,0.0,0.0,0.0,0.0,0.0,0.0,0.0,0.0,0.0,2.0402,2.0438,2.0468,2.0527,2.1323,2.2182,2.3057,2.3925,2.478,2.5601,2.5595,2.56,2.5605,2.5606,2.5611,2.5643,2.5605,2.5641,2.5703,0.0,1.9266,0.0,0.0,1.987,0.0,2.0638,2.1051,2.0957,1.9891,1.9749,1.9877,2.016,2.0687,2.115,2.1477,2.1568,2.1628,2.1628,2.1794,2.1899,2.1899,2.1585,2.1358,2.1206,2.011,1.8606,0.0,0.0,0.0,0.0,1.0161,0.0,0.0,0.0,0.0,0.0,0.0,1.8923,1.9813,2.0451,2.0718,2.074,2.0785,2.0807,2.0807,2.0807,2.0807,2.0591,1.9216,1.8857,1.8997,1.8997,1.8894,1.881,1.881,1.8706,1.8641,1.8861,1.8896,1.8949,1.9099,1.9243,1.9368,1.938,1.9518,1.9633,1.9707,1.9725,1.9476,1.8697,1.8208,0.0,0.0,0.0,0.0,0.0,0.0,0.0,0.0,0.0,0.0,0.0,0.0,0.0,0.0,0.0,0.0,1.2676,1.3298,0.0,0.0,0.0,1.8596,2.0216,0.0,2.0457,2.0507,2.0507,2.0585,2.0779,2.16,2.2454,2.3328,2.4203,2.4966,2.5609,2.5601,2.5603,2.5612,2.5616,2.5644,2.5696,2.5631,2.5654,2.5687,0.0,0.0,0.0,0.0,0.0,0.0,2.0761,2.1141,2.1323,2.1148,2.1179,2.1227,2.1258,2.1368,2.1477,2.1582,2.1598,2.1658,2.1781,2.201,2.2164,2.2164,2.2422,2.2229,2.1558,2.0739,1.9206,0.0,0.0,1.3898,0.0,1.155,0.0,0.0,0.0,0.0,0.0,1.8336,1.9248,2.059,2.0727,2.0785,2.0785,2.0807,2.0807,2.0807,2.0807,2.0807,2.0789,2.0609,2.0556,2.0578,2.0578,2.0212,1.9767,1.9767,1.938,1.8998,1.9196,1.9243,1.9308,1.9493,1.9555,1.9578,1.9656,1.9676,1.9701,1.9774,1.9775,1.955,1.8817,1.9225,1.9199,0.0,0.0,0.0,0.0,0.0,1.8561,1.7754,0.0,0.0,0.0,0.0,0.0,0.0,0.0,0.0,1.2668,1.2765,1.4004,1.665,0.0,1.8352,1.9308,2.0099,2.0483,2.0507,2.0507,2.0876,2.1619,2.2474,2.3348,2.4236,2.5096,2.5522,2.559,2.5603,2.5641,2.5683,2.5682,2.5694,2.5693,2.5681,2.5694,2.5691,0.0,0.0,0.0,0.0,0.0,0.0,0.0,2.199,2.2101,2.2015,2.1675,2.1554,2.1777,2.1836,2.1982,2.2226,2.2254,2.2298,2.2343,2.2436,2.249,2.249,2.2615,2.2574,2.2281,2.1497,2.0205,0.0,0.0,1.5348,1.3862,1.3134,0.0,0.0,0.0,1.7059,1.9175,2.0145,2.092,2.1516,2.1996,2.2189,2.2189,2.2189,2.2189,2.2195,2.2357,2.2424,2.2447,2.2561,2.1875,2.0986,2.0986,2.0916,2.0859,2.0859,2.0698,2.0535,2.0704,2.0737,2.0675,2.0389,2.0325,2.022,1.9794,1.9732,1.9769,1.9778,1.9839,1.9779,1.9583,1.943,1.9331,0.0,0.0,0.0,0.0,0.0,0.0,0.0,0.0,1.6992,0.0,0.0,0.0,0.0,0.0,0.0,0.0,0.0,0.0,1.5757,0.0,1.8317,1.9191,2.0061,2.0507,2.0507,2.0993,2.1381,2.1755,2.3134,2.4263,2.5098,2.5449,2.5593,2.5592,2.5643,2.5683,2.5699,2.5705,2.569,2.5697,2.5707,2.5703,2.5703,2.2338,0.0,2.1749,0.0,2.1783,2.1572,2.2395,2.2569,2.2579,2.2569,2.2158,2.1969,2.2226,2.2254,2.2392,2.2685,2.2712,2.2712,2.2712,2.2712,2.2712,2.2712,2.2712,0.0,2.2712,2.1987,2.1098,2.0044,1.8544,0.0,1.6343,0.0,0.0,0.0,1.7932,1.9032,2.0554,2.1693,2.2296,2.2562,2.3088,2.3301,2.3301,2.3301,2.3301,2.3324,2.3508,2.3598,2.362,2.3753,2.2994,2.1976,2.1896,2.1909,2.1917,2.1917,2.179,2.166,2.1762,2.1795,2.1683,2.1275,2.0986,2.0723,2.0233,1.9998,1.9896,1.9901,1.9931,1.9991,2.0116,1.9707,1.9465,1.9815,0.0,0.0,0.0,0.0,0.0,0.0,1.8045,1.7171,1.6301,0.0,0.0,0.0,0.0,0.0,0.0,0.0,0.0,0.0,0.0,0.0,0.0,2.0061,2.0624,2.0857,2.142,2.1974,2.2518,2.401,2.5013,2.559,2.5618,2.5616,2.5605,2.5679,2.5691,2.5709,2.5701,2.5707,2.5707,2.5703,2.5699,2.5699,2.2405,2.2443,2.247,2.2515,2.247,2.2497,2.2579,2.2605,2.2605,2.2685,2.2685,2.2659,2.2605,2.2659,2.2685,2.2712,2.2712,2.2712,2.2712,2.2712,2.2712,0.0,0.0,2.2712,2.2712,2.1987,2.1697,2.1867,0.0,0.0,2.0011,0.0,1.9411,2.0262,2.0262,2.1116,2.2567,2.2585,2.3055,2.3777,2.3795,2.3795,2.3795,2.3795,2.3795,2.3795,2.3795,2.3795,2.3795,2.3795,2.3921,2.4022,2.3821,2.3375,2.2887,2.2887,2.2459,2.1996,2.1996,2.1996,2.1996,2.1996,2.1502,2.1022,2.1072,2.0572,2.0124,2.0175,2.0143,2.0116,2.0192,2.0188,1.9949,1.9232,0.0,0.0,0.0,0.0,0.0,0.0,1.7152,1.6262,1.5403,0.0,0.0,0.0,0.0,0.0,0.0,0.0,0.0,1.6534,1.8282,0.0,1.9191,2.0061,2.0896,2.1697,2.1697,2.26,2.4296,2.5188,2.5592,2.5597,2.5664,2.5661,2.5615,2.5668,2.5707,2.5699,2.5699,2.5699,2.5699,2.5699,2.5699,2.5699,2.246,2.2487,2.2515,2.2569,2.2569,2.2579,2.2659,2.2659,2.2685,2.2685,2.2712,2.2685,2.2659,2.2685,2.2712,0.0,2.2712,2.2712,0.0,2.2712,2.2712,2.2712,2.2712,2.279,2.297,2.275,2.247,2.2162,0.0,0.0,0.0,2.0735,2.108,2.1879,2.1879,2.244,2.3417,2.3417,2.3581,2.3795,2.3795,2.3795,2.3795,2.3795,2.3795,2.3816,2.3959,2.4001,2.4039,2.4229,2.4321,2.4357,2.4303,2.4155,2.3987,2.3987,2.3854,2.3702,2.3702,2.3702,2.3553,2.2961,2.2753,2.2426,2.1355,2.0612,2.0195,2.0306,2.0242,2.0192,2.0313,2.0346,2.0257,2.0012,2.0225,0.0,0.0,0.0,0.0,0.0,1.89,1.8263,0.0,1.665,0.0,0.0,0.0,0.0,0.0,0.0,0.0,0.0,1.7987,0.0,2.0078,2.0954,2.1805,2.2667,2.3269,2.411,2.5195,2.5475,2.5602,2.5604,2.5621,2.5648,2.5662,2.5687,2.5703,2.5699,2.5699,2.5699,2.5699,2.5699,2.5639,2.5551,2.2542,2.2569,2.2579,2.2632,2.2632,2.2659,2.2685,2.2712,2.2738,2.2842,2.2868,2.2876,2.2943,2.2968,0.0,2.2868,2.2868,2.2876,2.2943,2.2968,2.2968,2.2968,2.2968,2.3042,2.3212,0.0,0.0,2.289,2.3073,2.2957,2.2557,2.2557,2.2832,2.3308,2.3308,2.3601,2.4077,2.4077,2.4077,2.4077,2.4077,2.4077,2.4077,2.4077,2.4077,2.4077,2.421,2.4248,2.4266,2.4446,2.45,2.45,2.4498,2.453,2.4564,2.4498,2.45,2.45,2.45,2.4551,2.4435,2.3913,2.3723,2.3322,2.2073,2.1473,2.1143,2.0933,2.0817,2.0699,2.0431,2.0399,2.0399,2.0399,2.0399,2.0392,2.0408,0.0,0.0,0.0,0.0,0.0,0.0,1.8014,0.0,0.0,0.0,0.0,0.0,0.0,0.0,1.6752,1.8984,0.0,2.0987,2.1847,2.2734,2.3604,2.4468,2.5153,2.5643,2.5644,2.5641,2.5642,2.5642,2.5668,2.5699,2.5699,2.5699,2.5699,2.5699,2.5667,2.5615,2.5615,2.556,2.5467,2.2605,2.2659,0.0,0.0,2.2738,0.0,2.2764,2.2747,2.2825,2.3077,2.3126,2.3206,2.3369,2.3392,2.3318,2.3151,0.0,0.0,0.0,2.3392,2.3392,2.3392,2.3392,2.3414,2.3437,2.35,2.3671,2.3937,2.4247,2.443,2.45,2.45,2.45,2.45,2.45,2.45,2.45,2.45,2.45,2.45,2.45,2.45,2.45,2.45,2.45,2.45,2.45,2.45,2.45,2.4517,2.4517,2.4515,2.4512,2.4623,2.4682,2.4566,2.4534,2.4532,2.4532,2.4631,2.4723,2.4723,2.4302,2.3735,2.313,2.2929,2.2685,2.1933,2.1785,2.1514,2.0656,2.0495,2.0476,2.0399,2.0399,2.0398,2.0408,0.0,0.0,0.0,0.0,0.0,0.0,1.8807,1.9288,0.0,0.0,0.0,0.0,0.0,1.7742,1.9239,2.0919,2.1865,2.1983,2.2786,2.3626,2.4503,2.5312,2.5701,2.5698,2.5701,2.5704,2.5691,2.5691,2.5707,2.5699,2.5699,2.5695,2.5695,2.5695,2.5605,2.5498,2.5498,2.5453,2.5379,0.0,0.0,2.302,2.302,2.302,2.306,2.32,2.3248,2.3248,2.3318,2.3318,2.3341,2.3392,2.3392,2.3477,2.3624,2.345,2.3341,2.3392,2.3392,2.3392,2.3392,2.3437,2.3566,2.3774,2.3855,2.4018,2.4284,2.4376,2.443,2.45,2.45,2.45,2.45,2.45,2.45,2.45,2.45,2.45,2.45,2.45,2.45,2.45,2.45,2.45,2.45,2.4497,2.4513,2.4513,2.4566,2.4645,2.4734,2.4731,2.4832,2.4896,2.476,2.479,2.4874,2.4874,2.4902,2.4929,2.4929,2.4407,2.3909,2.389,2.3373,2.284,2.2668,2.2617,2.2365,2.1533,2.1398,2.1159,2.0515,2.0392,2.041,2.0394,2.0404,0.0,0.0,2.0195,2.011,1.9903,2.0061,2.0181,0.0,0.0,0.0,0.0,2.0507,2.0527,2.0204,2.1239,2.2437,2.3769,2.3984,2.4528,2.5396,2.5607,2.5698,2.5707,2.5701,2.5691,2.5703,2.5703,2.5699,2.5699,2.5699,2.5639,2.5546,2.5546,2.5505,2.5418,2.5418,2.5382,2.5322,2.3067,2.314,2.3236,2.3236,2.3236,2.3265,2.3369,2.3392,2.3437,2.3566,2.3588,2.3631,2.3759,2.3759,2.384,2.3999,2.3777,2.3653,2.3759,2.3801,2.3801,2.3801,2.386,2.3921,2.4077,2.4153,2.4266,2.4447,2.4447,2.4465,2.45,2.45,2.45,2.45,2.45,2.45,2.45,2.45,2.45,2.45,2.45,2.45,2.45,2.45,2.4532,2.4578,2.4591,2.4654,2.4727,2.476,2.4832,2.4902,2.4877,2.4981,2.5084,2.5037,2.5019,2.5006,2.5006,2.5043,2.5115,2.5182,2.4869,2.461,2.4764,2.4432,2.3968,2.3577,2.348,2.3229,2.2404,2.1959,2.154,2.1061,2.0651,2.04,2.0437,2.0453,0.0,2.0497,2.085,2.1095,2.109,2.1442,2.1698,2.1699,0.0,0.0,2.1699,2.218,2.2024,2.1113,2.2324,2.3435,2.4381,2.4791,2.5232,2.5701,2.5701,2.5697,2.5707,2.5707,2.5703,2.5699,2.5699,2.5699,2.5699,2.5699,2.5615,2.5504,2.5504,2.5439,2.5348,2.5348,2.5313,2.5261,2.3414,2.3437,2.3459,2.3459,2.3459,2.3459,2.3522,2.3504,2.361,2.3837,2.3858,2.3959,2.4192,2.421,2.4247,2.4303,2.4096,2.4037,2.421,2.4266,2.4284,2.4284,2.4321,2.4321,2.4321,2.4375,2.4447,2.45,2.45,2.45,2.45,2.45,2.45,2.45,2.45,2.45,2.45,2.45,2.45,2.45,2.45,2.45,2.4498,2.4515,2.461,2.4712,2.4741,2.4855,2.4987,2.5019,2.5031,2.5056,2.5053,2.5133,2.5264,2.5303,2.5212,2.508,2.508,2.5149,2.5274,2.5385,2.5429,2.5429,2.5484,2.5499,2.5294,2.4539,2.4399,2.4154,2.3269,2.2456,2.1853,2.1721,2.0982,2.0437,2.0494,0.0,2.0707,2.0693,2.1477,2.2008,2.1992,2.2675,2.3142,2.3288,2.3306,2.3306,2.3304,2.3417,2.309,2.2221,2.3634,2.4464,2.4592,2.5333,2.5701,2.5691,2.5691,2.5707,2.5699,2.5699,2.5699,2.5699,2.5699,2.5699,2.5699,2.5699,2.5615,2.5498,2.5492,2.5403,2.5303,2.5293,2.525,2.5191,2.3437,2.3566,2.3753,2.3753,2.3753,2.3816,2.4036,2.4077,2.4096,2.4133,2.419,2.4228,2.4284,2.434,2.4339,2.4303,2.4321,2.4321,2.4284,2.4284,2.4284,2.4284,2.4358,2.4375,2.4375,2.4447,2.4482,2.45,2.45,2.45,2.45,2.45,2.45,2.45,2.45,2.45,2.45,2.45,2.45,2.45,2.45,2.4498,2.4512,2.4623,2.4716,2.4785,2.4911,2.4974,2.4998,2.5061,2.516,2.5253,2.5253,2.5351,2.5468,2.5468,2.5451,2.5415,2.5415,2.5451,2.5468,2.5484,2.5484,2.5484,2.5511,2.5505,2.5466,2.5331,2.5337,2.5113,2.4245,2.3385,2.259,2.1883,2.1051,2.0494,2.0506,0.0,2.1594,2.1601,2.2363,2.291,2.2901,2.3017,2.3405,2.4143,2.4202,2.42,2.4196,2.4898,2.4896,2.4027,2.4264,2.4748,2.5499,2.5629,2.5703,2.5699,2.5699,2.5699,2.5699,2.5699,2.5699,2.5699,2.5699,2.5699,2.5699,2.5699,2.5615,2.5498,2.5439,2.5365,2.5293,2.5228,2.5203,2.5191,2.3855,2.3917,2.4016,2.4016,2.4056,2.4095,2.419,2.4229,2.4247,2.4247,2.4284,2.4303,2.4358,2.4376,2.4412,2.4411,2.4447,2.4447,2.4411,2.4411,2.4411,2.4411,2.4447,2.4447,2.4447,2.4482,2.45,2.45,2.45,2.45,2.45,2.45,2.45,2.45,2.45,2.45,2.45,2.4582,2.4613,2.461,2.4685,2.4746,2.479,2.4828,2.4936,2.5018,2.5088,2.5184,2.5274,2.5303,2.5351,2.5406,2.5406,2.5459,2.5511,2.5511,2.5511,2.5511,2.5511,2.5511,2.5511,2.5511,2.5503,2.5492,2.5492,2.5529,2.5547,2.5547,2.5585,2.5485,2.5079,2.4284,2.3592,2.3259,2.2078,0.0,0.0,2.1875,2.2011,2.2457,2.3276,2.38,2.3794,2.4223,2.4672,2.5063,2.5102,2.51,2.5093,2.5481,2.5512,2.5109,2.5106,2.5281,2.5707,2.5699,2.5699,2.5699,2.5699,2.5699,2.5699,2.5699,2.5699,2.5699,2.5699,2.5667,2.5581,2.5581,2.5505,2.5398,2.5357,2.5322,2.5239,2.5214,2.5191,2.5191,2.419,2.419,2.419,2.419,2.4247,2.4284,2.4247,2.4506,2.4691,2.4691,2.4709,2.482,2.5116,2.5171,2.5152,2.5057,2.5057,2.5057,2.5057,2.511,2.4942,2.4518,2.45,2.45,2.45,2.45,2.45,2.45,2.45,2.4517,2.4551,2.4551,2.4678,2.4895,2.4895,2.4989,2.5192,2.5302,2.5359,2.5351,2.546,2.5545,2.5622,2.5628,2.5704,2.5802,2.5832,2.5821,2.5782,2.5782,2.5646,2.5511,2.5511,2.5511,2.5511,2.5511,2.5511,2.5511,2.5511,2.5511,2.5492,2.5495,2.5506,2.5504,2.5521,2.5585,2.5616,2.5616,2.5623,2.5626,2.5626,2.4913,2.4337,2.4389,0.0,0.0,0.0,2.2742,2.2719,2.3326,2.4165,2.469,2.469,2.5317,2.5707,2.5707,2.5707,2.5705,2.5701,2.5693,2.5704,2.571,2.5703,2.5699,2.5699,2.5699,2.5699,2.5699,2.5699,2.5699,2.5699,2.5699,2.5675,2.5643,2.5643,2.5595,2.548,2.548,2.541,2.5322,2.5313,2.5282,2.5225,2.5203,2.5191,2.5191,2.419,2.419,2.419,2.419,2.419,2.4247,2.4376,2.5227,2.5874,2.5874,2.5931,2.634,2.7361,2.7473,2.7269,2.6786,2.673,2.673,2.673,2.6912,2.6255,2.4555,2.45,2.45,2.45,2.45,2.45,2.45,2.45,2.4566,2.4692,2.4692,2.5179,2.6077,2.6077,2.6494,2.7195,2.7253,2.73,2.7281,2.7298,2.7357,2.7415,2.7543,2.761,2.7622,2.7758,2.7282,2.6605,2.6605,2.6122,2.5511,2.5511,2.5511,2.5511,2.5511,2.5511,2.5511,2.5511,2.5511,2.5507,2.5499,2.5498,2.5515,2.5585,2.5645,2.5685,2.5685,2.5698,2.5683,2.5683,2.498,2.4394,2.4393,0.0,0.0,2.3093,2.3735,2.4241,2.43,2.5063,2.5609,2.5609,2.5668,2.5707,2.5707,2.5707,2.5705,2.5701,2.5693,2.5701,2.5699,2.5699,2.5699,2.5699,2.5699,2.5699,2.5699,2.5699,2.5699,2.5699,2.5699,2.5634,2.551,2.551,2.5473,2.5422,2.5422,2.5395,2.539,2.5322,2.5303,2.5283,2.5225,2.5191,2.5191,2.4449,2.48,2.5039,2.4395,2.5152,2.5782,2.5449,2.5764,2.6191,2.6506,2.6562,2.6748,2.7157,2.7326,2.7305,2.7099,2.7146,2.7213,2.7213,2.7277,2.7009,2.6324,2.6305,2.6305,2.6305,2.6305,2.6305,2.6305,2.6305,2.6318,2.6363,2.6363,2.6578,2.694,2.6987,2.7172,2.7471,2.7593,2.7656,2.768,2.778,2.7824,2.7855,2.7894,2.7913,2.7923,2.7978,2.7793,2.7503,2.7503,2.6942,2.6238,2.6238,2.5898,2.5511,2.5511,2.5503,2.5506,2.5506,2.5506,2.5512,2.5498,2.5556,2.5639,2.5651,2.5672,2.5701,2.5701,2.5703,2.5703,2.5703,2.5429,2.5213,2.5212,0.0,2.409,2.4633,2.4534,2.4592,2.5141,2.5492,2.5707,2.5707,2.5707,2.5707,2.5707,2.5707,2.5703,2.5693,2.5701,2.5707,2.5699,2.5699,2.5699,2.5699,2.5699,2.5699,2.5699,2.5699,2.5663,2.5576,2.5576,2.5523,2.5439,2.5439,2.5387,2.534,2.534,2.5313,2.5273,2.525,2.5228,2.5228,2.5203,2.5191,2.5191,2.5482,2.565,2.5928,2.5893,2.6896,2.7417,2.6654,2.6877,2.7176,2.7345,2.7587,2.7774,2.7848,2.7971,2.8056,2.8056,2.8115,2.8192,2.8192,2.8217,2.7989,2.7414,2.7395,2.7395,2.7395,2.7395,2.7395,2.7395,2.7395,2.7424,2.7466,2.7466,2.7627,2.7935,2.7994,2.8173,2.8421,2.8526,2.8613,2.8653,2.8763,2.882,2.8818,2.8818,2.8818,2.8818,2.8818,2.8644,2.8412,2.8412,2.7832,2.7116,2.7116,2.6552,2.5858,2.5587,2.5499,2.5532,2.5532,2.5542,2.5556,2.5556,2.5639,2.5709,2.5694,2.5702,2.5703,2.5703,2.5703,2.5703,2.5703,2.5702,2.57,2.5698,2.5206,2.5024,2.5629,2.5199,2.5024,2.5629,2.5707,2.5707,2.5707,2.5707,2.5707,2.5707,2.5705,2.5701,2.5704,2.5691,2.5703,2.5699,2.5667,2.5639,2.5639,2.5671,2.5671,2.5639,2.5639,2.5571,2.5473,2.5473,2.5432,2.5365,2.5365,2.5331,2.5262,2.5262,2.5239,2.5191,2.5191,2.5191,2.5191,2.5191,2.518,2.5168,2.7401,2.6703,2.6746,2.8996,2.9407,2.9016,2.7881,2.8682,2.9172,2.8501,2.9101,2.9681,2.9886,2.9902,2.9902,2.9902,2.9902,2.9902,2.9902,3.0022,2.9289,2.7504,2.7414,2.7414,2.7414,2.7414,2.7414,2.7414,2.7414,2.7485,2.7619,2.7619,2.8152,2.9113,2.9173,2.9646,3.0417,3.0471,3.0491,3.052,3.0569,3.0598,3.0598,3.0598,3.0598,3.0598,3.0598,3.0037,2.9302,2.9302,2.8722,2.8014,2.7995,2.7443,2.6644,2.5776,2.5561,2.5601,2.5601,2.5648,2.5707,2.5707,2.5707,2.5693,2.5703,2.5703,2.5703,2.5703,2.5703,2.5703,2.5703,2.5702,2.5701,2.5694,2.5694,2.5693,2.5707,2.5707,2.5707,2.5707,2.5707,2.5707,2.5707,2.5707,2.5707,2.5707,2.5703,2.5693,2.5694,2.5691,2.5707,2.5699,2.5571,2.5504,2.5504,2.5634,2.5634,2.5504,2.5504,2.5467,2.5406,2.5406,2.5357,2.5303,2.5303,2.5271,2.5191,2.5191,2.5191,2.5191,2.5191,2.5191,2.5191,2.521,2.5168,2.5101,2.7925,2.8096,2.8304,2.8234,2.8988,2.9514,2.9157,2.9563,2.978,2.9479,2.9668,2.9836,2.9886,2.9977,3.0037,3.0037,3.0174,3.0247,3.0247,3.0286,3.0068,2.9532,2.9513,2.9513,2.9513,2.9513,2.9513,2.9513,2.9513,2.9538,2.9562,2.956,2.9717,3.0021,3.0083,3.0239,3.0471,3.053,3.0569,3.0569,3.0598,3.0598,3.0598,3.0598,3.0598,3.0598,3.0598,3.0424,3.0211,3.0211,2.9631,2.8816,2.8252,2.7919,2.7556,2.6724,2.6493,2.6381,2.5813,2.5673,2.57,2.5691,2.5697,2.5702,2.5703,2.5703,2.5703,2.5703,2.5703,2.5703,2.5701,2.5699,2.5697,2.5694,2.5691,2.5709,2.5707,2.5707,2.5707,2.5707,2.5707,2.5707,2.5707,2.5707,2.5705,2.5703,2.5609,2.5542,2.5492,2.5499,2.5486,2.5479,2.5459,2.5425,2.5425,2.5473,2.5473,2.5425,2.5425,2.5387,2.5331,2.5331,2.5303,2.5236,2.5236,2.5225,2.5191,2.5191,2.5191,2.521,2.5156,2.5125,2.5125,2.512,2.5126,2.5095,2.8782,2.9157,2.9326,2.8671,2.9193,2.9715,2.9767,2.9953,3.0064,2.9996,2.9977,3.0011,3.009,3.0155,3.0228,3.0228,3.0323,3.0398,3.0398,3.0398,3.0398,3.0398,3.0398,3.0398,3.0398,3.0398,3.0398,3.0398,3.0398,3.039,3.0402,3.0406,3.0398,3.0439,3.0481,3.0491,3.0501,3.0569,3.0598,3.0598,3.0598,3.0598,3.0598,3.0598,3.0598,3.0598,3.0598,3.0598,3.0598,3.0598,3.0257,2.9679,2.8877,2.8635,2.8496,2.767,2.7422,2.7358,2.687,2.6483,2.6211,2.6208,2.5956,2.5703,2.5703,2.5703,2.5703,2.5702,2.5702,2.5701,2.5698,2.5696,2.5693,2.5691,2.5709,2.5707,2.5707,2.5707,2.5707,2.5707,2.5707,2.5707,2.5707,2.5676,2.5639,2.5589,2.5502,2.5447,2.5398,2.5403,2.5387,2.5387,2.5374,2.5357,2.5357,2.5321,2.5321,2.5357,2.5357,2.5331,2.5271,2.5271,2.5228,2.5191,2.5191,2.5191,2.5191,2.5191,2.5191,2.521,2.5168,2.5125,2.5101,2.5107,2.5082,2.5057,2.9784,2.9869,2.9902,2.9902,2.9801,2.9784,2.9902,3.0049,3.0123,3.0122,3.0122,3.0196,3.0367,3.0398,3.0398,3.0398,3.0398,3.0398,3.0398,3.0398,3.0398,3.0398,3.0398,3.0398,3.0398,3.0398,3.041,3.041,3.041,3.0402,3.0417,3.0398,3.0439,3.0509,3.051,3.052,3.0501,3.0569,3.0598,3.0598,3.0598,3.0598,3.0598,3.0598,3.0598,3.0598,3.0607,3.0588,3.0597,3.0606,3.0599,3.0471,2.9745,2.9581,2.9452,2.858,2.8376,2.8398,2.832,2.7715,2.7129,2.7128,2.6465,2.5801,2.5722,2.5702,2.5702,2.57,2.5699,2.5698,2.5694,2.5693,2.5691,2.5707,2.5707,2.5707,2.5707,2.5707,2.5707,2.5707,2.5707,2.5707,2.5685,2.5629,2.5546,2.5406,2.5398,2.5383,2.5371,2.539,2.539,2.539,2.5322,2.5293,2.5293,2.5217,2.5217,2.5293,2.5293,2.5261,2.5191,2.5191,2.5191,2.5191,2.5191,2.5191,2.5191,2.5191,2.5191,2.5191,2.5191,2.5137,2.5101,2.5069,2.5019,2.4966,2.9869,2.9886,2.9902,2.9902,2.9962,3.0018,3.0052,3.0215,3.033,3.0323,3.0323,3.0355,3.0398,3.0398,3.0398,3.0398,3.0398,3.0398,3.0398,3.0398,3.0398,3.0398,3.0398,3.0398,3.0398,3.0398,3.0402,3.0406,3.0406,3.0417,3.0469,3.0471,3.0481,3.051,3.0559,3.0588,3.0588,3.0598,3.0598,3.0598,3.0598,3.0598,3.0598,3.0598,3.0598,3.0607,3.0607,3.061,3.0618,3.0658,3.0681,3.0662,3.054,3.0518,3.0355,2.9548,2.9316,2.918,2.8495,2.8163,2.8026,2.8024,2.736,2.654,2.5857,2.5701,2.57,2.5696,2.5696,2.5694,2.5709,2.5709,2.5709,2.5707,2.5707,2.5707,2.5707,2.5707,2.5707,2.5707,2.5707,2.5681,2.5636,2.5556,2.5466,2.5337,2.533,2.5293,2.525,2.525,2.525,2.525,2.5217,2.5225,2.5225,2.5203,2.5203,2.5225,2.5225,2.5214,2.5191,2.5191,2.5191,2.5191,2.5191,2.5191,2.5191,2.5191,2.5191,2.5191,2.5137,2.5113,2.5069,2.4861,2.479,2.4727,3.0099,3.0133,3.0133,3.0133,3.0202,3.0241,3.0241,3.0323,3.0398,3.0398,3.0398,3.0398,3.0398,3.0398,3.0398,3.0398,3.0398,3.0398,3.0398,3.0398,3.0398,3.0398,3.0806,3.103,3.103,3.1426,3.1226,3.0398,3.0852,3.1097,3.1128,3.1563,3.1737,3.1728,3.1787,3.1797,3.1797,3.1797,3.1797,3.1797,3.1797,3.1806,3.184,3.184,3.1592,3.1261,3.1261,3.1001,3.065,3.0682,3.0724,3.0742,3.0796,3.0827,3.0778,3.0332,3.0214,3.0116,2.9666,2.9236,2.8922,2.8919,2.8255,2.7396,2.6517,2.599,2.5696,2.5691,2.5691,2.5709,2.5707,2.5707,2.5707,2.5707,2.5707,2.5707,2.5707,2.5707,2.5707,2.5707,2.5676,2.5605,2.5479,2.5425,2.5365,2.5253,2.5252,2.5228,2.5191,2.5191,2.5191,2.5191,2.5191,2.5191,2.5191,2.5191,2.5191,2.5191,2.5191,2.5191,2.5191,2.5191,2.5191,2.5191,2.5191,2.5191,2.5191,2.5191,2.5191,2.518,2.5025,2.4974,2.4934,2.47,2.4572,2.454,3.0367,3.0398,3.0398,3.0398,3.0398,3.0398,3.0398,3.0398,3.0398,3.0398,3.0398,3.0398,3.0398,3.0533,3.0609,3.0609,3.0756,3.0833,3.0833,3.0833,3.0833,3.0833,3.1542,3.1931,3.1931,3.264,3.2312,3.0852,3.1637,3.2017,3.2037,3.2752,3.3091,3.3102,3.3102,3.3102,3.3102,3.3102,3.3122,3.3113,3.3113,3.3167,3.3225,3.3225,3.2797,3.2216,3.2244,3.1761,3.1141,3.1005,3.0986,3.1003,3.0864,3.0856,3.0898,3.0897,3.0897,3.0897,3.0894,3.0366,2.9818,2.9814,2.9168,2.8328,2.7606,2.6767,2.614,2.6136,2.6039,2.5922,2.5922,2.5805,2.5707,2.5707,2.5707,2.5707,2.5707,2.5683,2.5681,2.5681,2.5609,2.551,2.5327,2.5293,2.5264,2.5203,2.5191,2.5191,2.5191,2.5191,2.5191,2.5191,2.5191,2.5191,2.5191,2.5191,2.5191,2.5191,2.5191,2.5191,2.5191,2.5191,2.5191,2.5191,2.5191,2.5191,2.5191,2.518,2.5168,2.5113,2.4883,2.4785,2.4712,2.4526,2.4391,2.4284,3.0398,3.0398,3.0398,3.0398,3.0398,3.0398,3.0398,3.0398,3.0398,3.0398,3.0398,3.0398,3.0398,3.1083,3.1525,3.1525,3.216,3.2564,3.2564,3.2608,3.2651,3.2651,3.2752,3.2814,3.2814,3.3001,3.2974,3.2742,3.2858,3.2926,3.2928,3.3044,3.3102,3.3102,3.3102,3.3102,3.3102,3.3102,3.3122,3.3188,3.3188,3.3239,3.3283,3.3283,3.3229,3.3122,3.3191,3.3135,3.2928,3.2225,3.1991,3.1875,3.1113,3.0898,3.0897,3.0897,3.0896,3.0894,3.0891,3.0811,3.0712,3.0648,3.0021,2.9398,2.9281,2.8578,2.7952,2.7952,2.7347,2.6822,2.6822,2.6214,2.5707,2.5707,2.5707,2.5707,2.5707,2.5648,2.5609,2.5609,2.5492,2.5398,2.5311,2.5253,2.5217,2.5191,2.5191,2.5191,2.5191,2.5191,2.5191,2.5191,2.5191,2.5191,2.5191,2.5191,2.5191,2.5191,2.5191,2.5191,2.5191,2.5191,2.5191,2.5191,2.5191,2.5191,2.521,2.5125,2.5013,2.485,2.4814,2.4697,2.4505,2.432,2.4097,2.3878,3.0398,3.0398,3.0398,3.0398,3.0398,3.0398,3.0398,3.0398,3.0398,3.0398,3.0833,3.1141,3.1141,3.1872,3.2372,3.2372,3.273,3.2954,3.2954,3.2972,3.3014,3.3014,3.3499,3.3771,3.3771,3.4318,3.4602,3.4602,3.4126,3.3902,3.3957,3.4396,3.461,3.461,3.461,3.461,3.461,3.461,3.4632,3.4646,3.4646,3.4681,3.4745,3.4745,3.4466,3.4012,3.3569,3.3397,3.3359,3.2988,3.2871,3.2793,3.2421,3.2303,3.2203,3.1713,3.1574,3.1456,3.0982,3.0845,3.0843,3.0801,3.0528,3.0274,3.0274,2.9962,2.9435,2.8498,2.7991,2.7737,2.7737,2.7015,2.6585,2.7073,2.6741,2.6581,2.7027,2.6646,2.613,2.5564,2.5395,2.5321,2.5253,2.5228,2.5203,2.5191,2.5191,2.5191,2.5191,2.5191,2.5191,2.5191,2.5191,2.5191,2.5191,2.5191,2.5191,2.5191,2.5191,2.5191,2.5191,2.5191,2.5191,2.521,2.5168,2.5137,2.5137,2.512,2.5051,2.4947,2.4804,2.4538,2.4247,2.404,2.3899,2.3795]}]]